<?xml version='1.0' encoding='UTF-8'?>
<gpx version="1.1" creator="https://www.komoot.de" xmlns="http://www.topografix.com/GPX/1/1" xmlns:xsi="http://www.w3.org/2001/XMLSchema-instance" xsi:schemaLocation="http://www.topografix.com/GPX/1/1 http://www.topografix.com/GPX/1/1/gpx.xsd">
  <metadata>
    <name>87_1000StaffeleggRotberg</name>
    <author>
      <link href="https://www.komoot.de">
        <text>komoot</text>
        <type>text/html</type>
      </link>
    </author>
  </metadata>
  <trk>
    <name>87_1000StaffeleggRotberg</name>
    <trkseg>
      <trkpt lat="47.541434" lon="7.870772">
        <ele>341.099681</ele>
        <time>2021-11-22T10:52:05.184Z</time>
      </trkpt>
      <trkpt lat="47.541576" lon="7.870664">
        <ele>341.099681</ele>
        <time>2021-11-22T10:52:08.849Z</time>
      </trkpt>
      <trkpt lat="47.541796" lon="7.871042">
        <ele>341.099681</ele>
        <time>2021-11-22T10:52:16.111Z</time>
      </trkpt>
      <trkpt lat="47.541953" lon="7.871286">
        <ele>341.099681</ele>
        <time>2021-11-22T10:52:21.034Z</time>
      </trkpt>
      <trkpt lat="47.542039" lon="7.871556">
        <ele>341.204504</ele>
        <time>2021-11-22T10:52:25.501Z</time>
      </trkpt>
      <trkpt lat="47.542067" lon="7.871664">
        <ele>341.515770</ele>
        <time>2021-11-22T10:52:27.191Z</time>
      </trkpt>
      <trkpt lat="47.542091" lon="7.871721">
        <ele>341.696514</ele>
        <time>2021-11-22T10:52:27.809Z</time>
      </trkpt>
      <trkpt lat="47.542218" lon="7.871866">
        <ele>342.335579</ele>
        <time>2021-11-22T10:52:33.023Z</time>
      </trkpt>
      <trkpt lat="47.542394" lon="7.872341">
        <ele>343.793411</ele>
        <time>2021-11-22T10:52:43.251Z</time>
      </trkpt>
      <trkpt lat="47.542436" lon="7.872494">
        <ele>344.237787</ele>
        <time>2021-11-22T10:52:46.654Z</time>
      </trkpt>
      <trkpt lat="47.542537" lon="7.872430">
        <ele>344.675615</ele>
        <time>2021-11-22T10:52:48.767Z</time>
      </trkpt>
      <trkpt lat="47.542714" lon="7.872334">
        <ele>345.426864</ele>
        <time>2021-11-22T10:52:55.723Z</time>
      </trkpt>
      <trkpt lat="47.542814" lon="7.872280">
        <ele>345.851080</ele>
        <time>2021-11-22T10:52:58.737Z</time>
      </trkpt>
      <trkpt lat="47.542919" lon="7.872226">
        <ele>346.294071</ele>
        <time>2021-11-22T10:53:02.575Z</time>
      </trkpt>
      <trkpt lat="47.543013" lon="7.872182">
        <ele>346.686976</ele>
        <time>2021-11-22T10:53:06.082Z</time>
      </trkpt>
      <trkpt lat="47.543233" lon="7.872082">
        <ele>347.604158</ele>
        <time>2021-11-22T10:53:13.321Z</time>
      </trkpt>
      <trkpt lat="47.543251" lon="7.872152">
        <ele>347.805690</ele>
        <time>2021-11-22T10:53:16.694Z</time>
      </trkpt>
      <trkpt lat="47.543332" lon="7.872237">
        <ele>348.201315</ele>
        <time>2021-11-22T10:53:19.999Z</time>
      </trkpt>
      <trkpt lat="47.544390" lon="7.872423">
        <ele>355.046966</ele>
        <time>2021-11-22T10:54:01.719Z</time>
      </trkpt>
      <trkpt lat="47.544883" lon="7.872555">
        <ele>358.285564</ele>
        <time>2021-11-22T10:54:24.109Z</time>
      </trkpt>
      <trkpt lat="47.545131" lon="7.872664">
        <ele>359.958177</ele>
        <time>2021-11-22T10:54:35.132Z</time>
      </trkpt>
      <trkpt lat="47.545375" lon="7.872836">
        <ele>361.715285</ele>
        <time>2021-11-22T10:54:46.056Z</time>
      </trkpt>
      <trkpt lat="47.545478" lon="7.872968">
        <ele>362.600886</ele>
        <time>2021-11-22T10:54:52.877Z</time>
      </trkpt>
      <trkpt lat="47.545515" lon="7.873015">
        <ele>362.917819</ele>
        <time>2021-11-22T10:54:54.820Z</time>
      </trkpt>
      <trkpt lat="47.545746" lon="7.873302">
        <ele>364.878245</ele>
        <time>2021-11-22T10:55:08.036Z</time>
      </trkpt>
      <trkpt lat="47.545888" lon="7.873488">
        <ele>366.110782</ele>
        <time>2021-11-22T10:55:15.564Z</time>
      </trkpt>
      <trkpt lat="47.545934" lon="7.873549">
        <ele>366.512233</ele>
        <time>2021-11-22T10:55:18.137Z</time>
      </trkpt>
      <trkpt lat="47.546077" lon="7.873763">
        <ele>367.833963</ele>
        <time>2021-11-22T10:55:27.305Z</time>
      </trkpt>
      <trkpt lat="47.546135" lon="7.873859">
        <ele>368.399470</ele>
        <time>2021-11-22T10:55:30.519Z</time>
      </trkpt>
      <trkpt lat="47.546309" lon="7.874154">
        <ele>370.119003</ele>
        <time>2021-11-22T10:55:41.662Z</time>
      </trkpt>
      <trkpt lat="47.547126" lon="7.875801">
        <ele>375.813966</ele>
        <time>2021-11-22T10:56:27.448Z</time>
      </trkpt>
      <trkpt lat="47.547574" lon="7.876801">
        <ele>378.013543</ele>
        <time>2021-11-22T10:56:46.443Z</time>
      </trkpt>
      <trkpt lat="47.547992" lon="7.877974">
        <ele>377.122776</ele>
        <time>2021-11-22T10:56:59.244Z</time>
      </trkpt>
      <trkpt lat="47.548234" lon="7.878638">
        <ele>376.616019</ele>
        <time>2021-11-22T10:57:04.556Z</time>
      </trkpt>
      <trkpt lat="47.548422" lon="7.878959">
        <ele>376.146304</ele>
        <time>2021-11-22T10:57:07.399Z</time>
      </trkpt>
      <trkpt lat="47.548718" lon="7.879258">
        <ele>374.642132</ele>
        <time>2021-11-22T10:57:10.937Z</time>
      </trkpt>
      <trkpt lat="47.549140" lon="7.879391">
        <ele>372.830664</ele>
        <time>2021-11-22T10:57:15.124Z</time>
      </trkpt>
      <trkpt lat="47.549318" lon="7.879398">
        <ele>372.083045</ele>
        <time>2021-11-22T10:57:16.751Z</time>
      </trkpt>
      <trkpt lat="47.549327" lon="7.879547">
        <ele>371.659108</ele>
        <time>2021-11-22T10:57:17.737Z</time>
      </trkpt>
      <trkpt lat="47.549726" lon="7.880786">
        <ele>367.926816</ele>
        <time>2021-11-22T10:57:26.672Z</time>
      </trkpt>
      <trkpt lat="47.549927" lon="7.881490">
        <ele>366.081432</ele>
        <time>2021-11-22T10:57:31.704Z</time>
      </trkpt>
      <trkpt lat="47.550234" lon="7.883221">
        <ele>361.622376</ele>
        <time>2021-11-22T10:57:44.105Z</time>
      </trkpt>
      <trkpt lat="47.550332" lon="7.884727">
        <ele>357.182998</ele>
        <time>2021-11-22T10:57:53.949Z</time>
      </trkpt>
      <trkpt lat="47.550391" lon="7.885109">
        <ele>356.033166</ele>
        <time>2021-11-22T10:57:56.481Z</time>
      </trkpt>
      <trkpt lat="47.550548" lon="7.885799">
        <ele>353.682913</ele>
        <time>2021-11-22T10:58:01.086Z</time>
      </trkpt>
      <trkpt lat="47.550677" lon="7.886476">
        <ele>350.976427</ele>
        <time>2021-11-22T10:58:05.516Z</time>
      </trkpt>
      <trkpt lat="47.550758" lon="7.887295">
        <ele>347.791781</ele>
        <time>2021-11-22T10:58:10.658Z</time>
      </trkpt>
      <trkpt lat="47.550789" lon="7.887816">
        <ele>345.779528</ele>
        <time>2021-11-22T10:58:13.890Z</time>
      </trkpt>
      <trkpt lat="47.550831" lon="7.888611">
        <ele>342.554872</ele>
        <time>2021-11-22T10:58:18.846Z</time>
      </trkpt>
      <trkpt lat="47.550833" lon="7.889069">
        <ele>340.622241</ele>
        <time>2021-11-22T10:58:21.656Z</time>
      </trkpt>
      <trkpt lat="47.550915" lon="7.890600">
        <ele>334.141682</ele>
        <time>2021-11-22T10:58:31.049Z</time>
      </trkpt>
      <trkpt lat="47.550904" lon="7.891725">
        <ele>330.700799</ele>
        <time>2021-11-22T10:58:38.053Z</time>
      </trkpt>
      <trkpt lat="47.550892" lon="7.893176">
        <ele>326.745148</ele>
        <time>2021-11-22T10:58:47.665Z</time>
      </trkpt>
      <trkpt lat="47.550908" lon="7.894308">
        <ele>325.154459</ele>
        <time>2021-11-22T10:58:56.870Z</time>
      </trkpt>
      <trkpt lat="47.550878" lon="7.895158">
        <ele>324.439176</ele>
        <time>2021-11-22T10:59:04.055Z</time>
      </trkpt>
      <trkpt lat="47.550838" lon="7.895509">
        <ele>324.140034</ele>
        <time>2021-11-22T10:59:07.219Z</time>
      </trkpt>
      <trkpt lat="47.550660" lon="7.896255">
        <ele>323.353399</ele>
        <time>2021-11-22T10:59:13.729Z</time>
      </trkpt>
      <trkpt lat="47.550639" lon="7.896345">
        <ele>323.181923</ele>
        <time>2021-11-22T10:59:14.936Z</time>
      </trkpt>
      <trkpt lat="47.550648" lon="7.896481">
        <ele>322.935849</ele>
        <time>2021-11-22T10:59:15.896Z</time>
      </trkpt>
      <trkpt lat="47.550819" lon="7.898109">
        <ele>319.968982</ele>
        <time>2021-11-22T10:59:27.714Z</time>
      </trkpt>
      <trkpt lat="47.550809" lon="7.899338">
        <ele>317.122886</ele>
        <time>2021-11-22T10:59:35.735Z</time>
      </trkpt>
      <trkpt lat="47.550801" lon="7.900244">
        <ele>314.485987</ele>
        <time>2021-11-22T10:59:41.555Z</time>
      </trkpt>
      <trkpt lat="47.550769" lon="7.901362">
        <ele>311.229418</ele>
        <time>2021-11-22T10:59:48.817Z</time>
      </trkpt>
      <trkpt lat="47.550757" lon="7.901591">
        <ele>310.627238</ele>
        <time>2021-11-22T10:59:50.943Z</time>
      </trkpt>
      <trkpt lat="47.550688" lon="7.902451">
        <ele>308.464968</ele>
        <time>2021-11-22T10:59:59.326Z</time>
      </trkpt>
      <trkpt lat="47.550498" lon="7.903445">
        <ele>305.885649</ele>
        <time>2021-11-22T11:00:09.576Z</time>
      </trkpt>
      <trkpt lat="47.550302" lon="7.904164">
        <ele>303.953678</ele>
        <time>2021-11-22T11:00:16.836Z</time>
      </trkpt>
      <trkpt lat="47.550025" lon="7.904774">
        <ele>302.135581</ele>
        <time>2021-11-22T11:00:23.761Z</time>
      </trkpt>
      <trkpt lat="47.549868" lon="7.905010">
        <ele>301.316141</ele>
        <time>2021-11-22T11:00:26.892Z</time>
      </trkpt>
      <trkpt lat="47.549867" lon="7.905155">
        <ele>300.957549</ele>
        <time>2021-11-22T11:00:28.289Z</time>
      </trkpt>
      <trkpt lat="47.550067" lon="7.905245">
        <ele>300.191724</ele>
        <time>2021-11-22T11:00:31.214Z</time>
      </trkpt>
      <trkpt lat="47.550283" lon="7.905413">
        <ele>299.297912</ele>
        <time>2021-11-22T11:00:34.664Z</time>
      </trkpt>
      <trkpt lat="47.550497" lon="7.905558">
        <ele>298.435746</ele>
        <time>2021-11-22T11:00:38.023Z</time>
      </trkpt>
      <trkpt lat="47.549539" lon="7.908625">
        <ele>293.114124</ele>
        <time>2021-11-22T11:01:02.473Z</time>
      </trkpt>
      <trkpt lat="47.549520" lon="7.908678">
        <ele>293.057990</ele>
        <time>2021-11-22T11:01:02.969Z</time>
      </trkpt>
      <trkpt lat="47.549381" lon="7.909139">
        <ele>292.585702</ele>
        <time>2021-11-22T11:01:07.098Z</time>
      </trkpt>
      <trkpt lat="47.549310" lon="7.909375">
        <ele>292.344012</ele>
        <time>2021-11-22T11:01:09.167Z</time>
      </trkpt>
      <trkpt lat="47.549239" lon="7.909611">
        <ele>292.102322</ele>
        <time>2021-11-22T11:01:11.320Z</time>
      </trkpt>
      <trkpt lat="47.549195" lon="7.909756">
        <ele>291.953613</ele>
        <time>2021-11-22T11:01:12.597Z</time>
      </trkpt>
      <trkpt lat="47.549102" lon="7.910058">
        <ele>291.643110</ele>
        <time>2021-11-22T11:01:15.316Z</time>
      </trkpt>
      <trkpt lat="47.549012" lon="7.910340">
        <ele>291.351325</ele>
        <time>2021-11-22T11:01:17.817Z</time>
      </trkpt>
      <trkpt lat="47.548412" lon="7.912168">
        <ele>289.804756</ele>
        <time>2021-11-22T11:01:34.152Z</time>
      </trkpt>
      <trkpt lat="47.548027" lon="7.913334">
        <ele>289.032598</ele>
        <time>2021-11-22T11:01:44.913Z</time>
      </trkpt>
      <trkpt lat="47.547994" lon="7.913433">
        <ele>289.008612</ele>
        <time>2021-11-22T11:01:45.833Z</time>
      </trkpt>
      <trkpt lat="47.547423" lon="7.915080">
        <ele>288.606371</ele>
        <time>2021-11-22T11:02:03.306Z</time>
      </trkpt>
      <trkpt lat="47.547113" lon="7.915971">
        <ele>288.730810</ele>
        <time>2021-11-22T11:02:13.701Z</time>
      </trkpt>
      <trkpt lat="47.547091" lon="7.916039">
        <ele>288.754982</ele>
        <time>2021-11-22T11:02:14.718Z</time>
      </trkpt>
      <trkpt lat="47.547032" lon="7.916218">
        <ele>288.818836</ele>
        <time>2021-11-22T11:02:16.902Z</time>
      </trkpt>
      <trkpt lat="47.546821" lon="7.916867">
        <ele>289.049747</ele>
        <time>2021-11-22T11:02:24.966Z</time>
      </trkpt>
      <trkpt lat="47.546382" lon="7.918605">
        <ele>289.577899</ele>
        <time>2021-11-22T11:02:47.444Z</time>
      </trkpt>
      <trkpt lat="47.546262" lon="7.919081">
        <ele>289.699562</ele>
        <time>2021-11-22T11:02:52.476Z</time>
      </trkpt>
      <trkpt lat="47.546128" lon="7.919617">
        <ele>289.836421</ele>
        <time>2021-11-22T11:02:57.950Z</time>
      </trkpt>
      <trkpt lat="47.545973" lon="7.920313">
        <ele>290.011908</ele>
        <time>2021-11-22T11:03:06.455Z</time>
      </trkpt>
      <trkpt lat="47.545913" lon="7.920765">
        <ele>290.398223</ele>
        <time>2021-11-22T11:03:10.655Z</time>
      </trkpt>
      <trkpt lat="47.545881" lon="7.921096">
        <ele>290.692495</ele>
        <time>2021-11-22T11:03:14.711Z</time>
      </trkpt>
      <trkpt lat="47.545810" lon="7.921755">
        <ele>291.279795</ele>
        <time>2021-11-22T11:03:23.623Z</time>
      </trkpt>
      <trkpt lat="47.545778" lon="7.921947">
        <ele>291.453841</ele>
        <time>2021-11-22T11:03:27.232Z</time>
      </trkpt>
      <trkpt lat="47.545714" lon="7.922249">
        <ele>291.732410</ele>
        <time>2021-11-22T11:03:30.430Z</time>
      </trkpt>
      <trkpt lat="47.545699" lon="7.922325">
        <ele>291.802095</ele>
        <time>2021-11-22T11:03:31.628Z</time>
      </trkpt>
      <trkpt lat="47.545690" lon="7.922369">
        <ele>291.842557</ele>
        <time>2021-11-22T11:03:33.726Z</time>
      </trkpt>
      <trkpt lat="47.545641" lon="7.922610">
        <ele>292.064064</ele>
        <time>2021-11-22T11:03:36.080Z</time>
      </trkpt>
      <trkpt lat="47.545587" lon="7.922895">
        <ele>292.324576</ele>
        <time>2021-11-22T11:03:41.876Z</time>
      </trkpt>
      <trkpt lat="47.545553" lon="7.923142">
        <ele>292.863040</ele>
        <time>2021-11-22T11:03:44.523Z</time>
      </trkpt>
      <trkpt lat="47.545536" lon="7.923407">
        <ele>293.504114</ele>
        <time>2021-11-22T11:03:50.413Z</time>
      </trkpt>
      <trkpt lat="47.545521" lon="7.923709">
        <ele>294.233386</ele>
        <time>2021-11-22T11:03:54.566Z</time>
      </trkpt>
      <trkpt lat="47.545481" lon="7.924396">
        <ele>295.894031</ele>
        <time>2021-11-22T11:04:09.169Z</time>
      </trkpt>
      <trkpt lat="47.545466" lon="7.924880">
        <ele>297.060876</ele>
        <time>2021-11-22T11:04:20.476Z</time>
      </trkpt>
      <trkpt lat="47.545446" lon="7.925350">
        <ele>298.195025</ele>
        <time>2021-11-22T11:04:30.851Z</time>
      </trkpt>
      <trkpt lat="47.545417" lon="7.925848">
        <ele>299.170398</ele>
        <time>2021-11-22T11:04:41.330Z</time>
      </trkpt>
      <trkpt lat="47.545409" lon="7.926773">
        <ele>300.574125</ele>
        <time>2021-11-22T11:04:58.531Z</time>
      </trkpt>
      <trkpt lat="47.545407" lon="7.927001">
        <ele>300.920125</ele>
        <time>2021-11-22T11:05:02.340Z</time>
      </trkpt>
      <trkpt lat="47.545406" lon="7.927306">
        <ele>301.382943</ele>
        <time>2021-11-22T11:05:06.944Z</time>
      </trkpt>
      <trkpt lat="47.545421" lon="7.927686">
        <ele>301.960547</ele>
        <time>2021-11-22T11:05:12.480Z</time>
      </trkpt>
      <trkpt lat="47.545475" lon="7.928419">
        <ele>302.663999</ele>
        <time>2021-11-22T11:05:21.797Z</time>
      </trkpt>
      <trkpt lat="47.545563" lon="7.929641">
        <ele>301.487412</ele>
        <time>2021-11-22T11:05:31.659Z</time>
      </trkpt>
      <trkpt lat="47.545661" lon="7.930955">
        <ele>300.229506</ele>
        <time>2021-11-22T11:05:41.064Z</time>
      </trkpt>
      <trkpt lat="47.545696" lon="7.931497">
        <ele>299.786428</ele>
        <time>2021-11-22T11:05:45.032Z</time>
      </trkpt>
      <trkpt lat="47.545705" lon="7.931687">
        <ele>299.631431</ele>
        <time>2021-11-22T11:05:46.431Z</time>
      </trkpt>
      <trkpt lat="47.545721" lon="7.931992">
        <ele>299.382483</ele>
        <time>2021-11-22T11:05:48.839Z</time>
      </trkpt>
      <trkpt lat="47.545724" lon="7.932758">
        <ele>298.759124</ele>
        <time>2021-11-22T11:05:55.025Z</time>
      </trkpt>
      <trkpt lat="47.545702" lon="7.933290">
        <ele>298.325386</ele>
        <time>2021-11-22T11:05:59.668Z</time>
      </trkpt>
      <trkpt lat="47.545674" lon="7.933625">
        <ele>298.147428</ele>
        <time>2021-11-22T11:06:02.920Z</time>
      </trkpt>
      <trkpt lat="47.545457" lon="7.935110">
        <ele>299.107112</ele>
        <time>2021-11-22T11:06:21.055Z</time>
      </trkpt>
      <trkpt lat="47.545074" lon="7.936484">
        <ele>300.270908</ele>
        <time>2021-11-22T11:06:42.582Z</time>
      </trkpt>
      <trkpt lat="47.544903" lon="7.936917">
        <ele>300.864088</ele>
        <time>2021-11-22T11:06:49.899Z</time>
      </trkpt>
      <trkpt lat="47.544705" lon="7.937395">
        <ele>301.527226</ele>
        <time>2021-11-22T11:06:58.083Z</time>
      </trkpt>
      <trkpt lat="47.544472" lon="7.937932">
        <ele>302.282059</ele>
        <time>2021-11-22T11:07:07.490Z</time>
      </trkpt>
      <trkpt lat="47.543826" lon="7.939433">
        <ele>304.334811</ele>
        <time>2021-11-22T11:07:34.372Z</time>
      </trkpt>
      <trkpt lat="47.543435" lon="7.940670">
        <ele>305.891757</ele>
        <time>2021-11-22T11:07:54.332Z</time>
      </trkpt>
      <trkpt lat="47.543161" lon="7.942213">
        <ele>306.519127</ele>
        <time>2021-11-22T11:08:15.182Z</time>
      </trkpt>
      <trkpt lat="47.543007" lon="7.943867">
        <ele>306.429103</ele>
        <time>2021-11-22T11:08:30.726Z</time>
      </trkpt>
      <trkpt lat="47.542913" lon="7.945267">
        <ele>305.098710</ele>
        <time>2021-11-22T11:08:41.632Z</time>
      </trkpt>
      <trkpt lat="47.542872" lon="7.945781">
        <ele>304.609281</ele>
        <time>2021-11-22T11:08:45.448Z</time>
      </trkpt>
      <trkpt lat="47.542875" lon="7.946089">
        <ele>304.306979</ele>
        <time>2021-11-22T11:08:47.683Z</time>
      </trkpt>
      <trkpt lat="47.542902" lon="7.946514">
        <ele>303.853583</ele>
        <time>2021-11-22T11:08:50.777Z</time>
      </trkpt>
      <trkpt lat="47.542943" lon="7.946806">
        <ele>303.536805</ele>
        <time>2021-11-22T11:08:52.988Z</time>
      </trkpt>
      <trkpt lat="47.542974" lon="7.946965">
        <ele>303.361025</ele>
        <time>2021-11-22T11:08:54.296Z</time>
      </trkpt>
      <trkpt lat="47.542979" lon="7.946989">
        <ele>303.334348</ele>
        <time>2021-11-22T11:08:54.452Z</time>
      </trkpt>
      <trkpt lat="47.542989" lon="7.947104">
        <ele>303.211195</ele>
        <time>2021-11-22T11:08:55.323Z</time>
      </trkpt>
      <trkpt lat="47.542984" lon="7.947304">
        <ele>302.998625</ele>
        <time>2021-11-22T11:08:56.898Z</time>
      </trkpt>
      <trkpt lat="47.542979" lon="7.947370">
        <ele>302.928085</ele>
        <time>2021-11-22T11:08:57.400Z</time>
      </trkpt>
      <trkpt lat="47.542935" lon="7.947564">
        <ele>302.710715</ele>
        <time>2021-11-22T11:08:58.967Z</time>
      </trkpt>
      <trkpt lat="47.542892" lon="7.947789">
        <ele>302.462345</ele>
        <time>2021-11-22T11:09:00.885Z</time>
      </trkpt>
      <trkpt lat="47.542875" lon="7.948001">
        <ele>302.235592</ele>
        <time>2021-11-22T11:09:02.700Z</time>
      </trkpt>
      <trkpt lat="47.542838" lon="7.948225">
        <ele>301.990657</ele>
        <time>2021-11-22T11:09:04.485Z</time>
      </trkpt>
      <trkpt lat="47.542826" lon="7.948298">
        <ele>301.910857</ele>
        <time>2021-11-22T11:09:05.106Z</time>
      </trkpt>
      <trkpt lat="47.542719" lon="7.949175">
        <ele>301.396033</ele>
        <time>2021-11-22T11:09:12.331Z</time>
      </trkpt>
      <trkpt lat="47.542719" lon="7.949175">
        <ele>301.396033</ele>
        <time>2021-11-22T11:09:12.414Z</time>
      </trkpt>
      <trkpt lat="47.542719" lon="7.949175">
        <ele>301.396033</ele>
        <time>2021-11-22T11:09:12.627Z</time>
      </trkpt>
      <trkpt lat="47.542609" lon="7.949914">
        <ele>301.158236</ele>
        <time>2021-11-22T11:09:19.402Z</time>
      </trkpt>
      <trkpt lat="47.542560" lon="7.950202">
        <ele>301.064906</ele>
        <time>2021-11-22T11:09:22.271Z</time>
      </trkpt>
      <trkpt lat="47.542554" lon="7.950231">
        <ele>301.055375</ele>
        <time>2021-11-22T11:09:22.546Z</time>
      </trkpt>
      <trkpt lat="47.542546" lon="7.950274">
        <ele>301.041359</ele>
        <time>2021-11-22T11:09:22.951Z</time>
      </trkpt>
      <trkpt lat="47.542444" lon="7.950687">
        <ele>300.903167</ele>
        <time>2021-11-22T11:09:27.418Z</time>
      </trkpt>
      <trkpt lat="47.542357" lon="7.951037">
        <ele>300.785965</ele>
        <time>2021-11-22T11:09:31.104Z</time>
      </trkpt>
      <trkpt lat="47.542192" lon="7.951713">
        <ele>300.642480</ele>
        <time>2021-11-22T11:09:38.078Z</time>
      </trkpt>
      <trkpt lat="47.542169" lon="7.951815">
        <ele>300.624149</ele>
        <time>2021-11-22T11:09:39.012Z</time>
      </trkpt>
      <trkpt lat="47.541991" lon="7.952667">
        <ele>300.472125</ele>
        <time>2021-11-22T11:09:47.273Z</time>
      </trkpt>
      <trkpt lat="47.541854" lon="7.953310">
        <ele>300.357192</ele>
        <time>2021-11-22T11:09:53.402Z</time>
      </trkpt>
      <trkpt lat="47.541791" lon="7.953601">
        <ele>300.305100</ele>
        <time>2021-11-22T11:09:56.328Z</time>
      </trkpt>
      <trkpt lat="47.541773" lon="7.953695">
        <ele>300.288445</ele>
        <time>2021-11-22T11:09:57.275Z</time>
      </trkpt>
      <trkpt lat="47.541735" lon="7.953892">
        <ele>300.295787</ele>
        <time>2021-11-22T11:09:59.172Z</time>
      </trkpt>
      <trkpt lat="47.541660" lon="7.954250">
        <ele>300.315064</ele>
        <time>2021-11-22T11:10:02.921Z</time>
      </trkpt>
      <trkpt lat="47.541530" lon="7.954936">
        <ele>300.351706</ele>
        <time>2021-11-22T11:10:10.148Z</time>
      </trkpt>
      <trkpt lat="47.541482" lon="7.955294">
        <ele>300.370477</ele>
        <time>2021-11-22T11:10:14.186Z</time>
      </trkpt>
      <trkpt lat="47.541465" lon="7.955512">
        <ele>300.381762</ele>
        <time>2021-11-22T11:10:16.491Z</time>
      </trkpt>
      <trkpt lat="47.541442" lon="7.955866">
        <ele>300.400052</ele>
        <time>2021-11-22T11:10:20.636Z</time>
      </trkpt>
      <trkpt lat="47.541410" lon="7.956569">
        <ele>300.373799</ele>
        <time>2021-11-22T11:10:27.612Z</time>
      </trkpt>
      <trkpt lat="47.541404" lon="7.956677">
        <ele>300.353134</ele>
        <time>2021-11-22T11:10:29.305Z</time>
      </trkpt>
      <trkpt lat="47.541280" lon="7.957569">
        <ele>300.179462</ele>
        <time>2021-11-22T11:10:37.344Z</time>
      </trkpt>
      <trkpt lat="47.541237" lon="7.957756">
        <ele>300.141789</ele>
        <time>2021-11-22T11:10:39.900Z</time>
      </trkpt>
      <trkpt lat="47.541305" lon="7.957787">
        <ele>300.121690</ele>
        <time>2021-11-22T11:10:41.072Z</time>
      </trkpt>
      <trkpt lat="47.541539" lon="7.957892">
        <ele>300.052621</ele>
        <time>2021-11-22T11:10:45.628Z</time>
      </trkpt>
      <trkpt lat="47.541700" lon="7.957963">
        <ele>300.005167</ele>
        <time>2021-11-22T11:10:48.625Z</time>
      </trkpt>
      <trkpt lat="47.541830" lon="7.958033">
        <ele>299.966093</ele>
        <time>2021-11-22T11:10:51.016Z</time>
      </trkpt>
      <trkpt lat="47.542259" lon="7.958287">
        <ele>299.908354</ele>
        <time>2021-11-22T11:11:00.098Z</time>
      </trkpt>
      <trkpt lat="47.542441" lon="7.958428">
        <ele>299.903557</ele>
        <time>2021-11-22T11:11:03.620Z</time>
      </trkpt>
      <trkpt lat="47.542693" lon="7.958608">
        <ele>299.897023</ele>
        <time>2021-11-22T11:11:09.058Z</time>
      </trkpt>
      <trkpt lat="47.543178" lon="7.959043">
        <ele>299.883782</ele>
        <time>2021-11-22T11:11:19.788Z</time>
      </trkpt>
      <trkpt lat="47.543322" lon="7.959242">
        <ele>299.879183</ele>
        <time>2021-11-22T11:11:24.204Z</time>
      </trkpt>
      <trkpt lat="47.543374" lon="7.959437">
        <ele>299.875877</ele>
        <time>2021-11-22T11:11:27.378Z</time>
      </trkpt>
      <trkpt lat="47.543357" lon="7.959668">
        <ele>299.909584</ele>
        <time>2021-11-22T11:11:31.389Z</time>
      </trkpt>
      <trkpt lat="47.542960" lon="7.960501">
        <ele>300.762204</ele>
        <time>2021-11-22T11:11:48.772Z</time>
      </trkpt>
      <trkpt lat="47.542942" lon="7.960551">
        <ele>300.809585</ele>
        <time>2021-11-22T11:11:49.901Z</time>
      </trkpt>
      <trkpt lat="47.542861" lon="7.960776">
        <ele>301.022803</ele>
        <time>2021-11-22T11:11:54.193Z</time>
      </trkpt>
      <trkpt lat="47.542800" lon="7.960973">
        <ele>301.204029</ele>
        <time>2021-11-22T11:11:58.040Z</time>
      </trkpt>
      <trkpt lat="47.542731" lon="7.961265">
        <ele>301.462715</ele>
        <time>2021-11-22T11:12:03.462Z</time>
      </trkpt>
      <trkpt lat="47.542663" lon="7.961243">
        <ele>301.548931</ele>
        <time>2021-11-22T11:12:05.296Z</time>
      </trkpt>
      <trkpt lat="47.542567" lon="7.961652">
        <ele>301.911006</ele>
        <time>2021-11-22T11:12:12.921Z</time>
      </trkpt>
      <trkpt lat="47.542473" lon="7.962208">
        <ele>302.473742</ele>
        <time>2021-11-22T11:12:22.553Z</time>
      </trkpt>
      <trkpt lat="47.542424" lon="7.963822">
        <ele>304.214297</ele>
        <time>2021-11-22T11:12:50.245Z</time>
      </trkpt>
      <trkpt lat="47.542187" lon="7.965232">
        <ele>306.122855</ele>
        <time>2021-11-22T11:13:19.328Z</time>
      </trkpt>
      <trkpt lat="47.542210" lon="7.965313">
        <ele>306.257712</ele>
        <time>2021-11-22T11:13:21.140Z</time>
      </trkpt>
      <trkpt lat="47.541714" lon="7.965522">
        <ele>307.430054</ele>
        <time>2021-11-22T11:13:33.383Z</time>
      </trkpt>
      <trkpt lat="47.541593" lon="7.965571">
        <ele>307.715230</ele>
        <time>2021-11-22T11:13:36.335Z</time>
      </trkpt>
      <trkpt lat="47.541502" lon="7.965586">
        <ele>307.923387</ele>
        <time>2021-11-22T11:13:38.629Z</time>
      </trkpt>
      <trkpt lat="47.541122" lon="7.967754">
        <ele>310.852520</ele>
        <time>2021-11-22T11:14:14.802Z</time>
      </trkpt>
      <trkpt lat="47.540988" lon="7.968696">
        <ele>312.003450</ele>
        <time>2021-11-22T11:14:26.823Z</time>
      </trkpt>
      <trkpt lat="47.540930" lon="7.969589">
        <ele>312.835484</ele>
        <time>2021-11-22T11:14:39.105Z</time>
      </trkpt>
      <trkpt lat="47.541007" lon="7.971034">
        <ele>314.066356</ele>
        <time>2021-11-22T11:14:59.215Z</time>
      </trkpt>
      <trkpt lat="47.541050" lon="7.971427">
        <ele>314.404436</ele>
        <time>2021-11-22T11:15:04.587Z</time>
      </trkpt>
      <trkpt lat="47.541111" lon="7.971844">
        <ele>314.564229</ele>
        <time>2021-11-22T11:15:10.071Z</time>
      </trkpt>
      <trkpt lat="47.541444" lon="7.973570">
        <ele>314.893765</ele>
        <time>2021-11-22T11:15:30.274Z</time>
      </trkpt>
      <trkpt lat="47.541613" lon="7.974143">
        <ele>314.949674</ele>
        <time>2021-11-22T11:15:35.861Z</time>
      </trkpt>
      <trkpt lat="47.542030" lon="7.976464">
        <ele>313.044149</ele>
        <time>2021-11-22T11:15:55.104Z</time>
      </trkpt>
      <trkpt lat="47.542119" lon="7.977479">
        <ele>311.998415</ele>
        <time>2021-11-22T11:16:02.901Z</time>
      </trkpt>
      <trkpt lat="47.542153" lon="7.979253">
        <ele>310.085323</ele>
        <time>2021-11-22T11:16:16.475Z</time>
      </trkpt>
      <trkpt lat="47.542138" lon="7.980233">
        <ele>309.574860</ele>
        <time>2021-11-22T11:16:24.193Z</time>
      </trkpt>
      <trkpt lat="47.542122" lon="7.980765">
        <ele>309.319881</ele>
        <time>2021-11-22T11:16:28.578Z</time>
      </trkpt>
      <trkpt lat="47.542087" lon="7.982565">
        <ele>309.172332</ele>
        <time>2021-11-22T11:16:45.868Z</time>
      </trkpt>
      <trkpt lat="47.542077" lon="7.982984">
        <ele>309.487795</ele>
        <time>2021-11-22T11:16:51.189Z</time>
      </trkpt>
      <trkpt lat="47.542068" lon="7.983338">
        <ele>309.754342</ele>
        <time>2021-11-22T11:16:55.902Z</time>
      </trkpt>
      <trkpt lat="47.542145" lon="7.983983">
        <ele>310.247186</ele>
        <time>2021-11-22T11:17:05.112Z</time>
      </trkpt>
      <trkpt lat="47.542208" lon="7.984399">
        <ele>310.567974</ele>
        <time>2021-11-22T11:17:11.227Z</time>
      </trkpt>
      <trkpt lat="47.542126" lon="7.984398">
        <ele>310.659376</ele>
        <time>2021-11-22T11:17:13.121Z</time>
      </trkpt>
      <trkpt lat="47.541734" lon="7.984406">
        <ele>311.553819</ele>
        <time>2021-11-22T11:17:24.597Z</time>
      </trkpt>
      <trkpt lat="47.541183" lon="7.984395">
        <ele>312.957416</ele>
        <time>2021-11-22T11:17:41.755Z</time>
      </trkpt>
      <trkpt lat="47.540750" lon="7.984343">
        <ele>314.063942</ele>
        <time>2021-11-22T11:17:55.512Z</time>
      </trkpt>
      <trkpt lat="47.540609" lon="7.984254">
        <ele>314.454333</ele>
        <time>2021-11-22T11:18:00.597Z</time>
      </trkpt>
      <trkpt lat="47.540570" lon="7.984220">
        <ele>314.569598</ele>
        <time>2021-11-22T11:18:02.171Z</time>
      </trkpt>
      <trkpt lat="47.540197" lon="7.983795">
        <ele>315.570061</ele>
        <time>2021-11-22T11:18:16.386Z</time>
      </trkpt>
      <trkpt lat="47.540009" lon="7.983581">
        <ele>315.905920</ele>
        <time>2021-11-22T11:18:23.258Z</time>
      </trkpt>
      <trkpt lat="47.539746" lon="7.983424">
        <ele>316.307587</ele>
        <time>2021-11-22T11:18:30.973Z</time>
      </trkpt>
      <trkpt lat="47.539359" lon="7.983508">
        <ele>316.861646</ele>
        <time>2021-11-22T11:18:41.531Z</time>
      </trkpt>
      <trkpt lat="47.539266" lon="7.983513">
        <ele>316.993472</ele>
        <time>2021-11-22T11:18:44.340Z</time>
      </trkpt>
      <trkpt lat="47.539141" lon="7.984006">
        <ele>317.497080</ele>
        <time>2021-11-22T11:18:51.434Z</time>
      </trkpt>
      <trkpt lat="47.538988" lon="7.984674">
        <ele>317.689256</ele>
        <time>2021-11-22T11:18:58.271Z</time>
      </trkpt>
      <trkpt lat="47.538891" lon="7.984830">
        <ele>317.568107</ele>
        <time>2021-11-22T11:18:59.823Z</time>
      </trkpt>
      <trkpt lat="47.538208" lon="7.985592">
        <ele>316.844612</ele>
        <time>2021-11-22T11:19:09.865Z</time>
      </trkpt>
      <trkpt lat="47.537884" lon="7.985939">
        <ele>316.506311</ele>
        <time>2021-11-22T11:19:14.708Z</time>
      </trkpt>
      <trkpt lat="47.537812" lon="7.986127">
        <ele>316.382843</ele>
        <time>2021-11-22T11:19:17.115Z</time>
      </trkpt>
      <trkpt lat="47.537815" lon="7.986191">
        <ele>316.348689</ele>
        <time>2021-11-22T11:19:17.528Z</time>
      </trkpt>
      <trkpt lat="47.537821" lon="7.986433">
        <ele>316.432830</ele>
        <time>2021-11-22T11:19:19.712Z</time>
      </trkpt>
      <trkpt lat="47.537409" lon="7.986449">
        <ele>316.644946</ele>
        <time>2021-11-22T11:19:25.494Z</time>
      </trkpt>
      <trkpt lat="47.537167" lon="7.986470">
        <ele>316.769709</ele>
        <time>2021-11-22T11:19:28.701Z</time>
      </trkpt>
      <trkpt lat="47.537090" lon="7.986481">
        <ele>316.809522</ele>
        <time>2021-11-22T11:19:29.973Z</time>
      </trkpt>
      <trkpt lat="47.536796" lon="7.986519">
        <ele>316.961409</ele>
        <time>2021-11-22T11:19:34.832Z</time>
      </trkpt>
      <trkpt lat="47.536685" lon="7.986543">
        <ele>317.019143</ele>
        <time>2021-11-22T11:19:37.320Z</time>
      </trkpt>
      <trkpt lat="47.536465" lon="7.986660">
        <ele>317.139446</ele>
        <time>2021-11-22T11:19:41.603Z</time>
      </trkpt>
      <trkpt lat="47.536140" lon="7.986963">
        <ele>317.458083</ele>
        <time>2021-11-22T11:19:50.744Z</time>
      </trkpt>
      <trkpt lat="47.535935" lon="7.987272">
        <ele>317.894810</ele>
        <time>2021-11-22T11:19:58.398Z</time>
      </trkpt>
      <trkpt lat="47.535862" lon="7.987408">
        <ele>318.069961</ele>
        <time>2021-11-22T11:20:01.018Z</time>
      </trkpt>
      <trkpt lat="47.535735" lon="7.987639">
        <ele>318.370277</ele>
        <time>2021-11-22T11:20:05.938Z</time>
      </trkpt>
      <trkpt lat="47.535393" lon="7.988043">
        <ele>319.023463</ele>
        <time>2021-11-22T11:20:15.147Z</time>
      </trkpt>
      <trkpt lat="47.535196" lon="7.988134">
        <ele>319.331593</ele>
        <time>2021-11-22T11:20:19.301Z</time>
      </trkpt>
      <trkpt lat="47.534985" lon="7.988144">
        <ele>319.646816</ele>
        <time>2021-11-22T11:20:22.925Z</time>
      </trkpt>
      <trkpt lat="47.534795" lon="7.988078">
        <ele>319.938218</ele>
        <time>2021-11-22T11:20:27.030Z</time>
      </trkpt>
      <trkpt lat="47.534771" lon="7.988562">
        <ele>319.727134</ele>
        <time>2021-11-22T11:20:34.053Z</time>
      </trkpt>
      <trkpt lat="47.534723" lon="7.989575">
        <ele>319.219934</ele>
        <time>2021-11-22T11:20:45.866Z</time>
      </trkpt>
      <trkpt lat="47.534609" lon="7.990394">
        <ele>318.802270</ele>
        <time>2021-11-22T11:20:55.241Z</time>
      </trkpt>
      <trkpt lat="47.534606" lon="7.990590">
        <ele>318.704350</ele>
        <time>2021-11-22T11:20:57.376Z</time>
      </trkpt>
      <trkpt lat="47.534644" lon="7.990797">
        <ele>318.610916</ele>
        <time>2021-11-22T11:20:59.972Z</time>
      </trkpt>
      <trkpt lat="47.534860" lon="7.991148">
        <ele>318.477498</ele>
        <time>2021-11-22T11:21:05.541Z</time>
      </trkpt>
      <trkpt lat="47.535110" lon="7.991631">
        <ele>318.306526</ele>
        <time>2021-11-22T11:21:12.934Z</time>
      </trkpt>
      <trkpt lat="47.535497" lon="7.992318">
        <ele>318.055177</ele>
        <time>2021-11-22T11:21:23.888Z</time>
      </trkpt>
      <trkpt lat="47.535603" lon="7.992576">
        <ele>317.970335</ele>
        <time>2021-11-22T11:21:28.552Z</time>
      </trkpt>
      <trkpt lat="47.535601" lon="7.992617">
        <ele>317.958787</ele>
        <time>2021-11-22T11:21:29.616Z</time>
      </trkpt>
      <trkpt lat="47.535530" lon="7.992828">
        <ele>317.892559</ele>
        <time>2021-11-22T11:21:32.505Z</time>
      </trkpt>
      <trkpt lat="47.535091" lon="7.993681">
        <ele>318.521034</ele>
        <time>2021-11-22T11:21:50.910Z</time>
      </trkpt>
      <trkpt lat="47.534115" lon="7.996823">
        <ele>320.243548</ele>
        <time>2021-11-22T11:22:46.977Z</time>
      </trkpt>
      <trkpt lat="47.533284" lon="7.998105">
        <ele>320.417712</ele>
        <time>2021-11-22T11:23:10.670Z</time>
      </trkpt>
      <trkpt lat="47.532880" lon="7.998728">
        <ele>320.279015</ele>
        <time>2021-11-22T11:23:21.671Z</time>
      </trkpt>
      <trkpt lat="47.532745" lon="7.998891">
        <ele>320.237594</ele>
        <time>2021-11-22T11:23:25.014Z</time>
      </trkpt>
      <trkpt lat="47.532616" lon="7.998942">
        <ele>320.205842</ele>
        <time>2021-11-22T11:23:27.440Z</time>
      </trkpt>
      <trkpt lat="47.532314" lon="7.998991">
        <ele>320.153449</ele>
        <time>2021-11-22T11:23:33.195Z</time>
      </trkpt>
      <trkpt lat="47.532321" lon="7.999312">
        <ele>320.255595</ele>
        <time>2021-11-22T11:23:37.523Z</time>
      </trkpt>
      <trkpt lat="47.532283" lon="7.999633">
        <ele>320.359245</ele>
        <time>2021-11-22T11:23:41.694Z</time>
      </trkpt>
      <trkpt lat="47.532176" lon="8.000088">
        <ele>320.512482</ele>
        <time>2021-11-22T11:23:47.958Z</time>
      </trkpt>
      <trkpt lat="47.531789" lon="8.001140">
        <ele>320.893508</ele>
        <time>2021-11-22T11:24:06.312Z</time>
      </trkpt>
      <trkpt lat="47.531407" lon="8.001793">
        <ele>321.810953</ele>
        <time>2021-11-22T11:24:22.572Z</time>
      </trkpt>
      <trkpt lat="47.531127" lon="8.002157">
        <ele>322.610295</ele>
        <time>2021-11-22T11:24:33.549Z</time>
      </trkpt>
      <trkpt lat="47.530077" lon="8.003471">
        <ele>325.576136</ele>
        <time>2021-11-22T11:25:14.429Z</time>
      </trkpt>
      <trkpt lat="47.529391" lon="8.004422">
        <ele>327.638822</ele>
        <time>2021-11-22T11:25:42.695Z</time>
      </trkpt>
      <trkpt lat="47.529337" lon="8.004498">
        <ele>327.802350</ele>
        <time>2021-11-22T11:25:44.812Z</time>
      </trkpt>
      <trkpt lat="47.528852" lon="8.005150">
        <ele>329.161417</ele>
        <time>2021-11-22T11:26:02.028Z</time>
      </trkpt>
      <trkpt lat="47.527466" lon="8.006442">
        <ele>332.116071</ele>
        <time>2021-11-22T11:26:47.318Z</time>
      </trkpt>
      <trkpt lat="47.526398" lon="8.007517">
        <ele>334.320532</ele>
        <time>2021-11-22T11:27:23.127Z</time>
      </trkpt>
      <trkpt lat="47.525704" lon="8.008036">
        <ele>335.248304</ele>
        <time>2021-11-22T11:27:43.042Z</time>
      </trkpt>
      <trkpt lat="47.525125" lon="8.008474">
        <ele>335.525958</ele>
        <time>2021-11-22T11:27:58.019Z</time>
      </trkpt>
      <trkpt lat="47.523750" lon="8.009595">
        <ele>335.491627</ele>
        <time>2021-11-22T11:28:28.501Z</time>
      </trkpt>
      <trkpt lat="47.523475" lon="8.009886">
        <ele>335.311138</ele>
        <time>2021-11-22T11:28:34.699Z</time>
      </trkpt>
      <trkpt lat="47.522752" lon="8.010942">
        <ele>334.804852</ele>
        <time>2021-11-22T11:28:52.599Z</time>
      </trkpt>
      <trkpt lat="47.522135" lon="8.011541">
        <ele>334.503072</ele>
        <time>2021-11-22T11:29:05.836Z</time>
      </trkpt>
      <trkpt lat="47.521999" lon="8.011997">
        <ele>334.365375</ele>
        <time>2021-11-22T11:29:12.446Z</time>
      </trkpt>
      <trkpt lat="47.521884" lon="8.013019">
        <ele>334.201813</ele>
        <time>2021-11-22T11:29:27.140Z</time>
      </trkpt>
      <trkpt lat="47.521867" lon="8.013168">
        <ele>334.207566</ele>
        <time>2021-11-22T11:29:29.674Z</time>
      </trkpt>
      <trkpt lat="47.521857" lon="8.013314">
        <ele>334.213153</ele>
        <time>2021-11-22T11:29:31.175Z</time>
      </trkpt>
      <trkpt lat="47.521782" lon="8.013652">
        <ele>334.226699</ele>
        <time>2021-11-22T11:29:34.663Z</time>
      </trkpt>
      <trkpt lat="47.521611" lon="8.013949">
        <ele>334.241559</ele>
        <time>2021-11-22T11:29:38.269Z</time>
      </trkpt>
      <trkpt lat="47.521532" lon="8.014046">
        <ele>334.247344</ele>
        <time>2021-11-22T11:29:40.211Z</time>
      </trkpt>
      <trkpt lat="47.521508" lon="8.014076">
        <ele>334.249115</ele>
        <time>2021-11-22T11:29:40.685Z</time>
      </trkpt>
      <trkpt lat="47.521454" lon="8.014134">
        <ele>334.252876</ele>
        <time>2021-11-22T11:29:41.731Z</time>
      </trkpt>
      <trkpt lat="47.521292" lon="8.014319">
        <ele>334.264410</ele>
        <time>2021-11-22T11:29:44.608Z</time>
      </trkpt>
      <trkpt lat="47.521150" lon="8.014447">
        <ele>334.273782</ele>
        <time>2021-11-22T11:29:47.405Z</time>
      </trkpt>
      <trkpt lat="47.520953" lon="8.014530">
        <ele>334.285330</ele>
        <time>2021-11-22T11:29:50.299Z</time>
      </trkpt>
      <trkpt lat="47.520848" lon="8.014542">
        <ele>334.278735</ele>
        <time>2021-11-22T11:29:51.967Z</time>
      </trkpt>
      <trkpt lat="47.520539" lon="8.014558">
        <ele>334.220957</ele>
        <time>2021-11-22T11:29:56.013Z</time>
      </trkpt>
      <trkpt lat="47.520406" lon="8.014587">
        <ele>334.195836</ele>
        <time>2021-11-22T11:29:58.327Z</time>
      </trkpt>
      <trkpt lat="47.520115" lon="8.014648">
        <ele>334.140914</ele>
        <time>2021-11-22T11:30:02.408Z</time>
      </trkpt>
      <trkpt lat="47.519666" lon="8.015011">
        <ele>334.045319</ele>
        <time>2021-11-22T11:30:09.626Z</time>
      </trkpt>
      <trkpt lat="47.519564" lon="8.015041">
        <ele>334.025886</ele>
        <time>2021-11-22T11:30:10.728Z</time>
      </trkpt>
      <trkpt lat="47.519570" lon="8.014933">
        <ele>334.012210</ele>
        <time>2021-11-22T11:30:11.449Z</time>
      </trkpt>
      <trkpt lat="47.519567" lon="8.014689">
        <ele>333.981412</ele>
        <time>2021-11-22T11:30:14.522Z</time>
      </trkpt>
      <trkpt lat="47.519560" lon="8.014397">
        <ele>334.000839</ele>
        <time>2021-11-22T11:30:16.904Z</time>
      </trkpt>
      <trkpt lat="47.519550" lon="8.014167">
        <ele>334.184071</ele>
        <time>2021-11-22T11:30:20.082Z</time>
      </trkpt>
      <trkpt lat="47.519542" lon="8.014115">
        <ele>334.226471</ele>
        <time>2021-11-22T11:30:22.473Z</time>
      </trkpt>
      <trkpt lat="47.519506" lon="8.013880">
        <ele>334.418045</ele>
        <time>2021-11-22T11:30:24.175Z</time>
      </trkpt>
      <trkpt lat="47.519407" lon="8.013567">
        <ele>334.692825</ele>
        <time>2021-11-22T11:30:30.164Z</time>
      </trkpt>
      <trkpt lat="47.519283" lon="8.013313">
        <ele>334.941995</ele>
        <time>2021-11-22T11:30:33.090Z</time>
      </trkpt>
      <trkpt lat="47.519066" lon="8.012986">
        <ele>335.306470</ele>
        <time>2021-11-22T11:30:39.519Z</time>
      </trkpt>
      <trkpt lat="47.518762" lon="8.012505">
        <ele>335.830212</ele>
        <time>2021-11-22T11:30:49.924Z</time>
      </trkpt>
      <trkpt lat="47.518672" lon="8.012356">
        <ele>335.989139</ele>
        <time>2021-11-22T11:30:53.986Z</time>
      </trkpt>
      <trkpt lat="47.518031" lon="8.011413">
        <ele>337.267194</ele>
        <time>2021-11-22T11:31:12.016Z</time>
      </trkpt>
      <trkpt lat="47.518005" lon="8.011373">
        <ele>337.320954</ele>
        <time>2021-11-22T11:31:12.845Z</time>
      </trkpt>
      <trkpt lat="47.517842" lon="8.011140">
        <ele>337.645810</ele>
        <time>2021-11-22T11:31:17.893Z</time>
      </trkpt>
      <trkpt lat="47.517559" lon="8.011519">
        <ele>338.192941</ele>
        <time>2021-11-22T11:31:25.799Z</time>
      </trkpt>
      <trkpt lat="47.517220" lon="8.011958">
        <ele>338.746879</ele>
        <time>2021-11-22T11:31:34.225Z</time>
      </trkpt>
      <trkpt lat="47.516968" lon="8.012240">
        <ele>338.981044</ele>
        <time>2021-11-22T11:31:39.644Z</time>
      </trkpt>
      <trkpt lat="47.515686" lon="8.013458">
        <ele>340.184636</ele>
        <time>2021-11-22T11:32:06.005Z</time>
      </trkpt>
      <trkpt lat="47.515654" lon="8.013483">
        <ele>340.227013</ele>
        <time>2021-11-22T11:32:06.787Z</time>
      </trkpt>
      <trkpt lat="47.515613" lon="8.013424">
        <ele>340.293978</ele>
        <time>2021-11-22T11:32:07.932Z</time>
      </trkpt>
      <trkpt lat="47.515541" lon="8.013407">
        <ele>340.379373</ele>
        <time>2021-11-22T11:32:09.294Z</time>
      </trkpt>
      <trkpt lat="47.515502" lon="8.013432">
        <ele>340.429148</ele>
        <time>2021-11-22T11:32:10.207Z</time>
      </trkpt>
      <trkpt lat="47.515475" lon="8.013469">
        <ele>340.472238</ele>
        <time>2021-11-22T11:32:10.881Z</time>
      </trkpt>
      <trkpt lat="47.515457" lon="8.013608">
        <ele>340.584196</ele>
        <time>2021-11-22T11:32:12.610Z</time>
      </trkpt>
      <trkpt lat="47.515468" lon="8.013643">
        <ele>340.614734</ele>
        <time>2021-11-22T11:32:13.068Z</time>
      </trkpt>
      <trkpt lat="47.515263" lon="8.013836">
        <ele>340.899267</ele>
        <time>2021-11-22T11:32:17.979Z</time>
      </trkpt>
      <trkpt lat="47.515054" lon="8.014017">
        <ele>341.182856</ele>
        <time>2021-11-22T11:32:22.719Z</time>
      </trkpt>
      <trkpt lat="47.514746" lon="8.014292">
        <ele>341.604116</ele>
        <time>2021-11-22T11:32:29.922Z</time>
      </trkpt>
      <trkpt lat="47.514628" lon="8.014407">
        <ele>341.769575</ele>
        <time>2021-11-22T11:32:32.806Z</time>
      </trkpt>
      <trkpt lat="47.514464" lon="8.014550">
        <ele>341.992494</ele>
        <time>2021-11-22T11:32:36.701Z</time>
      </trkpt>
      <trkpt lat="47.514162" lon="8.014813">
        <ele>342.423416</ele>
        <time>2021-11-22T11:32:43.722Z</time>
      </trkpt>
      <trkpt lat="47.514036" lon="8.014936">
        <ele>342.611746</ele>
        <time>2021-11-22T11:32:47.009Z</time>
      </trkpt>
      <trkpt lat="47.513919" lon="8.015052">
        <ele>342.787457</ele>
        <time>2021-11-22T11:32:49.894Z</time>
      </trkpt>
      <trkpt lat="47.513872" lon="8.015092">
        <ele>342.855106</ele>
        <time>2021-11-22T11:32:50.959Z</time>
      </trkpt>
      <trkpt lat="47.513615" lon="8.015346">
        <ele>343.240694</ele>
        <time>2021-11-22T11:32:57.580Z</time>
      </trkpt>
      <trkpt lat="47.512943" lon="8.015998">
        <ele>344.243276</ele>
        <time>2021-11-22T11:33:13.383Z</time>
      </trkpt>
      <trkpt lat="47.512748" lon="8.016153">
        <ele>344.367986</ele>
        <time>2021-11-22T11:33:17.237Z</time>
      </trkpt>
      <trkpt lat="47.512572" lon="8.016270">
        <ele>344.413066</ele>
        <time>2021-11-22T11:33:20.411Z</time>
      </trkpt>
      <trkpt lat="47.512292" lon="8.016407">
        <ele>344.481971</ele>
        <time>2021-11-22T11:33:25.378Z</time>
      </trkpt>
      <trkpt lat="47.511937" lon="8.016578">
        <ele>344.569201</ele>
        <time>2021-11-22T11:33:31.328Z</time>
      </trkpt>
      <trkpt lat="47.511835" lon="8.016624">
        <ele>344.594116</ele>
        <time>2021-11-22T11:33:32.822Z</time>
      </trkpt>
      <trkpt lat="47.511079" lon="8.016999">
        <ele>344.688142</ele>
        <time>2021-11-22T11:33:44.413Z</time>
      </trkpt>
      <trkpt lat="47.510624" lon="8.017217">
        <ele>344.418740</ele>
        <time>2021-11-22T11:33:50.780Z</time>
      </trkpt>
      <trkpt lat="47.510117" lon="8.017458">
        <ele>344.118773</ele>
        <time>2021-11-22T11:33:57.521Z</time>
      </trkpt>
      <trkpt lat="47.509872" lon="8.017541">
        <ele>343.977191</ele>
        <time>2021-11-22T11:34:00.686Z</time>
      </trkpt>
      <trkpt lat="47.509747" lon="8.017571">
        <ele>343.905856</ele>
        <time>2021-11-22T11:34:02.388Z</time>
      </trkpt>
      <trkpt lat="47.509728" lon="8.017576">
        <ele>343.894985</ele>
        <time>2021-11-22T11:34:02.643Z</time>
      </trkpt>
      <trkpt lat="47.509596" lon="8.017609">
        <ele>343.819573</ele>
        <time>2021-11-22T11:34:04.299Z</time>
      </trkpt>
      <trkpt lat="47.509437" lon="8.017668">
        <ele>343.740135</ele>
        <time>2021-11-22T11:34:06.421Z</time>
      </trkpt>
      <trkpt lat="47.509253" lon="8.017765">
        <ele>343.740093</ele>
        <time>2021-11-22T11:34:08.934Z</time>
      </trkpt>
      <trkpt lat="47.509105" lon="8.017861">
        <ele>343.740059</ele>
        <time>2021-11-22T11:34:11.036Z</time>
      </trkpt>
      <trkpt lat="47.508988" lon="8.017959">
        <ele>343.740031</ele>
        <time>2021-11-22T11:34:12.813Z</time>
      </trkpt>
      <trkpt lat="47.508896" lon="8.018035">
        <ele>343.740009</ele>
        <time>2021-11-22T11:34:14.120Z</time>
      </trkpt>
      <trkpt lat="47.508805" lon="8.018141">
        <ele>343.739984</ele>
        <time>2021-11-22T11:34:15.754Z</time>
      </trkpt>
      <trkpt lat="47.508699" lon="8.018304">
        <ele>343.739952</ele>
        <time>2021-11-22T11:34:17.873Z</time>
      </trkpt>
      <trkpt lat="47.508636" lon="8.018423">
        <ele>343.739931</ele>
        <time>2021-11-22T11:34:19.220Z</time>
      </trkpt>
      <trkpt lat="47.508617" lon="8.018463">
        <ele>343.739924</ele>
        <time>2021-11-22T11:34:19.673Z</time>
      </trkpt>
      <trkpt lat="47.508597" lon="8.018443">
        <ele>343.739919</ele>
        <time>2021-11-22T11:34:20.086Z</time>
      </trkpt>
      <trkpt lat="47.508507" lon="8.018455">
        <ele>343.739900</ele>
        <time>2021-11-22T11:34:21.576Z</time>
      </trkpt>
      <trkpt lat="47.508490" lon="8.018479">
        <ele>343.739895</ele>
        <time>2021-11-22T11:34:21.988Z</time>
      </trkpt>
      <trkpt lat="47.508475" lon="8.018519">
        <ele>343.739888</ele>
        <time>2021-11-22T11:34:22.424Z</time>
      </trkpt>
      <trkpt lat="47.508493" lon="8.018648">
        <ele>343.739869</ele>
        <time>2021-11-22T11:34:23.840Z</time>
      </trkpt>
      <trkpt lat="47.508517" lon="8.018677">
        <ele>343.739863</ele>
        <time>2021-11-22T11:34:24.257Z</time>
      </trkpt>
      <trkpt lat="47.508505" lon="8.018716">
        <ele>343.739857</ele>
        <time>2021-11-22T11:34:24.721Z</time>
      </trkpt>
      <trkpt lat="47.508436" lon="8.018909">
        <ele>343.739826</ele>
        <time>2021-11-22T11:34:27.344Z</time>
      </trkpt>
      <trkpt lat="47.508403" lon="8.018982">
        <ele>343.739813</ele>
        <time>2021-11-22T11:34:28.346Z</time>
      </trkpt>
      <trkpt lat="47.508273" lon="8.019268">
        <ele>343.739764</ele>
        <time>2021-11-22T11:34:32.521Z</time>
      </trkpt>
      <trkpt lat="47.508117" lon="8.019584">
        <ele>344.193204</ele>
        <time>2021-11-22T11:34:37.492Z</time>
      </trkpt>
      <trkpt lat="47.508075" lon="8.019669">
        <ele>344.324008</ele>
        <time>2021-11-22T11:34:38.948Z</time>
      </trkpt>
      <trkpt lat="47.508029" lon="8.019761">
        <ele>344.466173</ele>
        <time>2021-11-22T11:34:40.572Z</time>
      </trkpt>
      <trkpt lat="47.507951" lon="8.019911">
        <ele>344.701289</ele>
        <time>2021-11-22T11:34:43.265Z</time>
      </trkpt>
      <trkpt lat="47.507863" lon="8.020075">
        <ele>344.961431</ele>
        <time>2021-11-22T11:34:46.070Z</time>
      </trkpt>
      <trkpt lat="47.507666" lon="8.020400">
        <ele>345.503792</ele>
        <time>2021-11-22T11:34:52.436Z</time>
      </trkpt>
      <trkpt lat="47.507609" lon="8.020484">
        <ele>345.651677</ele>
        <time>2021-11-22T11:34:54.265Z</time>
      </trkpt>
      <trkpt lat="47.507466" lon="8.020697">
        <ele>346.024674</ele>
        <time>2021-11-22T11:34:59.075Z</time>
      </trkpt>
      <trkpt lat="47.507213" lon="8.021061">
        <ele>346.673374</ele>
        <time>2021-11-22T11:35:07.853Z</time>
      </trkpt>
      <trkpt lat="47.507007" lon="8.021362">
        <ele>347.261109</ele>
        <time>2021-11-22T11:35:15.423Z</time>
      </trkpt>
      <trkpt lat="47.506949" lon="8.021459">
        <ele>347.478343</ele>
        <time>2021-11-22T11:35:17.688Z</time>
      </trkpt>
      <trkpt lat="47.506910" lon="8.021529">
        <ele>347.630503</ele>
        <time>2021-11-22T11:35:19.189Z</time>
      </trkpt>
      <trkpt lat="47.506867" lon="8.021604">
        <ele>347.795466</ele>
        <time>2021-11-22T11:35:21.043Z</time>
      </trkpt>
      <trkpt lat="47.506735" lon="8.021861">
        <ele>348.336868</ele>
        <time>2021-11-22T11:35:26.925Z</time>
      </trkpt>
      <trkpt lat="47.506678" lon="8.022015">
        <ele>348.631342</ele>
        <time>2021-11-22T11:35:29.956Z</time>
      </trkpt>
      <trkpt lat="47.506655" lon="8.022123">
        <ele>348.821238</ele>
        <time>2021-11-22T11:35:32.072Z</time>
      </trkpt>
      <trkpt lat="47.506621" lon="8.022234">
        <ele>349.025620</ele>
        <time>2021-11-22T11:35:34.149Z</time>
      </trkpt>
      <trkpt lat="47.506535" lon="8.022414">
        <ele>349.395339</ele>
        <time>2021-11-22T11:35:37.723Z</time>
      </trkpt>
      <trkpt lat="47.506468" lon="8.022553">
        <ele>349.681692</ele>
        <time>2021-11-22T11:35:40.703Z</time>
      </trkpt>
      <trkpt lat="47.506258" lon="8.022985">
        <ele>350.574211</ele>
        <time>2021-11-22T11:35:49.389Z</time>
      </trkpt>
      <trkpt lat="47.506232" lon="8.023038">
        <ele>350.684054</ele>
        <time>2021-11-22T11:35:50.430Z</time>
      </trkpt>
      <trkpt lat="47.506199" lon="8.023103">
        <ele>350.820408</ele>
        <time>2021-11-22T11:35:51.719Z</time>
      </trkpt>
      <trkpt lat="47.505883" lon="8.023827">
        <ele>351.986423</ele>
        <time>2021-11-22T11:36:05.116Z</time>
      </trkpt>
      <trkpt lat="47.505697" lon="8.024216">
        <ele>352.489323</ele>
        <time>2021-11-22T11:36:12.206Z</time>
      </trkpt>
      <trkpt lat="47.505612" lon="8.024383">
        <ele>352.709966</ele>
        <time>2021-11-22T11:36:15.320Z</time>
      </trkpt>
      <trkpt lat="47.505559" lon="8.024486">
        <ele>352.846593</ele>
        <time>2021-11-22T11:36:17.078Z</time>
      </trkpt>
      <trkpt lat="47.505192" lon="8.025207">
        <ele>353.799214</ele>
        <time>2021-11-22T11:36:29.157Z</time>
      </trkpt>
      <trkpt lat="47.504823" lon="8.026024">
        <ele>354.725230</ele>
        <time>2021-11-22T11:36:42.178Z</time>
      </trkpt>
      <trkpt lat="47.504760" lon="8.026163">
        <ele>354.863744</ele>
        <time>2021-11-22T11:36:44.579Z</time>
      </trkpt>
      <trkpt lat="47.504725" lon="8.026244">
        <ele>354.943311</ele>
        <time>2021-11-22T11:36:45.925Z</time>
      </trkpt>
      <trkpt lat="47.504704" lon="8.026294">
        <ele>354.992031</ele>
        <time>2021-11-22T11:36:46.711Z</time>
      </trkpt>
      <trkpt lat="47.504676" lon="8.026276">
        <ele>355.029425</ele>
        <time>2021-11-22T11:36:47.325Z</time>
      </trkpt>
      <trkpt lat="47.504602" lon="8.026299">
        <ele>355.122049</ele>
        <time>2021-11-22T11:36:48.894Z</time>
      </trkpt>
      <trkpt lat="47.504574" lon="8.026349">
        <ele>355.175793</ele>
        <time>2021-11-22T11:36:49.820Z</time>
      </trkpt>
      <trkpt lat="47.504545" lon="8.026334">
        <ele>355.213423</ele>
        <time>2021-11-22T11:36:50.821Z</time>
      </trkpt>
      <trkpt lat="47.504340" lon="8.026234">
        <ele>355.477825</ele>
        <time>2021-11-22T11:36:56.231Z</time>
      </trkpt>
      <trkpt lat="47.504214" lon="8.026133">
        <ele>355.653348</ele>
        <time>2021-11-22T11:37:00.043Z</time>
      </trkpt>
      <trkpt lat="47.504128" lon="8.026064">
        <ele>355.773174</ele>
        <time>2021-11-22T11:37:02.341Z</time>
      </trkpt>
      <trkpt lat="47.504128" lon="8.026064">
        <ele>355.773174</ele>
        <time>2021-11-22T11:37:02.367Z</time>
      </trkpt>
      <trkpt lat="47.503792" lon="8.025767">
        <ele>356.252560</ele>
        <time>2021-11-22T11:37:11.484Z</time>
      </trkpt>
      <trkpt lat="47.503697" lon="8.025684">
        <ele>356.387690</ele>
        <time>2021-11-22T11:37:14.110Z</time>
      </trkpt>
      <trkpt lat="47.503468" lon="8.025476">
        <ele>356.729046</ele>
        <time>2021-11-22T11:37:20.721Z</time>
      </trkpt>
      <trkpt lat="47.503308" lon="8.025332">
        <ele>356.973062</ele>
        <time>2021-11-22T11:37:25.550Z</time>
      </trkpt>
      <trkpt lat="47.503222" lon="8.025223">
        <ele>357.120600</ele>
        <time>2021-11-22T11:37:28.519Z</time>
      </trkpt>
      <trkpt lat="47.503159" lon="8.025346">
        <ele>357.256486</ele>
        <time>2021-11-22T11:37:30.649Z</time>
      </trkpt>
      <trkpt lat="47.503016" lon="8.025577">
        <ele>357.532314</ele>
        <time>2021-11-22T11:37:35.150Z</time>
      </trkpt>
      <trkpt lat="47.503032" lon="8.025730">
        <ele>357.668611</ele>
        <time>2021-11-22T11:37:37.773Z</time>
      </trkpt>
      <trkpt lat="47.503021" lon="8.025852">
        <ele>357.776965</ele>
        <time>2021-11-22T11:37:40.045Z</time>
      </trkpt>
      <trkpt lat="47.502970" lon="8.026171">
        <ele>358.065551</ele>
        <time>2021-11-22T11:37:45.770Z</time>
      </trkpt>
      <trkpt lat="47.502945" lon="8.026325">
        <ele>358.204983</ele>
        <time>2021-11-22T11:37:48.500Z</time>
      </trkpt>
      <trkpt lat="47.502892" lon="8.026637">
        <ele>358.488201</ele>
        <time>2021-11-22T11:37:54.063Z</time>
      </trkpt>
      <trkpt lat="47.502768" lon="8.027165">
        <ele>358.998297</ele>
        <time>2021-11-22T11:38:03.423Z</time>
      </trkpt>
      <trkpt lat="47.502470" lon="8.027919">
        <ele>359.891498</ele>
        <time>2021-11-22T11:38:17.870Z</time>
      </trkpt>
      <trkpt lat="47.501858" lon="8.029220">
        <ele>361.512493</ele>
        <time>2021-11-22T11:38:46.750Z</time>
      </trkpt>
      <trkpt lat="47.501479" lon="8.030595">
        <ele>363.211359</ele>
        <time>2021-11-22T11:39:15.359Z</time>
      </trkpt>
      <trkpt lat="47.501451" lon="8.030732">
        <ele>363.376051</ele>
        <time>2021-11-22T11:39:18.112Z</time>
      </trkpt>
      <trkpt lat="47.501417" lon="8.030833">
        <ele>363.505894</ele>
        <time>2021-11-22T11:39:20.178Z</time>
      </trkpt>
      <trkpt lat="47.501306" lon="8.031248">
        <ele>364.019470</ele>
        <time>2021-11-22T11:39:28.302Z</time>
      </trkpt>
      <trkpt lat="47.501016" lon="8.032338">
        <ele>365.027835</ele>
        <time>2021-11-22T11:39:47.827Z</time>
      </trkpt>
      <trkpt lat="47.500609" lon="8.033743">
        <ele>365.948764</ele>
        <time>2021-11-22T11:40:11.538Z</time>
      </trkpt>
      <trkpt lat="47.500514" lon="8.034048">
        <ele>366.151091</ele>
        <time>2021-11-22T11:40:16.361Z</time>
      </trkpt>
      <trkpt lat="47.500411" lon="8.034253">
        <ele>366.391608</ele>
        <time>2021-11-22T11:40:20.517Z</time>
      </trkpt>
      <trkpt lat="47.500371" lon="8.034497">
        <ele>366.824897</ele>
        <time>2021-11-22T11:40:24.117Z</time>
      </trkpt>
      <trkpt lat="47.500370" lon="8.034585">
        <ele>366.976779</ele>
        <time>2021-11-22T11:40:25.809Z</time>
      </trkpt>
      <trkpt lat="47.500142" lon="8.035639">
        <ele>368.886628</ele>
        <time>2021-11-22T11:40:46.667Z</time>
      </trkpt>
      <trkpt lat="47.500033" lon="8.036458">
        <ele>370.327141</ele>
        <time>2021-11-22T11:41:06.695Z</time>
      </trkpt>
      <trkpt lat="47.499899" lon="8.036731">
        <ele>370.915586</ele>
        <time>2021-11-22T11:41:15.750Z</time>
      </trkpt>
      <trkpt lat="47.499762" lon="8.036824">
        <ele>371.342209</ele>
        <time>2021-11-22T11:41:21.679Z</time>
      </trkpt>
      <trkpt lat="47.498683" lon="8.037262">
        <ele>374.509151</ele>
        <time>2021-11-22T11:41:59.950Z</time>
      </trkpt>
      <trkpt lat="47.498149" lon="8.037545">
        <ele>375.903334</ele>
        <time>2021-11-22T11:42:14.460Z</time>
      </trkpt>
      <trkpt lat="47.497508" lon="8.037915">
        <ele>375.437797</ele>
        <time>2021-11-22T11:42:27.851Z</time>
      </trkpt>
      <trkpt lat="47.497029" lon="8.038197">
        <ele>375.088991</ele>
        <time>2021-11-22T11:42:36.049Z</time>
      </trkpt>
      <trkpt lat="47.495489" lon="8.039211">
        <ele>374.045570</ele>
        <time>2021-11-22T11:43:04.883Z</time>
      </trkpt>
      <trkpt lat="47.495279" lon="8.039095">
        <ele>373.912810</ele>
        <time>2021-11-22T11:43:09.803Z</time>
      </trkpt>
      <trkpt lat="47.495197" lon="8.038814">
        <ele>373.790320</ele>
        <time>2021-11-22T11:43:13.691Z</time>
      </trkpt>
      <trkpt lat="47.495161" lon="8.038728">
        <ele>373.749834</ele>
        <time>2021-11-22T11:43:15.605Z</time>
      </trkpt>
      <trkpt lat="47.495065" lon="8.038717">
        <ele>373.692805</ele>
        <time>2021-11-22T11:43:17.346Z</time>
      </trkpt>
      <trkpt lat="47.494550" lon="8.038902">
        <ele>374.120682</ele>
        <time>2021-11-22T11:43:29.480Z</time>
      </trkpt>
      <trkpt lat="47.493985" lon="8.039302">
        <ele>374.722559</ele>
        <time>2021-11-22T11:43:44.797Z</time>
      </trkpt>
      <trkpt lat="47.493681" lon="8.039626">
        <ele>375.082563</ele>
        <time>2021-11-22T11:43:54.197Z</time>
      </trkpt>
      <trkpt lat="47.493615" lon="8.039696">
        <ele>375.160593</ele>
        <time>2021-11-22T11:43:56.509Z</time>
      </trkpt>
      <trkpt lat="47.493541" lon="8.039739">
        <ele>375.236990</ele>
        <time>2021-11-22T11:43:58.667Z</time>
      </trkpt>
      <trkpt lat="47.493416" lon="8.039728">
        <ele>375.357325</ele>
        <time>2021-11-22T11:44:01.362Z</time>
      </trkpt>
      <trkpt lat="47.493090" lon="8.039530">
        <ele>375.859576</ele>
        <time>2021-11-22T11:44:10.194Z</time>
      </trkpt>
      <trkpt lat="47.492451" lon="8.039274">
        <ele>376.836204</ele>
        <time>2021-11-22T11:44:27.739Z</time>
      </trkpt>
      <trkpt lat="47.492266" lon="8.039262">
        <ele>377.109392</ele>
        <time>2021-11-22T11:44:32.613Z</time>
      </trkpt>
      <trkpt lat="47.489708" lon="8.040031">
        <ele>381.001301</ele>
        <time>2021-11-22T11:45:41.346Z</time>
      </trkpt>
      <trkpt lat="47.489332" lon="8.040190">
        <ele>381.586579</ele>
        <time>2021-11-22T11:45:51.411Z</time>
      </trkpt>
      <trkpt lat="47.489262" lon="8.040226">
        <ele>381.697493</ele>
        <time>2021-11-22T11:45:53.277Z</time>
      </trkpt>
      <trkpt lat="47.488652" lon="8.040561">
        <ele>382.671310</ele>
        <time>2021-11-22T11:46:10.090Z</time>
      </trkpt>
      <trkpt lat="47.488448" lon="8.040708">
        <ele>383.010907</ele>
        <time>2021-11-22T11:46:16.115Z</time>
      </trkpt>
      <trkpt lat="47.488139" lon="8.041130">
        <ele>383.895188</ele>
        <time>2021-11-22T11:46:27.437Z</time>
      </trkpt>
      <trkpt lat="47.487908" lon="8.041733">
        <ele>385.432504</ele>
        <time>2021-11-22T11:46:39.723Z</time>
      </trkpt>
      <trkpt lat="47.487400" lon="8.042230">
        <ele>387.431225</ele>
        <time>2021-11-22T11:46:56.321Z</time>
      </trkpt>
      <trkpt lat="47.487333" lon="8.042295">
        <ele>387.694167</ele>
        <time>2021-11-22T11:46:58.430Z</time>
      </trkpt>
      <trkpt lat="47.487031" lon="8.042589">
        <ele>388.880603</ele>
        <time>2021-11-22T11:47:12.663Z</time>
      </trkpt>
      <trkpt lat="47.486857" lon="8.042766">
        <ele>390.009067</ele>
        <time>2021-11-22T11:47:22.744Z</time>
      </trkpt>
      <trkpt lat="47.486260" lon="8.043156">
        <ele>395.976230</ele>
        <time>2021-11-22T11:48:02.861Z</time>
      </trkpt>
      <trkpt lat="47.486222" lon="8.043212">
        <ele>396.466610</ele>
        <time>2021-11-22T11:48:06.580Z</time>
      </trkpt>
      <trkpt lat="47.486179" lon="8.043182">
        <ele>396.901305</ele>
        <time>2021-11-22T11:48:08.545Z</time>
      </trkpt>
      <trkpt lat="47.486151" lon="8.043162">
        <ele>397.185601</ele>
        <time>2021-11-22T11:48:10.309Z</time>
      </trkpt>
      <trkpt lat="47.486019" lon="8.043059">
        <ele>398.550118</ele>
        <time>2021-11-22T11:48:15.824Z</time>
      </trkpt>
      <trkpt lat="47.486008" lon="8.043050">
        <ele>398.665052</ele>
        <time>2021-11-22T11:48:17.154Z</time>
      </trkpt>
      <trkpt lat="47.485598" lon="8.042685">
        <ele>403.040191</ele>
        <time>2021-11-22T11:48:46.118Z</time>
      </trkpt>
      <trkpt lat="47.485395" lon="8.042549">
        <ele>405.077775</ele>
        <time>2021-11-22T11:48:54.536Z</time>
      </trkpt>
      <trkpt lat="47.485289" lon="8.042522">
        <ele>405.931097</ele>
        <time>2021-11-22T11:49:04.362Z</time>
      </trkpt>
      <trkpt lat="47.485120" lon="8.042908">
        <ele>407.474463</ele>
        <time>2021-11-22T11:49:21.251Z</time>
      </trkpt>
      <trkpt lat="47.484698" lon="8.044163">
        <ele>412.178352</ele>
        <time>2021-11-22T11:50:08.683Z</time>
      </trkpt>
      <trkpt lat="47.484315" lon="8.044930">
        <ele>413.979113</ele>
        <time>2021-11-22T11:50:19.992Z</time>
      </trkpt>
      <trkpt lat="47.484086" lon="8.045711">
        <ele>410.876509</ele>
        <time>2021-11-22T11:50:27.480Z</time>
      </trkpt>
      <trkpt lat="47.484017" lon="8.046089">
        <ele>409.449569</ele>
        <time>2021-11-22T11:50:30.928Z</time>
      </trkpt>
      <trkpt lat="47.483960" lon="8.046613">
        <ele>407.515337</ele>
        <time>2021-11-22T11:50:35.527Z</time>
      </trkpt>
      <trkpt lat="47.483944" lon="8.046772">
        <ele>406.929493</ele>
        <time>2021-11-22T11:50:36.879Z</time>
      </trkpt>
      <trkpt lat="47.484094" lon="8.047008">
        <ele>405.748793</ele>
        <time>2021-11-22T11:50:38.881Z</time>
      </trkpt>
      <trkpt lat="47.484254" lon="8.047262">
        <ele>404.675431</ele>
        <time>2021-11-22T11:50:40.987Z</time>
      </trkpt>
      <trkpt lat="47.484285" lon="8.047381">
        <ele>404.380764</ele>
        <time>2021-11-22T11:50:41.805Z</time>
      </trkpt>
      <trkpt lat="47.484302" lon="8.047447">
        <ele>404.217571</ele>
        <time>2021-11-22T11:50:42.242Z</time>
      </trkpt>
      <trkpt lat="47.484336" lon="8.047958">
        <ele>403.031211</ele>
        <time>2021-11-22T11:50:45.446Z</time>
      </trkpt>
      <trkpt lat="47.484354" lon="8.048144">
        <ele>402.597080</ele>
        <time>2021-11-22T11:50:46.606Z</time>
      </trkpt>
      <trkpt lat="47.484323" lon="8.048319">
        <ele>402.179087</ele>
        <time>2021-11-22T11:50:47.784Z</time>
      </trkpt>
      <trkpt lat="47.484311" lon="8.048547">
        <ele>401.650704</ele>
        <time>2021-11-22T11:50:49.309Z</time>
      </trkpt>
      <trkpt lat="47.484310" lon="8.048647">
        <ele>401.419632</ele>
        <time>2021-11-22T11:50:49.937Z</time>
      </trkpt>
      <trkpt lat="47.484307" lon="8.048841">
        <ele>400.971283</ele>
        <time>2021-11-22T11:50:51.264Z</time>
      </trkpt>
      <trkpt lat="47.484328" lon="8.049054">
        <ele>400.473942</ele>
        <time>2021-11-22T11:50:52.833Z</time>
      </trkpt>
      <trkpt lat="47.484248" lon="8.049249">
        <ele>399.946877</ele>
        <time>2021-11-22T11:50:55.721Z</time>
      </trkpt>
      <trkpt lat="47.484225" lon="8.049304">
        <ele>399.797439</ele>
        <time>2021-11-22T11:50:56.586Z</time>
      </trkpt>
      <trkpt lat="47.484098" lon="8.049599">
        <ele>398.989294</ele>
        <time>2021-11-22T11:51:01.526Z</time>
      </trkpt>
      <trkpt lat="47.483967" lon="8.049904">
        <ele>399.257698</ele>
        <time>2021-11-22T11:51:07.788Z</time>
      </trkpt>
      <trkpt lat="47.483809" lon="8.050170">
        <ele>399.721120</ele>
        <time>2021-11-22T11:51:13.893Z</time>
      </trkpt>
      <trkpt lat="47.483598" lon="8.050422">
        <ele>400.246163</ele>
        <time>2021-11-22T11:51:21.479Z</time>
      </trkpt>
      <trkpt lat="47.483364" lon="8.050596">
        <ele>400.753259</ele>
        <time>2021-11-22T11:51:29.687Z</time>
      </trkpt>
      <trkpt lat="47.483227" lon="8.050664">
        <ele>401.033064</ele>
        <time>2021-11-22T11:51:34.271Z</time>
      </trkpt>
      <trkpt lat="47.483058" lon="8.050738">
        <ele>401.374332</ele>
        <time>2021-11-22T11:51:40.064Z</time>
      </trkpt>
      <trkpt lat="47.482913" lon="8.050915">
        <ele>401.738310</ele>
        <time>2021-11-22T11:51:45.794Z</time>
      </trkpt>
      <trkpt lat="47.482669" lon="8.051382">
        <ele>402.519832</ele>
        <time>2021-11-22T11:51:57.783Z</time>
      </trkpt>
      <trkpt lat="47.482625" lon="8.051456">
        <ele>402.655724</ele>
        <time>2021-11-22T11:52:00.106Z</time>
      </trkpt>
      <trkpt lat="47.482455" lon="8.051685">
        <ele>403.124725</ele>
        <time>2021-11-22T11:52:05.872Z</time>
      </trkpt>
      <trkpt lat="47.482375" lon="8.051733">
        <ele>403.300838</ele>
        <time>2021-11-22T11:52:08.629Z</time>
      </trkpt>
      <trkpt lat="47.482335" lon="8.051760">
        <ele>403.390530</ele>
        <time>2021-11-22T11:52:10.101Z</time>
      </trkpt>
      <trkpt lat="47.482219" lon="8.051812">
        <ele>403.637801</ele>
        <time>2021-11-22T11:52:12.959Z</time>
      </trkpt>
      <trkpt lat="47.482127" lon="8.051839">
        <ele>403.829144</ele>
        <time>2021-11-22T11:52:15.531Z</time>
      </trkpt>
      <trkpt lat="47.481797" lon="8.051888">
        <ele>404.505750</ele>
        <time>2021-11-22T11:52:24.721Z</time>
      </trkpt>
      <trkpt lat="47.481555" lon="8.051930">
        <ele>405.002833</ele>
        <time>2021-11-22T11:52:31.908Z</time>
      </trkpt>
      <trkpt lat="47.481406" lon="8.051919">
        <ele>405.307182</ele>
        <time>2021-11-22T11:52:35.697Z</time>
      </trkpt>
      <trkpt lat="47.481264" lon="8.051869">
        <ele>405.604963</ele>
        <time>2021-11-22T11:52:40.628Z</time>
      </trkpt>
      <trkpt lat="47.481212" lon="8.051837">
        <ele>405.719856</ele>
        <time>2021-11-22T11:52:42.077Z</time>
      </trkpt>
      <trkpt lat="47.481120" lon="8.051779">
        <ele>405.923868</ele>
        <time>2021-11-22T11:52:44.679Z</time>
      </trkpt>
      <trkpt lat="47.480731" lon="8.051537">
        <ele>406.635543</ele>
        <time>2021-11-22T11:52:56.649Z</time>
      </trkpt>
      <trkpt lat="47.479301" lon="8.050948">
        <ele>409.048927</ele>
        <time>2021-11-22T11:53:35.857Z</time>
      </trkpt>
      <trkpt lat="47.478902" lon="8.050813">
        <ele>409.527988</ele>
        <time>2021-11-22T11:53:46.565Z</time>
      </trkpt>
      <trkpt lat="47.478348" lon="8.050767">
        <ele>410.177432</ele>
        <time>2021-11-22T11:54:00.357Z</time>
      </trkpt>
      <trkpt lat="47.477918" lon="8.050584">
        <ele>410.701128</ele>
        <time>2021-11-22T11:54:11.294Z</time>
      </trkpt>
      <trkpt lat="47.477267" lon="8.050373">
        <ele>411.494598</ele>
        <time>2021-11-22T11:54:26.926Z</time>
      </trkpt>
      <trkpt lat="47.477047" lon="8.050303">
        <ele>411.766765</ele>
        <time>2021-11-22T11:54:52.826Z</time>
      </trkpt>
      <trkpt lat="47.476858" lon="8.050274">
        <ele>411.996581</ele>
        <time>2021-11-22T11:55:14.415Z</time>
      </trkpt>
      <trkpt lat="47.476590" lon="8.050307">
        <ele>412.321839</ele>
        <time>2021-11-22T11:55:45.208Z</time>
      </trkpt>
      <trkpt lat="47.476344" lon="8.050361">
        <ele>412.622626</ele>
        <time>2021-11-22T11:55:51.519Z</time>
      </trkpt>
      <trkpt lat="47.475746" lon="8.050384">
        <ele>413.414883</ele>
        <time>2021-11-22T11:56:06.497Z</time>
      </trkpt>
      <trkpt lat="47.475713" lon="8.050385">
        <ele>413.484398</ele>
        <time>2021-11-22T11:56:08.931Z</time>
      </trkpt>
      <trkpt lat="47.475715" lon="8.050478">
        <ele>413.616850</ele>
        <time>2021-11-22T11:56:12.630Z</time>
      </trkpt>
      <trkpt lat="47.475492" lon="8.050466">
        <ele>414.086813</ele>
        <time>2021-11-22T11:56:15.011Z</time>
      </trkpt>
      <trkpt lat="47.475357" lon="8.050458">
        <ele>414.371359</ele>
        <time>2021-11-22T11:56:22.064Z</time>
      </trkpt>
      <trkpt lat="47.475284" lon="8.050458">
        <ele>414.525102</ele>
        <time>2021-11-22T11:56:22.885Z</time>
      </trkpt>
      <trkpt lat="47.475253" lon="8.050461">
        <ele>414.590530</ele>
        <time>2021-11-22T11:56:23.213Z</time>
      </trkpt>
      <trkpt lat="47.475144" lon="8.050466">
        <ele>414.820201</ele>
        <time>2021-11-22T11:56:24.357Z</time>
      </trkpt>
      <trkpt lat="47.474929" lon="8.050514">
        <ele>415.278131</ele>
        <time>2021-11-22T11:56:32.075Z</time>
      </trkpt>
      <trkpt lat="47.474798" lon="8.050543">
        <ele>415.557097</ele>
        <time>2021-11-22T11:56:33.456Z</time>
      </trkpt>
      <trkpt lat="47.474739" lon="8.050556">
        <ele>415.682725</ele>
        <time>2021-11-22T11:56:34.132Z</time>
      </trkpt>
      <trkpt lat="47.474655" lon="8.050582">
        <ele>415.863465</ele>
        <time>2021-11-22T11:56:40.599Z</time>
      </trkpt>
      <trkpt lat="47.474369" lon="8.050670">
        <ele>416.478688</ele>
        <time>2021-11-22T11:56:44.123Z</time>
      </trkpt>
      <trkpt lat="47.474254" lon="8.050712">
        <ele>416.728156</ele>
        <time>2021-11-22T11:56:50.097Z</time>
      </trkpt>
      <trkpt lat="47.474067" lon="8.050782">
        <ele>417.116513</ele>
        <time>2021-11-22T11:56:52.244Z</time>
      </trkpt>
      <trkpt lat="47.474013" lon="8.050809">
        <ele>417.213458</ele>
        <time>2021-11-22T11:56:54.306Z</time>
      </trkpt>
      <trkpt lat="47.473944" lon="8.050844">
        <ele>417.337517</ele>
        <time>2021-11-22T11:56:59.043Z</time>
      </trkpt>
      <trkpt lat="47.473006" lon="8.051614">
        <ele>419.161966</ele>
        <time>2021-11-22T11:57:19.648Z</time>
      </trkpt>
      <trkpt lat="47.472803" lon="8.051811">
        <ele>419.574873</ele>
        <time>2021-11-22T11:57:25.218Z</time>
      </trkpt>
      <trkpt lat="47.472623" lon="8.052001">
        <ele>419.950946</ele>
        <time>2021-11-22T11:57:30.114Z</time>
      </trkpt>
      <trkpt lat="47.472429" lon="8.052206">
        <ele>420.372195</ele>
        <time>2021-11-22T11:57:35.254Z</time>
      </trkpt>
      <trkpt lat="47.472031" lon="8.052625">
        <ele>421.254218</ele>
        <time>2021-11-22T11:57:45.386Z</time>
      </trkpt>
      <trkpt lat="47.471962" lon="8.052697">
        <ele>421.406680</ele>
        <time>2021-11-22T11:57:47.428Z</time>
      </trkpt>
      <trkpt lat="47.471695" lon="8.052974">
        <ele>421.995512</ele>
        <time>2021-11-22T11:57:53.991Z</time>
      </trkpt>
      <trkpt lat="47.471653" lon="8.053017">
        <ele>422.087737</ele>
        <time>2021-11-22T11:57:55.494Z</time>
      </trkpt>
      <trkpt lat="47.471281" lon="8.053367">
        <ele>422.883763</ele>
        <time>2021-11-22T11:58:05.415Z</time>
      </trkpt>
      <trkpt lat="47.470975" lon="8.053567">
        <ele>423.488679</ele>
        <time>2021-11-22T11:58:13.426Z</time>
      </trkpt>
      <trkpt lat="47.470388" lon="8.053827">
        <ele>424.601984</ele>
        <time>2021-11-22T11:58:27.630Z</time>
      </trkpt>
      <trkpt lat="47.470221" lon="8.053859">
        <ele>424.907943</ele>
        <time>2021-11-22T11:58:31.735Z</time>
      </trkpt>
      <trkpt lat="47.470240" lon="8.054007">
        <ele>425.092964</ele>
        <time>2021-11-22T11:58:34.697Z</time>
      </trkpt>
      <trkpt lat="47.470264" lon="8.054157">
        <ele>425.282281</ele>
        <time>2021-11-22T11:58:37.117Z</time>
      </trkpt>
      <trkpt lat="47.470293" lon="8.054310">
        <ele>425.477441</ele>
        <time>2021-11-22T11:58:40.025Z</time>
      </trkpt>
      <trkpt lat="47.470347" lon="8.054598">
        <ele>425.844512</ele>
        <time>2021-11-22T11:58:45.584Z</time>
      </trkpt>
      <trkpt lat="47.470323" lon="8.054614">
        <ele>425.892341</ele>
        <time>2021-11-22T11:58:46.102Z</time>
      </trkpt>
      <trkpt lat="47.469969" lon="8.054668">
        <ele>426.538938</ele>
        <time>2021-11-22T11:58:55.408Z</time>
      </trkpt>
      <trkpt lat="47.469229" lon="8.054337">
        <ele>427.431027</ele>
        <time>2021-11-22T11:59:15.238Z</time>
      </trkpt>
      <trkpt lat="47.469167" lon="8.054347">
        <ele>427.500589</ele>
        <time>2021-11-22T11:59:16.739Z</time>
      </trkpt>
      <trkpt lat="47.468945" lon="8.054329">
        <ele>427.748568</ele>
        <time>2021-11-22T11:59:22.347Z</time>
      </trkpt>
      <trkpt lat="47.468557" lon="8.054096">
        <ele>428.215623</ele>
        <time>2021-11-22T11:59:31.688Z</time>
      </trkpt>
      <trkpt lat="47.468048" lon="8.053789">
        <ele>429.033378</ele>
        <time>2021-11-22T11:59:44.655Z</time>
      </trkpt>
      <trkpt lat="47.467795" lon="8.053626">
        <ele>429.646341</ele>
        <time>2021-11-22T11:59:51.652Z</time>
      </trkpt>
      <trkpt lat="47.467522" lon="8.053451">
        <ele>430.307231</ele>
        <time>2021-11-22T11:59:59.675Z</time>
      </trkpt>
      <trkpt lat="47.467109" lon="8.053147">
        <ele>431.331906</ele>
        <time>2021-11-22T12:00:12.990Z</time>
      </trkpt>
      <trkpt lat="47.466677" lon="8.052608">
        <ele>432.587242</ele>
        <time>2021-11-22T12:00:31.512Z</time>
      </trkpt>
      <trkpt lat="47.466281" lon="8.052272">
        <ele>435.419178</ele>
        <time>2021-11-22T12:00:48.047Z</time>
      </trkpt>
      <trkpt lat="47.465924" lon="8.052115">
        <ele>437.775239</ele>
        <time>2021-11-22T12:01:03.096Z</time>
      </trkpt>
      <trkpt lat="47.465449" lon="8.052051">
        <ele>440.792512</ele>
        <time>2021-11-22T12:01:24.672Z</time>
      </trkpt>
      <trkpt lat="47.464971" lon="8.051631">
        <ele>444.486746</ele>
        <time>2021-11-22T12:01:56.451Z</time>
      </trkpt>
      <trkpt lat="47.464092" lon="8.050927">
        <ele>454.379604</ele>
        <time>2021-11-22T12:02:57.818Z</time>
      </trkpt>
      <trkpt lat="47.463967" lon="8.050827">
        <ele>455.786079</ele>
        <time>2021-11-22T12:03:11.291Z</time>
      </trkpt>
      <trkpt lat="47.463059" lon="8.050296">
        <ele>463.079881</ele>
        <time>2021-11-22T12:04:03.137Z</time>
      </trkpt>
      <trkpt lat="47.462996" lon="8.050220">
        <ele>463.362496</ele>
        <time>2021-11-22T12:04:10.990Z</time>
      </trkpt>
      <trkpt lat="47.462958" lon="8.050152">
        <ele>463.569842</ele>
        <time>2021-11-22T12:04:13.102Z</time>
      </trkpt>
      <trkpt lat="47.462891" lon="8.049989">
        <ele>464.018184</ele>
        <time>2021-11-22T12:04:16.142Z</time>
      </trkpt>
      <trkpt lat="47.462828" lon="8.049851">
        <ele>464.409540</ele>
        <time>2021-11-22T12:04:21.466Z</time>
      </trkpt>
      <trkpt lat="47.462751" lon="8.049761">
        <ele>464.750707</ele>
        <time>2021-11-22T12:04:28.048Z</time>
      </trkpt>
      <trkpt lat="47.462652" lon="8.049723">
        <ele>465.106267</ele>
        <time>2021-11-22T12:04:29.870Z</time>
      </trkpt>
      <trkpt lat="47.462501" lon="8.049622">
        <ele>465.682376</ele>
        <time>2021-11-22T12:04:34.413Z</time>
      </trkpt>
      <trkpt lat="47.462344" lon="8.049144">
        <ele>466.931373</ele>
        <time>2021-11-22T12:04:42.979Z</time>
      </trkpt>
      <trkpt lat="47.462228" lon="8.048937">
        <ele>467.563282</ele>
        <time>2021-11-22T12:04:46.833Z</time>
      </trkpt>
      <trkpt lat="47.461658" lon="8.048685">
        <ele>467.066805</ele>
        <time>2021-11-22T12:04:55.220Z</time>
      </trkpt>
      <trkpt lat="47.461512" lon="8.048529">
        <ele>466.677744</ele>
        <time>2021-11-22T12:04:57.634Z</time>
      </trkpt>
      <trkpt lat="47.461382" lon="8.048388">
        <ele>466.329518</ele>
        <time>2021-11-22T12:04:59.845Z</time>
      </trkpt>
      <trkpt lat="47.460880" lon="8.048206">
        <ele>465.213035</ele>
        <time>2021-11-22T12:05:07.635Z</time>
      </trkpt>
      <trkpt lat="47.460830" lon="8.048182">
        <ele>465.099483</ele>
        <time>2021-11-22T12:05:08.297Z</time>
      </trkpt>
      <trkpt lat="47.460787" lon="8.048038">
        <ele>464.869580</ele>
        <time>2021-11-22T12:05:10.233Z</time>
      </trkpt>
      <trkpt lat="47.460645" lon="8.048067">
        <ele>464.559932</ele>
        <time>2021-11-22T12:05:12.806Z</time>
      </trkpt>
      <trkpt lat="47.460347" lon="8.048170">
        <ele>464.485308</ele>
        <time>2021-11-22T12:05:16.988Z</time>
      </trkpt>
      <trkpt lat="47.459954" lon="8.048447">
        <ele>465.622015</ele>
        <time>2021-11-22T12:05:27.691Z</time>
      </trkpt>
      <trkpt lat="47.459687" lon="8.048651">
        <ele>466.406693</ele>
        <time>2021-11-22T12:05:34.243Z</time>
      </trkpt>
      <trkpt lat="47.459481" lon="8.048809">
        <ele>467.012592</ele>
        <time>2021-11-22T12:05:40.437Z</time>
      </trkpt>
      <trkpt lat="47.458999" lon="8.048946">
        <ele>468.294153</ele>
        <time>2021-11-22T12:05:56.184Z</time>
      </trkpt>
      <trkpt lat="47.458499" lon="8.049045">
        <ele>469.649056</ele>
        <time>2021-11-22T12:06:13.620Z</time>
      </trkpt>
      <trkpt lat="47.458317" lon="8.049081">
        <ele>470.152598</ele>
        <time>2021-11-22T12:06:18.061Z</time>
      </trkpt>
      <trkpt lat="47.457921" lon="8.049256">
        <ele>471.285987</ele>
        <time>2021-11-22T12:06:30.137Z</time>
      </trkpt>
      <trkpt lat="47.457653" lon="8.049670">
        <ele>472.348707</ele>
        <time>2021-11-22T12:06:38.840Z</time>
      </trkpt>
      <trkpt lat="47.457495" lon="8.050086">
        <ele>473.233403</ele>
        <time>2021-11-22T12:06:45.476Z</time>
      </trkpt>
      <trkpt lat="47.457325" lon="8.050553">
        <ele>474.154668</ele>
        <time>2021-11-22T12:06:52.077Z</time>
      </trkpt>
      <trkpt lat="47.457280" lon="8.050653">
        <ele>474.344721</ele>
        <time>2021-11-22T12:06:54.445Z</time>
      </trkpt>
      <trkpt lat="47.457083" lon="8.050928">
        <ele>474.978602</ele>
        <time>2021-11-22T12:07:00.002Z</time>
      </trkpt>
      <trkpt lat="47.456612" lon="8.051330">
        <ele>476.251092</ele>
        <time>2021-11-22T12:07:13.222Z</time>
      </trkpt>
      <trkpt lat="47.456563" lon="8.051295">
        <ele>476.378423</ele>
        <time>2021-11-22T12:07:14.963Z</time>
      </trkpt>
      <trkpt lat="47.456114" lon="8.051697">
        <ele>477.606598</ele>
        <time>2021-11-22T12:07:28.601Z</time>
      </trkpt>
      <trkpt lat="47.455980" lon="8.051817">
        <ele>477.973159</ele>
        <time>2021-11-22T12:07:33.345Z</time>
      </trkpt>
      <trkpt lat="47.455912" lon="8.051878">
        <ele>478.196450</ele>
        <time>2021-11-22T12:07:35.393Z</time>
      </trkpt>
      <trkpt lat="47.455674" lon="8.052090">
        <ele>479.000283</ele>
        <time>2021-11-22T12:07:42.351Z</time>
      </trkpt>
      <trkpt lat="47.455435" lon="8.052304">
        <ele>479.808615</ele>
        <time>2021-11-22T12:07:49.129Z</time>
      </trkpt>
      <trkpt lat="47.455278" lon="8.052443">
        <ele>480.338020</ele>
        <time>2021-11-22T12:07:54.457Z</time>
      </trkpt>
      <trkpt lat="47.455102" lon="8.052621">
        <ele>480.954904</ele>
        <time>2021-11-22T12:08:00.305Z</time>
      </trkpt>
      <trkpt lat="47.455021" lon="8.052703">
        <ele>481.238899</ele>
        <time>2021-11-22T12:08:02.817Z</time>
      </trkpt>
      <trkpt lat="47.454740" lon="8.053121">
        <ele>482.392000</ele>
        <time>2021-11-22T12:08:13.378Z</time>
      </trkpt>
      <trkpt lat="47.454599" lon="8.053302">
        <ele>482.932183</ele>
        <time>2021-11-22T12:08:17.868Z</time>
      </trkpt>
      <trkpt lat="47.454280" lon="8.053495">
        <ele>484.332579</ele>
        <time>2021-11-22T12:08:26.235Z</time>
      </trkpt>
      <trkpt lat="47.454190" lon="8.053504">
        <ele>484.739000</ele>
        <time>2021-11-22T12:08:28.938Z</time>
      </trkpt>
      <trkpt lat="47.454007" lon="8.053484">
        <ele>485.565755</ele>
        <time>2021-11-22T12:08:34.887Z</time>
      </trkpt>
      <trkpt lat="47.453588" lon="8.053338">
        <ele>487.505253</ele>
        <time>2021-11-22T12:08:46.855Z</time>
      </trkpt>
      <trkpt lat="47.453160" lon="8.053216">
        <ele>489.469101</ele>
        <time>2021-11-22T12:09:01.883Z</time>
      </trkpt>
      <trkpt lat="47.452870" lon="8.053142">
        <ele>490.795004</ele>
        <time>2021-11-22T12:09:13.712Z</time>
      </trkpt>
      <trkpt lat="47.452771" lon="8.053113">
        <ele>491.249714</ele>
        <time>2021-11-22T12:09:17.359Z</time>
      </trkpt>
      <trkpt lat="47.452592" lon="8.053064">
        <ele>492.790063</ele>
        <time>2021-11-22T12:09:25.926Z</time>
      </trkpt>
      <trkpt lat="47.452030" lon="8.052767">
        <ele>498.025901</ele>
        <time>2021-11-22T12:09:52.417Z</time>
      </trkpt>
      <trkpt lat="47.451995" lon="8.052743">
        <ele>498.364363</ele>
        <time>2021-11-22T12:09:55.511Z</time>
      </trkpt>
      <trkpt lat="47.451728" lon="8.052549">
        <ele>500.974243</ele>
        <time>2021-11-22T12:10:10.423Z</time>
      </trkpt>
      <trkpt lat="47.451546" lon="8.052392">
        <ele>502.822746</ele>
        <time>2021-11-22T12:10:21.933Z</time>
      </trkpt>
      <trkpt lat="47.451164" lon="8.052019">
        <ele>506.838709</ele>
        <time>2021-11-22T12:10:48.122Z</time>
      </trkpt>
      <trkpt lat="47.450757" lon="8.051663">
        <ele>510.932875</ele>
        <time>2021-11-22T12:11:15.229Z</time>
      </trkpt>
      <trkpt lat="47.450592" lon="8.051537">
        <ele>512.539337</ele>
        <time>2021-11-22T12:11:24.676Z</time>
      </trkpt>
      <trkpt lat="47.450504" lon="8.051491">
        <ele>513.346769</ele>
        <time>2021-11-22T12:11:29.860Z</time>
      </trkpt>
      <trkpt lat="47.450344" lon="8.051426">
        <ele>514.782179</ele>
        <time>2021-11-22T12:11:37.918Z</time>
      </trkpt>
      <trkpt lat="47.450074" lon="8.051371">
        <ele>517.139954</ele>
        <time>2021-11-22T12:11:51.455Z</time>
      </trkpt>
      <trkpt lat="47.449886" lon="8.051364">
        <ele>518.766822</ele>
        <time>2021-11-22T12:12:00.198Z</time>
      </trkpt>
      <trkpt lat="47.449613" lon="8.051437">
        <ele>521.166794</ele>
        <time>2021-11-22T12:12:13.614Z</time>
      </trkpt>
      <trkpt lat="47.449059" lon="8.051793">
        <ele>524.324913</ele>
        <time>2021-11-22T12:12:37.496Z</time>
      </trkpt>
      <trkpt lat="47.448673" lon="8.052159">
        <ele>526.100866</ele>
        <time>2021-11-22T12:12:51.779Z</time>
      </trkpt>
      <trkpt lat="47.448435" lon="8.052444">
        <ele>527.287003</ele>
        <time>2021-11-22T12:13:00.127Z</time>
      </trkpt>
      <trkpt lat="47.448041" lon="8.053050">
        <ele>529.488818</ele>
        <time>2021-11-22T12:13:13.569Z</time>
      </trkpt>
      <trkpt lat="47.447919" lon="8.053237">
        <ele>529.506477</ele>
        <time>2021-11-22T12:13:17.872Z</time>
      </trkpt>
      <trkpt lat="47.447679" lon="8.053483">
        <ele>529.284371</ele>
        <time>2021-11-22T12:13:23.301Z</time>
      </trkpt>
      <trkpt lat="47.447302" lon="8.053642">
        <ele>528.986197</ele>
        <time>2021-11-22T12:13:28.554Z</time>
      </trkpt>
      <trkpt lat="47.446540" lon="8.053621">
        <ele>528.406532</ele>
        <time>2021-11-22T12:13:36.861Z</time>
      </trkpt>
      <trkpt lat="47.446453" lon="8.053638">
        <ele>528.339786</ele>
        <time>2021-11-22T12:13:37.716Z</time>
      </trkpt>
      <trkpt lat="47.446269" lon="8.053688">
        <ele>528.184515</ele>
        <time>2021-11-22T12:13:39.859Z</time>
      </trkpt>
      <trkpt lat="47.446146" lon="8.053729">
        <ele>528.063607</ele>
        <time>2021-11-22T12:13:41.130Z</time>
      </trkpt>
      <trkpt lat="47.446043" lon="8.053773">
        <ele>527.960798</ele>
        <time>2021-11-22T12:13:42.217Z</time>
      </trkpt>
      <trkpt lat="47.445607" lon="8.054011">
        <ele>527.515126</ele>
        <time>2021-11-22T12:13:47.595Z</time>
      </trkpt>
      <trkpt lat="47.445482" lon="8.054086">
        <ele>527.385768</ele>
        <time>2021-11-22T12:13:48.999Z</time>
      </trkpt>
      <trkpt lat="47.445165" lon="8.054338">
        <ele>527.040642</ele>
        <time>2021-11-22T12:13:53.073Z</time>
      </trkpt>
      <trkpt lat="47.444891" lon="8.054624">
        <ele>526.719026</ele>
        <time>2021-11-22T12:13:57.376Z</time>
      </trkpt>
      <trkpt lat="47.444778" lon="8.054764">
        <ele>526.577658</ele>
        <time>2021-11-22T12:13:59.839Z</time>
      </trkpt>
      <trkpt lat="47.444479" lon="8.055137">
        <ele>528.276036</ele>
        <time>2021-11-22T12:14:10.035Z</time>
      </trkpt>
      <trkpt lat="47.444016" lon="8.055716">
        <ele>531.462663</ele>
        <time>2021-11-22T12:14:29.747Z</time>
      </trkpt>
      <trkpt lat="47.443780" lon="8.055984">
        <ele>533.026426</ele>
        <time>2021-11-22T12:14:42.015Z</time>
      </trkpt>
      <trkpt lat="47.443746" lon="8.056022">
        <ele>533.250400</ele>
        <time>2021-11-22T12:14:43.606Z</time>
      </trkpt>
      <trkpt lat="47.443500" lon="8.056201">
        <ele>534.691215</ele>
        <time>2021-11-22T12:14:56.254Z</time>
      </trkpt>
      <trkpt lat="47.443063" lon="8.056406">
        <ele>538.056832</ele>
        <time>2021-11-22T12:15:18.114Z</time>
      </trkpt>
      <trkpt lat="47.442807" lon="8.056482">
        <ele>540.594437</ele>
        <time>2021-11-22T12:15:31.536Z</time>
      </trkpt>
      <trkpt lat="47.442673" lon="8.056520">
        <ele>541.920459</ele>
        <time>2021-11-22T12:15:39.743Z</time>
      </trkpt>
      <trkpt lat="47.442440" lon="8.056586">
        <ele>544.226063</ele>
        <time>2021-11-22T12:15:52.443Z</time>
      </trkpt>
      <trkpt lat="47.442208" lon="8.056646">
        <ele>546.514998</ele>
        <time>2021-11-22T12:16:06.446Z</time>
      </trkpt>
      <trkpt lat="47.442016" lon="8.056684">
        <ele>548.397604</ele>
        <time>2021-11-22T12:16:16.295Z</time>
      </trkpt>
      <trkpt lat="47.441973" lon="8.056692">
        <ele>548.818797</ele>
        <time>2021-11-22T12:16:19.533Z</time>
      </trkpt>
      <trkpt lat="47.441352" lon="8.056727">
        <ele>554.862634</ele>
        <time>2021-11-22T12:16:53.109Z</time>
      </trkpt>
      <trkpt lat="47.441177" lon="8.056749">
        <ele>556.574663</ele>
        <time>2021-11-22T12:17:04.102Z</time>
      </trkpt>
      <trkpt lat="47.439250" lon="8.057494">
        <ele>575.437275</ele>
        <time>2021-11-22T12:18:49.917Z</time>
      </trkpt>
      <trkpt lat="47.439110" lon="8.057501">
        <ele>576.651794</ele>
        <time>2021-11-22T12:18:56.704Z</time>
      </trkpt>
      <trkpt lat="47.439110" lon="8.057501">
        <ele>576.651794</ele>
        <time>2021-11-22T12:18:57.003Z</time>
      </trkpt>
      <trkpt lat="47.438753" lon="8.057449">
        <ele>579.762032</ele>
        <time>2021-11-22T12:19:12.945Z</time>
      </trkpt>
      <trkpt lat="47.438390" lon="8.057522">
        <ele>582.938288</ele>
        <time>2021-11-22T12:19:31.783Z</time>
      </trkpt>
      <trkpt lat="47.438151" lon="8.057748">
        <ele>585.398053</ele>
        <time>2021-11-22T12:19:44.127Z</time>
      </trkpt>
      <trkpt lat="47.437631" lon="8.058564">
        <ele>591.043425</ele>
        <time>2021-11-22T12:20:20.315Z</time>
      </trkpt>
      <trkpt lat="47.436575" lon="8.060226">
        <ele>602.062738</ele>
        <time>2021-11-22T12:21:24.381Z</time>
      </trkpt>
      <trkpt lat="47.436511" lon="8.060328">
        <ele>602.725655</ele>
        <time>2021-11-22T12:21:28.415Z</time>
      </trkpt>
      <trkpt lat="47.436332" lon="8.060550">
        <ele>604.371517</ele>
        <time>2021-11-22T12:21:37.602Z</time>
      </trkpt>
      <trkpt lat="47.436148" lon="8.060668">
        <ele>605.784362</ele>
        <time>2021-11-22T12:21:46.310Z</time>
      </trkpt>
      <trkpt lat="47.435679" lon="8.060767">
        <ele>609.121644</ele>
        <time>2021-11-22T12:22:06.909Z</time>
      </trkpt>
      <trkpt lat="47.435387" lon="8.060864">
        <ele>611.229867</ele>
        <time>2021-11-22T12:22:20.694Z</time>
      </trkpt>
      <trkpt lat="47.434799" lon="8.061205">
        <ele>616.750877</ele>
        <time>2021-11-22T12:22:48.518Z</time>
      </trkpt>
      <trkpt lat="47.434654" lon="8.061257">
        <ele>618.121855</ele>
        <time>2021-11-22T12:22:54.700Z</time>
      </trkpt>
      <trkpt lat="47.434476" lon="8.061251">
        <ele>619.757839</ele>
        <time>2021-11-22T12:23:04.451Z</time>
      </trkpt>
      <trkpt lat="47.434186" lon="8.061122">
        <ele>622.540528</ele>
        <time>2021-11-22T12:23:20.911Z</time>
      </trkpt>
      <trkpt lat="47.434058" lon="8.061001">
        <ele>623.936558</ele>
        <time>2021-11-22T12:23:28.087Z</time>
      </trkpt>
      <trkpt lat="47.433974" lon="8.060897">
        <ele>624.943324</ele>
        <time>2021-11-22T12:23:34.722Z</time>
      </trkpt>
      <trkpt lat="47.433913" lon="8.060781">
        <ele>625.856558</ele>
        <time>2021-11-22T12:23:42.551Z</time>
      </trkpt>
      <trkpt lat="47.433897" lon="8.060733">
        <ele>626.189158</ele>
        <time>2021-11-22T12:23:43.258Z</time>
      </trkpt>
      <trkpt lat="47.433841" lon="8.060561">
        <ele>627.375611</ele>
        <time>2021-11-22T12:23:50.731Z</time>
      </trkpt>
      <trkpt lat="47.433818" lon="8.060443">
        <ele>628.138881</ele>
        <time>2021-11-22T12:23:55.153Z</time>
      </trkpt>
      <trkpt lat="47.433730" lon="8.060519">
        <ele>629.077780</ele>
        <time>2021-11-22T12:24:03.755Z</time>
      </trkpt>
      <trkpt lat="47.433691" lon="8.060591">
        <ele>629.654677</ele>
        <time>2021-11-22T12:24:05.684Z</time>
      </trkpt>
      <trkpt lat="47.433563" lon="8.061773">
        <ele>637.141481</ele>
        <time>2021-11-22T12:24:51.819Z</time>
      </trkpt>
      <trkpt lat="47.433539" lon="8.061973">
        <ele>638.411888</ele>
        <time>2021-11-22T12:24:59.999Z</time>
      </trkpt>
      <trkpt lat="47.433432" lon="8.063843">
        <ele>647.493582</ele>
        <time>2021-11-22T12:25:56.799Z</time>
      </trkpt>
      <trkpt lat="47.433334" lon="8.064796">
        <ele>650.210053</ele>
        <time>2021-11-22T12:26:16.117Z</time>
      </trkpt>
      <trkpt lat="47.433334" lon="8.064968">
        <ele>650.694760</ele>
        <time>2021-11-22T12:26:18.579Z</time>
      </trkpt>
      <trkpt lat="47.433401" lon="8.065135">
        <ele>651.241925</ele>
        <time>2021-11-22T12:26:20.313Z</time>
      </trkpt>
      <trkpt lat="47.433554" lon="8.065256">
        <ele>651.964796</ele>
        <time>2021-11-22T12:26:25.382Z</time>
      </trkpt>
      <trkpt lat="47.433766" lon="8.065315">
        <ele>652.821099</ele>
        <time>2021-11-22T12:26:29.163Z</time>
      </trkpt>
      <trkpt lat="47.434017" lon="8.065303">
        <ele>653.057197</ele>
        <time>2021-11-22T12:26:35.244Z</time>
      </trkpt>
      <trkpt lat="47.434745" lon="8.065087">
        <ele>653.755263</ele>
        <time>2021-11-22T12:26:52.175Z</time>
      </trkpt>
      <trkpt lat="47.434794" lon="8.065101">
        <ele>653.802182</ele>
        <time>2021-11-22T12:26:52.667Z</time>
      </trkpt>
      <trkpt lat="47.434850" lon="8.065142">
        <ele>653.860932</ele>
        <time>2021-11-22T12:26:55.556Z</time>
      </trkpt>
      <trkpt lat="47.435011" lon="8.065633">
        <ele>654.207928</ele>
        <time>2021-11-22T12:27:02.427Z</time>
      </trkpt>
      <trkpt lat="47.435134" lon="8.066208">
        <ele>654.120408</ele>
        <time>2021-11-22T12:27:07.283Z</time>
      </trkpt>
      <trkpt lat="47.435171" lon="8.066354">
        <ele>653.710421</ele>
        <time>2021-11-22T12:27:08.330Z</time>
      </trkpt>
      <trkpt lat="47.435246" lon="8.066744">
        <ele>652.644222</ele>
        <time>2021-11-22T12:27:11.311Z</time>
      </trkpt>
      <trkpt lat="47.435269" lon="8.066847">
        <ele>652.358993</ele>
        <time>2021-11-22T12:27:11.981Z</time>
      </trkpt>
      <trkpt lat="47.435328" lon="8.067121">
        <ele>651.602848</ele>
        <time>2021-11-22T12:27:14.089Z</time>
      </trkpt>
      <trkpt lat="47.435431" lon="8.067627">
        <ele>650.213313</ele>
        <time>2021-11-22T12:27:17.646Z</time>
      </trkpt>
      <trkpt lat="47.435503" lon="8.067966">
        <ele>649.278960</ele>
        <time>2021-11-22T12:27:19.885Z</time>
      </trkpt>
      <trkpt lat="47.435676" lon="8.068459">
        <ele>647.818490</ele>
        <time>2021-11-22T12:27:23.360Z</time>
      </trkpt>
      <trkpt lat="47.435876" lon="8.068737">
        <ele>646.300617</ele>
        <time>2021-11-22T12:27:25.791Z</time>
      </trkpt>
      <trkpt lat="47.436622" lon="8.069777">
        <ele>639.938513</ele>
        <time>2021-11-22T12:27:35.119Z</time>
      </trkpt>
      <trkpt lat="47.436652" lon="8.069782">
        <ele>639.751193</ele>
        <time>2021-11-22T12:27:35.369Z</time>
      </trkpt>
      <trkpt lat="47.436686" lon="8.069773">
        <ele>639.536879</ele>
        <time>2021-11-22T12:27:37.265Z</time>
      </trkpt>
      <trkpt lat="47.437121" lon="8.068991">
        <ele>635.093738</ele>
        <time>2021-11-22T12:27:43.546Z</time>
      </trkpt>
      <trkpt lat="47.437380" lon="8.068624">
        <ele>632.460496</ele>
        <time>2021-11-22T12:27:46.876Z</time>
      </trkpt>
      <trkpt lat="47.437549" lon="8.068492">
        <ele>631.057563</ele>
        <time>2021-11-22T12:27:48.798Z</time>
      </trkpt>
      <trkpt lat="47.437876" lon="8.068472">
        <ele>628.655328</ele>
        <time>2021-11-22T12:27:51.762Z</time>
      </trkpt>
      <trkpt lat="47.438250" lon="8.068552">
        <ele>625.881583</ele>
        <time>2021-11-22T12:27:55.035Z</time>
      </trkpt>
      <trkpt lat="47.438419" lon="8.068754">
        <ele>624.286442</ele>
        <time>2021-11-22T12:27:56.896Z</time>
      </trkpt>
      <trkpt lat="47.438641" lon="8.069393">
        <ele>620.098048</ele>
        <time>2021-11-22T12:28:01.113Z</time>
      </trkpt>
      <trkpt lat="47.438715" lon="8.070016">
        <ele>616.152412</ele>
        <time>2021-11-22T12:28:04.836Z</time>
      </trkpt>
      <trkpt lat="47.438717" lon="8.070139">
        <ele>615.384938</ele>
        <time>2021-11-22T12:28:05.521Z</time>
      </trkpt>
      <trkpt lat="47.438717" lon="8.070261">
        <ele>614.623923</ele>
        <time>2021-11-22T12:28:06.269Z</time>
      </trkpt>
      <trkpt lat="47.438717" lon="8.070432">
        <ele>613.557255</ele>
        <time>2021-11-22T12:28:07.298Z</time>
      </trkpt>
      <trkpt lat="47.438733" lon="8.071591">
        <ele>606.377618</ele>
        <time>2021-11-22T12:28:14.117Z</time>
      </trkpt>
      <trkpt lat="47.438761" lon="8.072680">
        <ele>601.092869</ele>
        <time>2021-11-22T12:28:20.610Z</time>
      </trkpt>
      <trkpt lat="47.438769" lon="8.073159">
        <ele>598.769327</ele>
        <time>2021-11-22T12:28:23.612Z</time>
      </trkpt>
      <trkpt lat="47.438802" lon="8.076162">
        <ele>585.547111</ele>
        <time>2021-11-22T12:28:42.064Z</time>
      </trkpt>
      <trkpt lat="47.438808" lon="8.076440">
        <ele>584.389747</ele>
        <time>2021-11-22T12:28:43.788Z</time>
      </trkpt>
      <trkpt lat="47.438854" lon="8.077729">
        <ele>579.538657</ele>
        <time>2021-11-22T12:28:51.975Z</time>
      </trkpt>
      <trkpt lat="47.438862" lon="8.078789">
        <ele>575.768676</ele>
        <time>2021-11-22T12:28:58.670Z</time>
      </trkpt>
      <trkpt lat="47.438840" lon="8.079017">
        <ele>574.949615</ele>
        <time>2021-11-22T12:29:00.175Z</time>
      </trkpt>
      <trkpt lat="47.438811" lon="8.079350">
        <ele>573.755569</ele>
        <time>2021-11-22T12:29:02.309Z</time>
      </trkpt>
      <trkpt lat="47.438733" lon="8.079954">
        <ele>571.223863</ele>
        <time>2021-11-22T12:29:06.229Z</time>
      </trkpt>
      <trkpt lat="47.438632" lon="8.080671">
        <ele>568.047420</ele>
        <time>2021-11-22T12:29:10.765Z</time>
      </trkpt>
      <trkpt lat="47.438547" lon="8.081275">
        <ele>565.371691</ele>
        <time>2021-11-22T12:29:14.552Z</time>
      </trkpt>
      <trkpt lat="47.438436" lon="8.082004">
        <ele>562.130791</ele>
        <time>2021-11-22T12:29:19.061Z</time>
      </trkpt>
      <trkpt lat="47.438326" lon="8.082717">
        <ele>558.783304</ele>
        <time>2021-11-22T12:29:23.440Z</time>
      </trkpt>
      <trkpt lat="47.438164" lon="8.083842">
        <ele>553.463583</ele>
        <time>2021-11-22T12:29:30.462Z</time>
      </trkpt>
      <trkpt lat="47.438112" lon="8.083945">
        <ele>552.869142</ele>
        <time>2021-11-22T12:29:31.220Z</time>
      </trkpt>
      <trkpt lat="47.438031" lon="8.083992">
        <ele>552.274149</ele>
        <time>2021-11-22T12:29:32.002Z</time>
      </trkpt>
      <trkpt lat="47.437975" lon="8.083964">
        <ele>551.869927</ele>
        <time>2021-11-22T12:29:32.538Z</time>
      </trkpt>
      <trkpt lat="47.437860" lon="8.083715">
        <ele>550.475440</ele>
        <time>2021-11-22T12:29:34.418Z</time>
      </trkpt>
      <trkpt lat="47.437557" lon="8.082140">
        <ele>543.788180</ele>
        <time>2021-11-22T12:29:44.615Z</time>
      </trkpt>
      <trkpt lat="47.437503" lon="8.081856">
        <ele>542.612503</ele>
        <time>2021-11-22T12:29:46.387Z</time>
      </trkpt>
      <trkpt lat="47.437387" lon="8.081264">
        <ele>540.156234</ele>
        <time>2021-11-22T12:29:50.368Z</time>
      </trkpt>
      <trkpt lat="47.437258" lon="8.080640">
        <ele>537.374381</ele>
        <time>2021-11-22T12:29:54.506Z</time>
      </trkpt>
      <trkpt lat="47.437232" lon="8.080595">
        <ele>537.101433</ele>
        <time>2021-11-22T12:29:54.863Z</time>
      </trkpt>
      <trkpt lat="47.437191" lon="8.080569">
        <ele>536.797244</ele>
        <time>2021-11-22T12:29:55.271Z</time>
      </trkpt>
      <trkpt lat="47.437125" lon="8.080553">
        <ele>536.341216</ele>
        <time>2021-11-22T12:29:55.887Z</time>
      </trkpt>
      <trkpt lat="47.437072" lon="8.080572">
        <ele>535.969365</ele>
        <time>2021-11-22T12:29:56.347Z</time>
      </trkpt>
      <trkpt lat="47.436847" lon="8.080902">
        <ele>533.808346</ele>
        <time>2021-11-22T12:29:59.269Z</time>
      </trkpt>
      <trkpt lat="47.436780" lon="8.081213">
        <ele>532.303012</ele>
        <time>2021-11-22T12:30:01.264Z</time>
      </trkpt>
      <trkpt lat="47.436742" lon="8.083751">
        <ele>519.586674</ele>
        <time>2021-11-22T12:30:16.523Z</time>
      </trkpt>
      <trkpt lat="47.436840" lon="8.084846">
        <ele>513.614781</ele>
        <time>2021-11-22T12:30:23.087Z</time>
      </trkpt>
      <trkpt lat="47.436921" lon="8.085388">
        <ele>510.700187</ele>
        <time>2021-11-22T12:30:26.389Z</time>
      </trkpt>
      <trkpt lat="47.437083" lon="8.086303">
        <ele>505.890343</ele>
        <time>2021-11-22T12:30:32.045Z</time>
      </trkpt>
      <trkpt lat="47.437206" lon="8.087000">
        <ele>502.227226</ele>
        <time>2021-11-22T12:30:36.374Z</time>
      </trkpt>
      <trkpt lat="47.437526" lon="8.088839">
        <ele>493.243284</ele>
        <time>2021-11-22T12:30:48.009Z</time>
      </trkpt>
      <trkpt lat="47.437566" lon="8.089464">
        <ele>490.410040</ele>
        <time>2021-11-22T12:30:51.853Z</time>
      </trkpt>
      <trkpt lat="47.437543" lon="8.090167">
        <ele>487.233669</ele>
        <time>2021-11-22T12:30:56.183Z</time>
      </trkpt>
      <trkpt lat="47.437512" lon="8.090475">
        <ele>485.807153</ele>
        <time>2021-11-22T12:30:58.066Z</time>
      </trkpt>
      <trkpt lat="47.437449" lon="8.091081">
        <ele>482.958349</ele>
        <time>2021-11-22T12:31:01.806Z</time>
      </trkpt>
      <trkpt lat="47.437327" lon="8.092095">
        <ele>478.172899</ele>
        <time>2021-11-22T12:31:08.020Z</time>
      </trkpt>
      <trkpt lat="47.436956" lon="8.093402">
        <ele>472.048211</ele>
        <time>2021-11-22T12:31:16.721Z</time>
      </trkpt>
      <trkpt lat="47.436880" lon="8.093951">
        <ele>469.905893</ele>
        <time>2021-11-22T12:31:20.229Z</time>
      </trkpt>
      <trkpt lat="47.436840" lon="8.094305">
        <ele>468.533804</ele>
        <time>2021-11-22T12:31:22.479Z</time>
      </trkpt>
      <trkpt lat="47.436625" lon="8.095247">
        <ele>464.733059</ele>
        <time>2021-11-22T12:31:28.754Z</time>
      </trkpt>
      <trkpt lat="47.436605" lon="8.095337">
        <ele>464.370896</ele>
        <time>2021-11-22T12:31:29.356Z</time>
      </trkpt>
      <trkpt lat="47.436535" lon="8.095602">
        <ele>463.402211</ele>
        <time>2021-11-22T12:31:31.147Z</time>
      </trkpt>
      <trkpt lat="47.436422" lon="8.096087">
        <ele>461.755982</ele>
        <time>2021-11-22T12:31:34.457Z</time>
      </trkpt>
      <trkpt lat="47.436349" lon="8.096291">
        <ele>461.015325</ele>
        <time>2021-11-22T12:31:36.004Z</time>
      </trkpt>
      <trkpt lat="47.436266" lon="8.096607">
        <ele>459.927427</ele>
        <time>2021-11-22T12:31:38.142Z</time>
      </trkpt>
      <trkpt lat="47.436208" lon="8.096829">
        <ele>459.163675</ele>
        <time>2021-11-22T12:31:39.758Z</time>
      </trkpt>
      <trkpt lat="47.436163" lon="8.097026">
        <ele>458.496374</ele>
        <time>2021-11-22T12:31:41.029Z</time>
      </trkpt>
      <trkpt lat="47.436091" lon="8.097832">
        <ele>455.887250</ele>
        <time>2021-11-22T12:31:46.299Z</time>
      </trkpt>
      <trkpt lat="47.436131" lon="8.098445">
        <ele>454.255313</ele>
        <time>2021-11-22T12:31:50.370Z</time>
      </trkpt>
      <trkpt lat="47.436142" lon="8.098546">
        <ele>453.998606</ele>
        <time>2021-11-22T12:31:50.988Z</time>
      </trkpt>
      <trkpt lat="47.436150" lon="8.098616">
        <ele>453.820464</ele>
        <time>2021-11-22T12:31:51.428Z</time>
      </trkpt>
      <trkpt lat="47.436248" lon="8.099120">
        <ele>452.504544</ele>
        <time>2021-11-22T12:31:54.901Z</time>
      </trkpt>
      <trkpt lat="47.436315" lon="8.099419">
        <ele>451.714157</ele>
        <time>2021-11-22T12:31:57.205Z</time>
      </trkpt>
      <trkpt lat="47.436383" lon="8.099657">
        <ele>451.065845</ele>
        <time>2021-11-22T12:31:58.873Z</time>
      </trkpt>
      <trkpt lat="47.436476" lon="8.099978">
        <ele>450.189577</ele>
        <time>2021-11-22T12:32:01.401Z</time>
      </trkpt>
      <trkpt lat="47.436585" lon="8.100263">
        <ele>449.368019</ele>
        <time>2021-11-22T12:32:03.583Z</time>
      </trkpt>
      <trkpt lat="47.436647" lon="8.100422">
        <ele>448.907489</ele>
        <time>2021-11-22T12:32:04.931Z</time>
      </trkpt>
      <trkpt lat="47.436711" lon="8.100563">
        <ele>448.543425</ele>
        <time>2021-11-22T12:32:05.987Z</time>
      </trkpt>
      <trkpt lat="47.437205" lon="8.101657">
        <ele>445.851455</ele>
        <time>2021-11-22T12:32:15.245Z</time>
      </trkpt>
      <trkpt lat="47.437641" lon="8.102393">
        <ele>443.849217</ele>
        <time>2021-11-22T12:32:22.030Z</time>
      </trkpt>
      <trkpt lat="47.437770" lon="8.102600">
        <ele>443.266727</ele>
        <time>2021-11-22T12:32:23.928Z</time>
      </trkpt>
      <trkpt lat="47.437904" lon="8.102800">
        <ele>442.654253</ele>
        <time>2021-11-22T12:32:25.969Z</time>
      </trkpt>
      <trkpt lat="47.438112" lon="8.103073">
        <ele>441.759593</ele>
        <time>2021-11-22T12:32:28.742Z</time>
      </trkpt>
      <trkpt lat="47.438137" lon="8.103139">
        <ele>441.595016</ele>
        <time>2021-11-22T12:32:29.286Z</time>
      </trkpt>
      <trkpt lat="47.438152" lon="8.103203">
        <ele>441.447651</ele>
        <time>2021-11-22T12:32:29.759Z</time>
      </trkpt>
      <trkpt lat="47.438169" lon="8.103294">
        <ele>441.242253</ele>
        <time>2021-11-22T12:32:30.381Z</time>
      </trkpt>
      <trkpt lat="47.438182" lon="8.103370">
        <ele>441.071698</ele>
        <time>2021-11-22T12:32:30.917Z</time>
      </trkpt>
      <trkpt lat="47.438218" lon="8.103493">
        <ele>440.780112</ele>
        <time>2021-11-22T12:32:31.789Z</time>
      </trkpt>
      <trkpt lat="47.438319" lon="8.103594">
        <ele>440.387900</ele>
        <time>2021-11-22T12:32:33.105Z</time>
      </trkpt>
      <trkpt lat="47.438435" lon="8.103708">
        <ele>439.939861</ele>
        <time>2021-11-22T12:32:34.458Z</time>
      </trkpt>
      <trkpt lat="47.438510" lon="8.103795">
        <ele>439.633223</ele>
        <time>2021-11-22T12:32:35.367Z</time>
      </trkpt>
      <trkpt lat="47.438624" lon="8.103965">
        <ele>439.112398</ele>
        <time>2021-11-22T12:32:37.054Z</time>
      </trkpt>
      <trkpt lat="47.438636" lon="8.104004">
        <ele>439.019181</ele>
        <time>2021-11-22T12:32:37.331Z</time>
      </trkpt>
      <trkpt lat="47.438698" lon="8.104222">
        <ele>438.504669</ele>
        <time>2021-11-22T12:32:38.890Z</time>
      </trkpt>
      <trkpt lat="47.438764" lon="8.104599">
        <ele>437.657425</ele>
        <time>2021-11-22T12:32:41.650Z</time>
      </trkpt>
      <trkpt lat="47.438760" lon="8.104786">
        <ele>437.307499</ele>
        <time>2021-11-22T12:32:42.914Z</time>
      </trkpt>
      <trkpt lat="47.438736" lon="8.105033">
        <ele>436.855852</ele>
        <time>2021-11-22T12:32:44.718Z</time>
      </trkpt>
      <trkpt lat="47.438700" lon="8.105458">
        <ele>436.080615</ele>
        <time>2021-11-22T12:32:47.791Z</time>
      </trkpt>
      <trkpt lat="47.438707" lon="8.105651">
        <ele>435.730793</ele>
        <time>2021-11-22T12:32:49.214Z</time>
      </trkpt>
      <trkpt lat="47.438729" lon="8.105870">
        <ele>435.330066</ele>
        <time>2021-11-22T12:32:50.773Z</time>
      </trkpt>
      <trkpt lat="47.438752" lon="8.106005">
        <ele>435.078091</ele>
        <time>2021-11-22T12:32:51.837Z</time>
      </trkpt>
      <trkpt lat="47.438818" lon="8.106296">
        <ele>434.522574</ele>
        <time>2021-11-22T12:32:53.938Z</time>
      </trkpt>
      <trkpt lat="47.438874" lon="8.106523">
        <ele>434.085242</ele>
        <time>2021-11-22T12:32:55.705Z</time>
      </trkpt>
      <trkpt lat="47.438899" lon="8.106626">
        <ele>433.887178</ele>
        <time>2021-11-22T12:32:56.504Z</time>
      </trkpt>
      <trkpt lat="47.438974" lon="8.106907">
        <ele>433.340418</ele>
        <time>2021-11-22T12:32:58.592Z</time>
      </trkpt>
      <trkpt lat="47.439207" lon="8.107635">
        <ele>431.805381</ele>
        <time>2021-11-22T12:33:04.313Z</time>
      </trkpt>
      <trkpt lat="47.439314" lon="8.107942">
        <ele>431.126255</ele>
        <time>2021-11-22T12:33:06.742Z</time>
      </trkpt>
      <trkpt lat="47.439446" lon="8.108296">
        <ele>430.331369</ele>
        <time>2021-11-22T12:33:09.610Z</time>
      </trkpt>
      <trkpt lat="47.439529" lon="8.108595">
        <ele>429.695822</ele>
        <time>2021-11-22T12:33:11.941Z</time>
      </trkpt>
      <trkpt lat="47.439627" lon="8.109005">
        <ele>428.840733</ele>
        <time>2021-11-22T12:33:14.907Z</time>
      </trkpt>
      <trkpt lat="47.439736" lon="8.109646">
        <ele>427.540046</ele>
        <time>2021-11-22T12:33:19.428Z</time>
      </trkpt>
      <trkpt lat="47.439783" lon="8.110028">
        <ele>426.666037</ele>
        <time>2021-11-22T12:33:22.026Z</time>
      </trkpt>
      <trkpt lat="47.439797" lon="8.110143">
        <ele>426.403007</ele>
        <time>2021-11-22T12:33:22.822Z</time>
      </trkpt>
      <trkpt lat="47.439868" lon="8.110864">
        <ele>424.762897</ele>
        <time>2021-11-22T12:33:27.773Z</time>
      </trkpt>
      <trkpt lat="47.439893" lon="8.111132">
        <ele>424.153909</ele>
        <time>2021-11-22T12:33:29.591Z</time>
      </trkpt>
      <trkpt lat="47.440053" lon="8.112608">
        <ele>420.969801</ele>
        <time>2021-11-22T12:33:39.812Z</time>
      </trkpt>
      <trkpt lat="47.440229" lon="8.113672">
        <ele>419.081020</ele>
        <time>2021-11-22T12:33:47.461Z</time>
      </trkpt>
      <trkpt lat="47.440342" lon="8.114157">
        <ele>418.196482</ele>
        <time>2021-11-22T12:33:51.180Z</time>
      </trkpt>
      <trkpt lat="47.440417" lon="8.114455">
        <ele>417.648206</ele>
        <time>2021-11-22T12:33:53.493Z</time>
      </trkpt>
      <trkpt lat="47.440589" lon="8.115040">
        <ele>416.783243</ele>
        <time>2021-11-22T12:33:58.325Z</time>
      </trkpt>
      <trkpt lat="47.440666" lon="8.115339">
        <ele>416.534452</ele>
        <time>2021-11-22T12:34:00.791Z</time>
      </trkpt>
      <trkpt lat="47.441002" lon="8.116649">
        <ele>415.444988</ele>
        <time>2021-11-22T12:34:12.287Z</time>
      </trkpt>
      <trkpt lat="47.441126" lon="8.117583">
        <ele>414.781697</ele>
        <time>2021-11-22T12:34:20.514Z</time>
      </trkpt>
      <trkpt lat="47.441143" lon="8.117969">
        <ele>414.594529</ele>
        <time>2021-11-22T12:34:23.793Z</time>
      </trkpt>
      <trkpt lat="47.441151" lon="8.118249">
        <ele>414.458925</ele>
        <time>2021-11-22T12:34:26.163Z</time>
      </trkpt>
      <trkpt lat="47.441160" lon="8.118632">
        <ele>414.273492</ele>
        <time>2021-11-22T12:34:29.619Z</time>
      </trkpt>
      <trkpt lat="47.441161" lon="8.118889">
        <ele>414.149135</ele>
        <time>2021-11-22T12:34:31.867Z</time>
      </trkpt>
      <trkpt lat="47.441148" lon="8.119325">
        <ele>413.937964</ele>
        <time>2021-11-22T12:34:35.763Z</time>
      </trkpt>
      <trkpt lat="47.441139" lon="8.120050">
        <ele>413.580656</ele>
        <time>2021-11-22T12:34:42.002Z</time>
      </trkpt>
      <trkpt lat="47.441147" lon="8.120369">
        <ele>413.397281</ele>
        <time>2021-11-22T12:34:44.673Z</time>
      </trkpt>
      <trkpt lat="47.441158" lon="8.120592">
        <ele>413.268839</ele>
        <time>2021-11-22T12:34:46.495Z</time>
      </trkpt>
      <trkpt lat="47.441185" lon="8.120992">
        <ele>413.037919</ele>
        <time>2021-11-22T12:34:49.661Z</time>
      </trkpt>
      <trkpt lat="47.441242" lon="8.121608">
        <ele>412.680763</ele>
        <time>2021-11-22T12:34:54.860Z</time>
      </trkpt>
      <trkpt lat="47.441260" lon="8.121851">
        <ele>412.540338</ele>
        <time>2021-11-22T12:34:57.324Z</time>
      </trkpt>
      <trkpt lat="47.441259" lon="8.122119">
        <ele>412.386384</ele>
        <time>2021-11-22T12:34:59.488Z</time>
      </trkpt>
      <trkpt lat="47.441253" lon="8.122860">
        <ele>411.847278</ele>
        <time>2021-11-22T12:35:06.533Z</time>
      </trkpt>
      <trkpt lat="47.441230" lon="8.123139">
        <ele>411.548335</ele>
        <time>2021-11-22T12:35:08.807Z</time>
      </trkpt>
      <trkpt lat="47.441181" lon="8.123600">
        <ele>411.051993</ele>
        <time>2021-11-22T12:35:12.423Z</time>
      </trkpt>
      <trkpt lat="47.441073" lon="8.124657">
        <ele>409.915001</ele>
        <time>2021-11-22T12:35:20.279Z</time>
      </trkpt>
      <trkpt lat="47.441063" lon="8.124846">
        <ele>409.713364</ele>
        <time>2021-11-22T12:35:21.907Z</time>
      </trkpt>
      <trkpt lat="47.441067" lon="8.125024">
        <ele>409.523936</ele>
        <time>2021-11-22T12:35:23.056Z</time>
      </trkpt>
      <trkpt lat="47.441081" lon="8.125303">
        <ele>409.233457</ele>
        <time>2021-11-22T12:35:25.312Z</time>
      </trkpt>
      <trkpt lat="47.441091" lon="8.125443">
        <ele>409.110926</ele>
        <time>2021-11-22T12:35:26.549Z</time>
      </trkpt>
      <trkpt lat="47.441104" lon="8.125606">
        <ele>408.968071</ele>
        <time>2021-11-22T12:35:27.622Z</time>
      </trkpt>
      <trkpt lat="47.441214" lon="8.126456">
        <ele>408.214828</ele>
        <time>2021-11-22T12:35:35.338Z</time>
      </trkpt>
      <trkpt lat="47.441238" lon="8.126576">
        <ele>408.105912</ele>
        <time>2021-11-22T12:35:36.134Z</time>
      </trkpt>
      <trkpt lat="47.441266" lon="8.126867">
        <ele>407.850082</ele>
        <time>2021-11-22T12:35:38.699Z</time>
      </trkpt>
      <trkpt lat="47.441277" lon="8.127183">
        <ele>407.574678</ele>
        <time>2021-11-22T12:35:40.888Z</time>
      </trkpt>
      <trkpt lat="47.441262" lon="8.127516">
        <ele>407.284201</ele>
        <time>2021-11-22T12:35:43.826Z</time>
      </trkpt>
      <trkpt lat="47.441146" lon="8.128500">
        <ele>406.778407</ele>
        <time>2021-11-22T12:35:52.789Z</time>
      </trkpt>
      <trkpt lat="47.440994" lon="8.129640">
        <ele>406.453212</ele>
        <time>2021-11-22T12:36:06.182Z</time>
      </trkpt>
      <trkpt lat="47.440963" lon="8.129769">
        <ele>406.414898</ele>
        <time>2021-11-22T12:36:08.204Z</time>
      </trkpt>
      <trkpt lat="47.440840" lon="8.130427">
        <ele>406.223837</ele>
        <time>2021-11-22T12:36:13.799Z</time>
      </trkpt>
      <trkpt lat="47.440840" lon="8.130492">
        <ele>406.199234</ele>
        <time>2021-11-22T12:36:14.825Z</time>
      </trkpt>
      <trkpt lat="47.440891" lon="8.130708">
        <ele>405.621804</ele>
        <time>2021-11-22T12:36:16.412Z</time>
      </trkpt>
      <trkpt lat="47.440943" lon="8.130809">
        <ele>405.301436</ele>
        <time>2021-11-22T12:36:17.340Z</time>
      </trkpt>
      <trkpt lat="47.440978" lon="8.130862">
        <ele>405.114481</ele>
        <time>2021-11-22T12:36:17.857Z</time>
      </trkpt>
      <trkpt lat="47.441000" lon="8.130897">
        <ele>404.993885</ele>
        <time>2021-11-22T12:36:18.178Z</time>
      </trkpt>
      <trkpt lat="47.441024" lon="8.130926">
        <ele>404.878221</ele>
        <time>2021-11-22T12:36:18.777Z</time>
      </trkpt>
      <trkpt lat="47.441088" lon="8.130997">
        <ele>404.579641</ele>
        <time>2021-11-22T12:36:19.528Z</time>
      </trkpt>
      <trkpt lat="47.441375" lon="8.131552">
        <ele>402.816363</ele>
        <time>2021-11-22T12:36:24.463Z</time>
      </trkpt>
      <trkpt lat="47.441442" lon="8.131718">
        <ele>402.328466</ele>
        <time>2021-11-22T12:36:25.738Z</time>
      </trkpt>
      <trkpt lat="47.441650" lon="8.132354">
        <ele>400.545464</ele>
        <time>2021-11-22T12:36:30.294Z</time>
      </trkpt>
      <trkpt lat="47.441777" lon="8.132790">
        <ele>399.268735</ele>
        <time>2021-11-22T12:36:33.249Z</time>
      </trkpt>
      <trkpt lat="47.442022" lon="8.133657">
        <ele>395.630599</ele>
        <time>2021-11-22T12:36:38.995Z</time>
      </trkpt>
      <trkpt lat="47.442150" lon="8.134033">
        <ele>394.000767</ele>
        <time>2021-11-22T12:36:41.575Z</time>
      </trkpt>
      <trkpt lat="47.442233" lon="8.134253">
        <ele>393.025397</ele>
        <time>2021-11-22T12:36:43.170Z</time>
      </trkpt>
      <trkpt lat="47.442302" lon="8.134411">
        <ele>392.297200</ele>
        <time>2021-11-22T12:36:44.321Z</time>
      </trkpt>
      <trkpt lat="47.442409" lon="8.134621">
        <ele>391.279200</ele>
        <time>2021-11-22T12:36:45.994Z</time>
      </trkpt>
      <trkpt lat="47.442543" lon="8.134882">
        <ele>390.010471</ele>
        <time>2021-11-22T12:36:48.041Z</time>
      </trkpt>
      <trkpt lat="47.442659" lon="8.135081">
        <ele>389.093447</ele>
        <time>2021-11-22T12:36:49.775Z</time>
      </trkpt>
      <trkpt lat="47.442771" lon="8.135257">
        <ele>388.616200</ele>
        <time>2021-11-22T12:36:51.301Z</time>
      </trkpt>
      <trkpt lat="47.443330" lon="8.135975">
        <ele>386.454047</ele>
        <time>2021-11-22T12:36:58.793Z</time>
      </trkpt>
      <trkpt lat="47.443600" lon="8.136309">
        <ele>385.426116</ele>
        <time>2021-11-22T12:37:02.618Z</time>
      </trkpt>
      <trkpt lat="47.443990" lon="8.137008">
        <ele>383.877039</ele>
        <time>2021-11-22T12:37:09.405Z</time>
      </trkpt>
      <trkpt lat="47.444358" lon="8.137486">
        <ele>383.559383</ele>
        <time>2021-11-22T12:37:15.230Z</time>
      </trkpt>
      <trkpt lat="47.444534" lon="8.137663">
        <ele>383.421348</ele>
        <time>2021-11-22T12:37:17.870Z</time>
      </trkpt>
      <trkpt lat="47.444695" lon="8.137798">
        <ele>383.301319</ele>
        <time>2021-11-22T12:37:20.195Z</time>
      </trkpt>
      <trkpt lat="47.444780" lon="8.137842">
        <ele>383.242915</ele>
        <time>2021-11-22T12:37:21.583Z</time>
      </trkpt>
      <trkpt lat="47.444873" lon="8.137885">
        <ele>383.179724</ele>
        <time>2021-11-22T12:37:22.770Z</time>
      </trkpt>
      <trkpt lat="47.445201" lon="8.137885">
        <ele>382.967014</ele>
        <time>2021-11-22T12:37:27.371Z</time>
      </trkpt>
      <trkpt lat="47.445264" lon="8.137860">
        <ele>382.924713</ele>
        <time>2021-11-22T12:37:28.100Z</time>
      </trkpt>
      <trkpt lat="47.445320" lon="8.137827">
        <ele>382.885618</ele>
        <time>2021-11-22T12:37:28.912Z</time>
      </trkpt>
      <trkpt lat="47.445372" lon="8.137789">
        <ele>382.848003</ele>
        <time>2021-11-22T12:37:29.781Z</time>
      </trkpt>
      <trkpt lat="47.445434" lon="8.137740">
        <ele>382.802412</ele>
        <time>2021-11-22T12:37:30.794Z</time>
      </trkpt>
      <trkpt lat="47.445479" lon="8.137706">
        <ele>382.782985</ele>
        <time>2021-11-22T12:37:31.930Z</time>
      </trkpt>
      <trkpt lat="47.445490" lon="8.137703">
        <ele>382.785800</ele>
        <time>2021-11-22T12:37:32.258Z</time>
      </trkpt>
      <trkpt lat="47.445854" lon="8.138048">
        <ele>382.894609</ele>
        <time>2021-11-22T12:37:40.962Z</time>
      </trkpt>
      <trkpt lat="47.446288" lon="8.139006">
        <ele>383.090858</ele>
        <time>2021-11-22T12:37:54.694Z</time>
      </trkpt>
      <trkpt lat="47.446353" lon="8.139246">
        <ele>383.134859</ele>
        <time>2021-11-22T12:37:57.501Z</time>
      </trkpt>
      <trkpt lat="47.446467" lon="8.139635">
        <ele>383.207013</ele>
        <time>2021-11-22T12:38:01.686Z</time>
      </trkpt>
      <trkpt lat="47.446649" lon="8.140082">
        <ele>382.849074</ele>
        <time>2021-11-22T12:38:06.033Z</time>
      </trkpt>
      <trkpt lat="47.446741" lon="8.140284">
        <ele>382.600780</ele>
        <time>2021-11-22T12:38:07.553Z</time>
      </trkpt>
      <trkpt lat="47.446786" lon="8.140421">
        <ele>382.445502</ele>
        <time>2021-11-22T12:38:10.753Z</time>
      </trkpt>
      <trkpt lat="47.446968" lon="8.141232">
        <ele>381.574332</ele>
        <time>2021-11-22T12:38:17.431Z</time>
      </trkpt>
      <trkpt lat="47.446964" lon="8.141309">
        <ele>381.495598</ele>
        <time>2021-11-22T12:38:17.871Z</time>
      </trkpt>
      <trkpt lat="47.447002" lon="8.141359">
        <ele>381.418914</ele>
        <time>2021-11-22T12:38:19.691Z</time>
      </trkpt>
      <trkpt lat="47.447019" lon="8.141408">
        <ele>381.362767</ele>
        <time>2021-11-22T12:38:21.423Z</time>
      </trkpt>
      <trkpt lat="47.447036" lon="8.141500">
        <ele>381.265533</ele>
        <time>2021-11-22T12:38:23.200Z</time>
      </trkpt>
      <trkpt lat="47.447146" lon="8.142030">
        <ele>380.700313</ele>
        <time>2021-11-22T12:38:27.228Z</time>
      </trkpt>
      <trkpt lat="47.447326" lon="8.142499">
        <ele>379.996987</ele>
        <time>2021-11-22T12:38:31.014Z</time>
      </trkpt>
      <trkpt lat="47.447487" lon="8.142754">
        <ele>379.493657</ele>
        <time>2021-11-22T12:38:33.381Z</time>
      </trkpt>
      <trkpt lat="47.447685" lon="8.143057">
        <ele>378.885747</ele>
        <time>2021-11-22T12:38:36.331Z</time>
      </trkpt>
      <trkpt lat="47.447749" lon="8.143138">
        <ele>378.706023</ele>
        <time>2021-11-22T12:38:37.108Z</time>
      </trkpt>
      <trkpt lat="47.447844" lon="8.143229">
        <ele>378.464535</ele>
        <time>2021-11-22T12:38:38.848Z</time>
      </trkpt>
      <trkpt lat="47.448758" lon="8.144072">
        <ele>376.154898</ele>
        <time>2021-11-22T12:38:51.191Z</time>
      </trkpt>
      <trkpt lat="47.448825" lon="8.144132">
        <ele>375.984086</ele>
        <time>2021-11-22T12:38:51.908Z</time>
      </trkpt>
      <trkpt lat="47.448865" lon="8.144173">
        <ele>375.877951</ele>
        <time>2021-11-22T12:38:52.514Z</time>
      </trkpt>
      <trkpt lat="47.449158" lon="8.144473">
        <ele>375.100785</ele>
        <time>2021-11-22T12:38:56.637Z</time>
      </trkpt>
      <trkpt lat="47.449371" lon="8.144692">
        <ele>374.535050</ele>
        <time>2021-11-22T12:38:59.558Z</time>
      </trkpt>
      <trkpt lat="47.450088" lon="8.145488">
        <ele>372.611761</ele>
        <time>2021-11-22T12:39:08.798Z</time>
      </trkpt>
      <trkpt lat="47.450183" lon="8.145603">
        <ele>372.391243</ele>
        <time>2021-11-22T12:39:10.190Z</time>
      </trkpt>
      <trkpt lat="47.450458" lon="8.145913">
        <ele>371.770145</ele>
        <time>2021-11-22T12:39:14.062Z</time>
      </trkpt>
      <trkpt lat="47.450543" lon="8.146003">
        <ele>371.582370</ele>
        <time>2021-11-22T12:39:15.289Z</time>
      </trkpt>
      <trkpt lat="47.450606" lon="8.146053">
        <ele>371.453944</ele>
        <time>2021-11-22T12:39:16.038Z</time>
      </trkpt>
      <trkpt lat="47.450734" lon="8.146121">
        <ele>371.209648</ele>
        <time>2021-11-22T12:39:17.553Z</time>
      </trkpt>
      <trkpt lat="47.451190" lon="8.146311">
        <ele>370.358701</ele>
        <time>2021-11-22T12:39:22.904Z</time>
      </trkpt>
      <trkpt lat="47.451243" lon="8.146335">
        <ele>370.259141</ele>
        <time>2021-11-22T12:39:23.516Z</time>
      </trkpt>
      <trkpt lat="47.451634" lon="8.146522">
        <ele>369.527961</ele>
        <time>2021-11-22T12:39:28.198Z</time>
      </trkpt>
      <trkpt lat="47.451691" lon="8.146552">
        <ele>369.503317</ele>
        <time>2021-11-22T12:39:28.899Z</time>
      </trkpt>
      <trkpt lat="47.451884" lon="8.146651">
        <ele>369.420110</ele>
        <time>2021-11-22T12:39:31.512Z</time>
      </trkpt>
      <trkpt lat="47.452108" lon="8.146759">
        <ele>369.324145</ele>
        <time>2021-11-22T12:39:34.337Z</time>
      </trkpt>
      <trkpt lat="47.452355" lon="8.146865">
        <ele>369.219388</ele>
        <time>2021-11-22T12:39:37.882Z</time>
      </trkpt>
      <trkpt lat="47.452471" lon="8.146900">
        <ele>369.171166</ele>
        <time>2021-11-22T12:39:39.488Z</time>
      </trkpt>
      <trkpt lat="47.453008" lon="8.146983">
        <ele>368.951246</ele>
        <time>2021-11-22T12:39:50.148Z</time>
      </trkpt>
      <trkpt lat="47.453891" lon="8.147120">
        <ele>368.752272</ele>
        <time>2021-11-22T12:40:08.868Z</time>
      </trkpt>
      <trkpt lat="47.454769" lon="8.147346">
        <ele>368.673463</ele>
        <time>2021-11-22T12:40:27.298Z</time>
      </trkpt>
      <trkpt lat="47.455324" lon="8.147772">
        <ele>368.359217</ele>
        <time>2021-11-22T12:40:38.797Z</time>
      </trkpt>
      <trkpt lat="47.455490" lon="8.147964">
        <ele>368.101181</ele>
        <time>2021-11-22T12:40:42.449Z</time>
      </trkpt>
      <trkpt lat="47.455738" lon="8.148275">
        <ele>367.703048</ele>
        <time>2021-11-22T12:40:48.031Z</time>
      </trkpt>
      <trkpt lat="47.455947" lon="8.148517">
        <ele>367.378036</ele>
        <time>2021-11-22T12:40:52.493Z</time>
      </trkpt>
      <trkpt lat="47.457506" lon="8.150399">
        <ele>364.523067</ele>
        <time>2021-11-22T12:41:25.154Z</time>
      </trkpt>
      <trkpt lat="47.457836" lon="8.150781">
        <ele>363.878173</ele>
        <time>2021-11-22T12:41:32.100Z</time>
      </trkpt>
      <trkpt lat="47.458407" lon="8.151402">
        <ele>363.012519</ele>
        <time>2021-11-22T12:41:44.116Z</time>
      </trkpt>
      <trkpt lat="47.458656" lon="8.151660">
        <ele>362.664234</ele>
        <time>2021-11-22T12:41:49.292Z</time>
      </trkpt>
      <trkpt lat="47.459084" lon="8.152051">
        <ele>362.087934</ele>
        <time>2021-11-22T12:41:57.834Z</time>
      </trkpt>
      <trkpt lat="47.459515" lon="8.152425">
        <ele>361.567572</ele>
        <time>2021-11-22T12:42:06.576Z</time>
      </trkpt>
      <trkpt lat="47.459675" lon="8.152551">
        <ele>361.477436</ele>
        <time>2021-11-22T12:42:09.732Z</time>
      </trkpt>
      <trkpt lat="47.459982" lon="8.152791">
        <ele>361.304766</ele>
        <time>2021-11-22T12:42:15.856Z</time>
      </trkpt>
      <trkpt lat="47.460121" lon="8.152908">
        <ele>361.225238</ele>
        <time>2021-11-22T12:42:18.697Z</time>
      </trkpt>
      <trkpt lat="47.460799" lon="8.153695">
        <ele>360.796671</ele>
        <time>2021-11-22T12:42:35.092Z</time>
      </trkpt>
      <trkpt lat="47.460950" lon="8.153828">
        <ele>360.712966</ele>
        <time>2021-11-22T12:42:38.458Z</time>
      </trkpt>
      <trkpt lat="47.461918" lon="8.154537">
        <ele>360.689341</ele>
        <time>2021-11-22T12:43:01.472Z</time>
      </trkpt>
      <trkpt lat="47.462115" lon="8.154655">
        <ele>360.684692</ele>
        <time>2021-11-22T12:43:06.071Z</time>
      </trkpt>
      <trkpt lat="47.462631" lon="8.155072">
        <ele>360.489805</ele>
        <time>2021-11-22T12:43:17.676Z</time>
      </trkpt>
      <trkpt lat="47.462726" lon="8.155178">
        <ele>360.246062</ele>
        <time>2021-11-22T12:43:19.835Z</time>
      </trkpt>
      <trkpt lat="47.462758" lon="8.155215">
        <ele>360.162867</ele>
        <time>2021-11-22T12:43:20.575Z</time>
      </trkpt>
      <trkpt lat="47.462875" lon="8.155357">
        <ele>359.852869</ele>
        <time>2021-11-22T12:43:22.374Z</time>
      </trkpt>
      <trkpt lat="47.463046" lon="8.155599">
        <ele>359.368119</ele>
        <time>2021-11-22T12:43:25.134Z</time>
      </trkpt>
      <trkpt lat="47.463208" lon="8.155947">
        <ele>358.783024</ele>
        <time>2021-11-22T12:43:28.311Z</time>
      </trkpt>
      <trkpt lat="47.463331" lon="8.156255">
        <ele>358.287662</ele>
        <time>2021-11-22T12:43:30.824Z</time>
      </trkpt>
      <trkpt lat="47.463358" lon="8.156322">
        <ele>358.179650</ele>
        <time>2021-11-22T12:43:31.364Z</time>
      </trkpt>
      <trkpt lat="47.463374" lon="8.156375">
        <ele>358.099273</ele>
        <time>2021-11-22T12:43:31.779Z</time>
      </trkpt>
      <trkpt lat="47.463406" lon="8.156485">
        <ele>357.933445</ele>
        <time>2021-11-22T12:43:32.614Z</time>
      </trkpt>
      <trkpt lat="47.463437" lon="8.156620">
        <ele>357.736012</ele>
        <time>2021-11-22T12:43:33.560Z</time>
      </trkpt>
      <trkpt lat="47.463451" lon="8.156786">
        <ele>357.504359</ele>
        <time>2021-11-22T12:43:34.723Z</time>
      </trkpt>
      <trkpt lat="47.463453" lon="8.156994">
        <ele>357.216299</ele>
        <time>2021-11-22T12:43:36.149Z</time>
      </trkpt>
      <trkpt lat="47.463449" lon="8.157173">
        <ele>356.966213</ele>
        <time>2021-11-22T12:43:37.328Z</time>
      </trkpt>
      <trkpt lat="47.463437" lon="8.157404">
        <ele>356.614201</ele>
        <time>2021-11-22T12:43:38.910Z</time>
      </trkpt>
      <trkpt lat="47.463435" lon="8.157494">
        <ele>356.477382</ele>
        <time>2021-11-22T12:43:39.526Z</time>
      </trkpt>
      <trkpt lat="47.463431" lon="8.157928">
        <ele>355.817907</ele>
        <time>2021-11-22T12:43:42.499Z</time>
      </trkpt>
      <trkpt lat="47.463441" lon="8.158126">
        <ele>355.516231</ele>
        <time>2021-11-22T12:43:43.890Z</time>
      </trkpt>
      <trkpt lat="47.463459" lon="8.158318">
        <ele>355.221717</ele>
        <time>2021-11-22T12:43:45.225Z</time>
      </trkpt>
      <trkpt lat="47.463494" lon="8.158650">
        <ele>354.711186</ele>
        <time>2021-11-22T12:43:47.662Z</time>
      </trkpt>
      <trkpt lat="47.463576" lon="8.159259">
        <ele>353.767709</ele>
        <time>2021-11-22T12:43:52.269Z</time>
      </trkpt>
      <trkpt lat="47.463575" lon="8.159344">
        <ele>353.638542</ele>
        <time>2021-11-22T12:43:52.906Z</time>
      </trkpt>
      <trkpt lat="47.463535" lon="8.159478">
        <ele>353.415981</ele>
        <time>2021-11-22T12:43:54.096Z</time>
      </trkpt>
      <trkpt lat="47.463727" lon="8.159750">
        <ele>352.976887</ele>
        <time>2021-11-22T12:43:57.309Z</time>
      </trkpt>
      <trkpt lat="47.464091" lon="8.160172">
        <ele>353.214951</ele>
        <time>2021-11-22T12:44:03.695Z</time>
      </trkpt>
      <trkpt lat="47.464241" lon="8.160297">
        <ele>353.303574</ele>
        <time>2021-11-22T12:44:06.652Z</time>
      </trkpt>
      <trkpt lat="47.464401" lon="8.160419">
        <ele>353.396233</ele>
        <time>2021-11-22T12:44:09.797Z</time>
      </trkpt>
      <trkpt lat="47.464402" lon="8.160419">
        <ele>353.396748</ele>
        <time>2021-11-22T12:44:09.822Z</time>
      </trkpt>
      <trkpt lat="47.464571" lon="8.160519">
        <ele>353.490443</ele>
        <time>2021-11-22T12:44:13.400Z</time>
      </trkpt>
      <trkpt lat="47.464837" lon="8.160646">
        <ele>353.634323</ele>
        <time>2021-11-22T12:44:18.957Z</time>
      </trkpt>
      <trkpt lat="47.464997" lon="8.160739">
        <ele>353.722814</ele>
        <time>2021-11-22T12:44:22.532Z</time>
      </trkpt>
      <trkpt lat="47.465263" lon="8.160874">
        <ele>353.867573</ele>
        <time>2021-11-22T12:44:28.071Z</time>
      </trkpt>
      <trkpt lat="47.465513" lon="8.161012">
        <ele>354.127599</ele>
        <time>2021-11-22T12:44:33.405Z</time>
      </trkpt>
      <trkpt lat="47.465742" lon="8.161135">
        <ele>354.369814</ele>
        <time>2021-11-22T12:44:38.359Z</time>
      </trkpt>
      <trkpt lat="47.466049" lon="8.161288">
        <ele>354.691888</ele>
        <time>2021-11-22T12:44:44.424Z</time>
      </trkpt>
      <trkpt lat="47.466606" lon="8.161586">
        <ele>355.280760</ele>
        <time>2021-11-22T12:44:54.975Z</time>
      </trkpt>
      <trkpt lat="47.466809" lon="8.161700">
        <ele>355.496635</ele>
        <time>2021-11-22T12:44:58.770Z</time>
      </trkpt>
      <trkpt lat="47.466897" lon="8.161739">
        <ele>355.587966</ele>
        <time>2021-11-22T12:45:00.592Z</time>
      </trkpt>
      <trkpt lat="47.467007" lon="8.161797">
        <ele>355.692505</ele>
        <time>2021-11-22T12:45:02.717Z</time>
      </trkpt>
      <trkpt lat="47.467139" lon="8.161863">
        <ele>355.793472</ele>
        <time>2021-11-22T12:45:05.216Z</time>
      </trkpt>
      <trkpt lat="47.467266" lon="8.161918">
        <ele>355.889363</ele>
        <time>2021-11-22T12:45:07.834Z</time>
      </trkpt>
      <trkpt lat="47.467403" lon="8.161980">
        <ele>355.993179</ele>
        <time>2021-11-22T12:45:10.489Z</time>
      </trkpt>
      <trkpt lat="47.468105" lon="8.162227">
        <ele>356.516061</ele>
        <time>2021-11-22T12:45:23.807Z</time>
      </trkpt>
      <trkpt lat="47.468199" lon="8.162263">
        <ele>356.586422</ele>
        <time>2021-11-22T12:45:25.411Z</time>
      </trkpt>
      <trkpt lat="47.468278" lon="8.162300">
        <ele>356.646468</ele>
        <time>2021-11-22T12:45:26.984Z</time>
      </trkpt>
      <trkpt lat="47.468573" lon="8.162469">
        <ele>356.875704</ele>
        <time>2021-11-22T12:45:32.405Z</time>
      </trkpt>
      <trkpt lat="47.468812" lon="8.162640">
        <ele>356.927644</ele>
        <time>2021-11-22T12:45:36.874Z</time>
      </trkpt>
      <trkpt lat="47.468949" lon="8.162736">
        <ele>356.888163</ele>
        <time>2021-11-22T12:45:38.884Z</time>
      </trkpt>
      <trkpt lat="47.469024" lon="8.162801">
        <ele>356.865525</ele>
        <time>2021-11-22T12:45:40.280Z</time>
      </trkpt>
      <trkpt lat="47.469218" lon="8.163000">
        <ele>356.804041</ele>
        <time>2021-11-22T12:45:43.577Z</time>
      </trkpt>
      <trkpt lat="47.469385" lon="8.163184">
        <ele>356.749810</ele>
        <time>2021-11-22T12:45:47.077Z</time>
      </trkpt>
      <trkpt lat="47.469504" lon="8.163311">
        <ele>356.711594</ele>
        <time>2021-11-22T12:45:48.999Z</time>
      </trkpt>
      <trkpt lat="47.470057" lon="8.163889">
        <ele>356.535250</ele>
        <time>2021-11-22T12:45:58.392Z</time>
      </trkpt>
      <trkpt lat="47.470101" lon="8.163935">
        <ele>356.521218</ele>
        <time>2021-11-22T12:45:58.942Z</time>
      </trkpt>
      <trkpt lat="47.470281" lon="8.164129">
        <ele>356.251354</ele>
        <time>2021-11-22T12:46:01.865Z</time>
      </trkpt>
      <trkpt lat="47.470384" lon="8.164260">
        <ele>355.989681</ele>
        <time>2021-11-22T12:46:03.322Z</time>
      </trkpt>
      <trkpt lat="47.470426" lon="8.164313">
        <ele>355.883333</ele>
        <time>2021-11-22T12:46:04.000Z</time>
      </trkpt>
      <trkpt lat="47.470550" lon="8.164436">
        <ele>355.595725</ele>
        <time>2021-11-22T12:46:05.836Z</time>
      </trkpt>
      <trkpt lat="47.471054" lon="8.164977">
        <ele>354.396138</ele>
        <time>2021-11-22T12:46:12.654Z</time>
      </trkpt>
      <trkpt lat="47.471193" lon="8.165194">
        <ele>354.006839</ele>
        <time>2021-11-22T12:46:14.852Z</time>
      </trkpt>
      <trkpt lat="47.471273" lon="8.165343">
        <ele>353.759052</ele>
        <time>2021-11-22T12:46:16.192Z</time>
      </trkpt>
      <trkpt lat="47.471314" lon="8.165430">
        <ele>353.620946</ele>
        <time>2021-11-22T12:46:17.002Z</time>
      </trkpt>
      <trkpt lat="47.471485" lon="8.165795">
        <ele>353.042648</ele>
        <time>2021-11-22T12:46:20.155Z</time>
      </trkpt>
      <trkpt lat="47.471637" lon="8.166140">
        <ele>352.345003</ele>
        <time>2021-11-22T12:46:23.047Z</time>
      </trkpt>
      <trkpt lat="47.471739" lon="8.166341">
        <ele>351.917098</ele>
        <time>2021-11-22T12:46:24.843Z</time>
      </trkpt>
      <trkpt lat="47.471800" lon="8.166447">
        <ele>351.680091</ele>
        <time>2021-11-22T12:46:25.785Z</time>
      </trkpt>
      <trkpt lat="47.472023" lon="8.166799">
        <ele>350.858750</ele>
        <time>2021-11-22T12:46:29.156Z</time>
      </trkpt>
      <trkpt lat="47.472230" lon="8.167059">
        <ele>350.174822</ele>
        <time>2021-11-22T12:46:32.027Z</time>
      </trkpt>
      <trkpt lat="47.472348" lon="8.167193">
        <ele>349.800157</ele>
        <time>2021-11-22T12:46:33.530Z</time>
      </trkpt>
      <trkpt lat="47.472433" lon="8.167289">
        <ele>349.530815</ele>
        <time>2021-11-22T12:46:34.694Z</time>
      </trkpt>
      <trkpt lat="47.472552" lon="8.167429">
        <ele>349.147876</ele>
        <time>2021-11-22T12:46:36.297Z</time>
      </trkpt>
      <trkpt lat="47.472685" lon="8.167581">
        <ele>348.724581</ele>
        <time>2021-11-22T12:46:38.109Z</time>
      </trkpt>
      <trkpt lat="47.472797" lon="8.167699">
        <ele>348.437005</ele>
        <time>2021-11-22T12:46:39.640Z</time>
      </trkpt>
      <trkpt lat="47.472952" lon="8.167862">
        <ele>348.186934</ele>
        <time>2021-11-22T12:46:41.710Z</time>
      </trkpt>
      <trkpt lat="47.473013" lon="8.167869">
        <ele>348.106478</ele>
        <time>2021-11-22T12:46:42.753Z</time>
      </trkpt>
      <trkpt lat="47.473053" lon="8.167881">
        <ele>348.052807</ele>
        <time>2021-11-22T12:46:43.443Z</time>
      </trkpt>
      <trkpt lat="47.473133" lon="8.168000">
        <ele>347.903626</ele>
        <time>2021-11-22T12:46:45.227Z</time>
      </trkpt>
      <trkpt lat="47.473426" lon="8.168527">
        <ele>347.297101</ele>
        <time>2021-11-22T12:46:52.937Z</time>
      </trkpt>
      <trkpt lat="47.473676" lon="8.168976">
        <ele>346.780042</ele>
        <time>2021-11-22T12:46:59.718Z</time>
      </trkpt>
      <trkpt lat="47.473803" lon="8.169285">
        <ele>346.458600</ele>
        <time>2021-11-22T12:47:04.010Z</time>
      </trkpt>
      <trkpt lat="47.474047" lon="8.169957">
        <ele>345.919980</ele>
        <time>2021-11-22T12:47:13.271Z</time>
      </trkpt>
      <trkpt lat="47.474153" lon="8.170275">
        <ele>345.728451</ele>
        <time>2021-11-22T12:47:17.610Z</time>
      </trkpt>
      <trkpt lat="47.474221" lon="8.170494">
        <ele>345.598266</ele>
        <time>2021-11-22T12:47:20.489Z</time>
      </trkpt>
      <trkpt lat="47.474539" lon="8.171563">
        <ele>344.967367</ele>
        <time>2021-11-22T12:47:34.577Z</time>
      </trkpt>
      <trkpt lat="47.474901" lon="8.173178">
        <ele>344.150758</ele>
        <time>2021-11-22T12:47:54.864Z</time>
      </trkpt>
      <trkpt lat="47.475162" lon="8.173896">
        <ele>343.779792</ele>
        <time>2021-11-22T12:48:04.904Z</time>
      </trkpt>
      <trkpt lat="47.475271" lon="8.174227">
        <ele>343.612252</ele>
        <time>2021-11-22T12:48:09.473Z</time>
      </trkpt>
      <trkpt lat="47.475282" lon="8.174260">
        <ele>343.595509</ele>
        <time>2021-11-22T12:48:09.878Z</time>
      </trkpt>
      <trkpt lat="47.475523" lon="8.175441">
        <ele>343.282242</ele>
        <time>2021-11-22T12:48:25.560Z</time>
      </trkpt>
      <trkpt lat="47.475739" lon="8.177191">
        <ele>342.925389</ele>
        <time>2021-11-22T12:48:49.093Z</time>
      </trkpt>
      <trkpt lat="47.475956" lon="8.178133">
        <ele>342.805520</ele>
        <time>2021-11-22T12:49:02.233Z</time>
      </trkpt>
      <trkpt lat="47.476282" lon="8.179102">
        <ele>342.675150</ele>
        <time>2021-11-22T12:49:16.807Z</time>
      </trkpt>
      <trkpt lat="47.476781" lon="8.180127">
        <ele>342.428986</ele>
        <time>2021-11-22T12:49:32.831Z</time>
      </trkpt>
      <trkpt lat="47.476918" lon="8.180357">
        <ele>342.355769</ele>
        <time>2021-11-22T12:49:36.957Z</time>
      </trkpt>
      <trkpt lat="47.477082" lon="8.180599">
        <ele>342.273925</ele>
        <time>2021-11-22T12:49:41.092Z</time>
      </trkpt>
      <trkpt lat="47.478429" lon="8.182558">
        <ele>342.431282</ele>
        <time>2021-11-22T12:50:17.352Z</time>
      </trkpt>
      <trkpt lat="47.479213" lon="8.184106">
        <ele>343.662138</ele>
        <time>2021-11-22T12:50:51.138Z</time>
      </trkpt>
      <trkpt lat="47.479295" lon="8.184300">
        <ele>343.910503</ele>
        <time>2021-11-22T12:50:55.509Z</time>
      </trkpt>
      <trkpt lat="47.479468" lon="8.184722">
        <ele>344.446236</ele>
        <time>2021-11-22T12:51:04.835Z</time>
      </trkpt>
      <trkpt lat="47.479933" lon="8.185831">
        <ele>345.807375</ele>
        <time>2021-11-22T12:51:27.916Z</time>
      </trkpt>
      <trkpt lat="47.479942" lon="8.185960">
        <ele>345.914884</ele>
        <time>2021-11-22T12:51:30.912Z</time>
      </trkpt>
      <trkpt lat="47.480028" lon="8.186146">
        <ele>346.101709</ele>
        <time>2021-11-22T12:51:33.577Z</time>
      </trkpt>
      <trkpt lat="47.480145" lon="8.186350">
        <ele>346.323511</ele>
        <time>2021-11-22T12:51:37.790Z</time>
      </trkpt>
      <trkpt lat="47.480217" lon="8.186474">
        <ele>346.459034</ele>
        <time>2021-11-22T12:51:39.833Z</time>
      </trkpt>
      <trkpt lat="47.480420" lon="8.186745">
        <ele>346.794403</ele>
        <time>2021-11-22T12:51:45.578Z</time>
      </trkpt>
      <trkpt lat="47.480560" lon="8.186929">
        <ele>347.024091</ele>
        <time>2021-11-22T12:51:48.600Z</time>
      </trkpt>
      <trkpt lat="47.480690" lon="8.187084">
        <ele>347.228878</ele>
        <time>2021-11-22T12:51:52.250Z</time>
      </trkpt>
      <trkpt lat="47.480780" lon="8.187172">
        <ele>347.361198</ele>
        <time>2021-11-22T12:51:53.694Z</time>
      </trkpt>
      <trkpt lat="47.480852" lon="8.187252">
        <ele>347.471642</ele>
        <time>2021-11-22T12:51:55.338Z</time>
      </trkpt>
      <trkpt lat="47.481193" lon="8.187591">
        <ele>348.016876</ele>
        <time>2021-11-22T12:52:03.100Z</time>
      </trkpt>
      <trkpt lat="47.481292" lon="8.187686">
        <ele>348.203968</ele>
        <time>2021-11-22T12:52:05.544Z</time>
      </trkpt>
      <trkpt lat="47.481382" lon="8.187787">
        <ele>348.383070</ele>
        <time>2021-11-22T12:52:07.142Z</time>
      </trkpt>
      <trkpt lat="47.481424" lon="8.187833">
        <ele>348.465922</ele>
        <time>2021-11-22T12:52:08.196Z</time>
      </trkpt>
      <trkpt lat="47.481651" lon="8.188249">
        <ele>349.038865</ele>
        <time>2021-11-22T12:52:15.711Z</time>
      </trkpt>
      <trkpt lat="47.481685" lon="8.188343">
        <ele>349.153112</ele>
        <time>2021-11-22T12:52:17.397Z</time>
      </trkpt>
      <trkpt lat="47.481788" lon="8.188778">
        <ele>349.647027</ele>
        <time>2021-11-22T12:52:23.717Z</time>
      </trkpt>
      <trkpt lat="47.481812" lon="8.188865">
        <ele>349.747721</ele>
        <time>2021-11-22T12:52:25.270Z</time>
      </trkpt>
      <trkpt lat="47.481839" lon="8.188968">
        <ele>349.866105</ele>
        <time>2021-11-22T12:52:27.138Z</time>
      </trkpt>
      <trkpt lat="47.481979" lon="8.189239">
        <ele>350.231625</ele>
        <time>2021-11-22T12:52:31.570Z</time>
      </trkpt>
      <trkpt lat="47.482019" lon="8.189306">
        <ele>350.327421</ele>
        <time>2021-11-22T12:52:33.345Z</time>
      </trkpt>
      <trkpt lat="47.482064" lon="8.189374">
        <ele>350.429404</ele>
        <time>2021-11-22T12:52:35.186Z</time>
      </trkpt>
      <trkpt lat="47.482198" lon="8.189576">
        <ele>350.776561</ele>
        <time>2021-11-22T12:52:39.651Z</time>
      </trkpt>
      <trkpt lat="47.482387" lon="8.189878">
        <ele>351.633831</ele>
        <time>2021-11-22T12:52:45.930Z</time>
      </trkpt>
      <trkpt lat="47.482486" lon="8.190057">
        <ele>352.115578</ele>
        <time>2021-11-22T12:52:50.439Z</time>
      </trkpt>
      <trkpt lat="47.482572" lon="8.190217">
        <ele>352.541367</ele>
        <time>2021-11-22T12:52:53.893Z</time>
      </trkpt>
      <trkpt lat="47.482607" lon="8.190286">
        <ele>352.721055</ele>
        <time>2021-11-22T12:52:55.166Z</time>
      </trkpt>
      <trkpt lat="47.482743" lon="8.190529">
        <ele>353.378185</ele>
        <time>2021-11-22T12:53:01.086Z</time>
      </trkpt>
      <trkpt lat="47.482845" lon="8.190599">
        <ele>353.724698</ele>
        <time>2021-11-22T12:53:03.940Z</time>
      </trkpt>
      <trkpt lat="47.482867" lon="8.190600">
        <ele>353.792531</ele>
        <time>2021-11-22T12:53:04.325Z</time>
      </trkpt>
      <trkpt lat="47.482872" lon="8.190636">
        <ele>353.869077</ele>
        <time>2021-11-22T12:53:05.152Z</time>
      </trkpt>
      <trkpt lat="47.482949" lon="8.190712">
        <ele>354.154328</ele>
        <time>2021-11-22T12:53:08.010Z</time>
      </trkpt>
      <trkpt lat="47.482973" lon="8.190705">
        <ele>354.229716</ele>
        <time>2021-11-22T12:53:08.625Z</time>
      </trkpt>
      <trkpt lat="47.482993" lon="8.190689">
        <ele>354.299785</ele>
        <time>2021-11-22T12:53:09.493Z</time>
      </trkpt>
      <trkpt lat="47.483025" lon="8.190604">
        <ele>354.502434</ele>
        <time>2021-11-22T12:53:11.144Z</time>
      </trkpt>
      <trkpt lat="47.483023" lon="8.190571">
        <ele>354.571440</ele>
        <time>2021-11-22T12:53:11.904Z</time>
      </trkpt>
      <trkpt lat="47.483016" lon="8.190541">
        <ele>354.637542</ele>
        <time>2021-11-22T12:53:12.337Z</time>
      </trkpt>
      <trkpt lat="47.482967" lon="8.190482">
        <ele>354.832233</ele>
        <time>2021-11-22T12:53:13.919Z</time>
      </trkpt>
      <trkpt lat="47.482945" lon="8.190478">
        <ele>354.900543</ele>
        <time>2021-11-22T12:53:14.336Z</time>
      </trkpt>
      <trkpt lat="47.482944" lon="8.190385">
        <ele>355.094264</ele>
        <time>2021-11-22T12:53:16.738Z</time>
      </trkpt>
      <trkpt lat="47.482943" lon="8.190344">
        <ele>355.179712</ele>
        <time>2021-11-22T12:53:17.653Z</time>
      </trkpt>
      <trkpt lat="47.482930" lon="8.189498">
        <ele>357.428645</ele>
        <time>2021-11-22T12:53:33.999Z</time>
      </trkpt>
      <trkpt lat="47.482931" lon="8.189437">
        <ele>357.642467</ele>
        <time>2021-11-22T12:53:35.335Z</time>
      </trkpt>
      <trkpt lat="47.482934" lon="8.189340">
        <ele>357.982736</ele>
        <time>2021-11-22T12:53:37.732Z</time>
      </trkpt>
      <trkpt lat="47.482943" lon="8.188839">
        <ele>359.738987</ele>
        <time>2021-11-22T12:53:49.231Z</time>
      </trkpt>
      <trkpt lat="47.482956" lon="8.187807">
        <ele>363.356005</ele>
        <time>2021-11-22T12:54:14.371Z</time>
      </trkpt>
      <trkpt lat="47.482953" lon="8.187593">
        <ele>364.106077</ele>
        <time>2021-11-22T12:54:20.611Z</time>
      </trkpt>
      <trkpt lat="47.482951" lon="8.187188">
        <ele>365.525337</ele>
        <time>2021-11-22T12:54:31.751Z</time>
      </trkpt>
      <trkpt lat="47.482934" lon="8.186840">
        <ele>366.918748</ele>
        <time>2021-11-22T12:54:41.117Z</time>
      </trkpt>
      <trkpt lat="47.482902" lon="8.186578">
        <ele>367.985366</ele>
        <time>2021-11-22T12:54:48.918Z</time>
      </trkpt>
      <trkpt lat="47.482854" lon="8.186196">
        <ele>369.541949</ele>
        <time>2021-11-22T12:54:58.534Z</time>
      </trkpt>
      <trkpt lat="47.482841" lon="8.186124">
        <ele>369.840510</ele>
        <time>2021-11-22T12:55:01.257Z</time>
      </trkpt>
      <trkpt lat="47.482827" lon="8.186042">
        <ele>370.179337</ele>
        <time>2021-11-22T12:55:03.677Z</time>
      </trkpt>
      <trkpt lat="47.482775" lon="8.185779">
        <ele>371.277127</ele>
        <time>2021-11-22T12:55:10.097Z</time>
      </trkpt>
      <trkpt lat="47.482766" lon="8.185743">
        <ele>371.430901</ele>
        <time>2021-11-22T12:55:11.204Z</time>
      </trkpt>
      <trkpt lat="47.482705" lon="8.185476">
        <ele>372.560018</ele>
        <time>2021-11-22T12:55:18.702Z</time>
      </trkpt>
      <trkpt lat="47.482596" lon="8.185042">
        <ele>374.414883</ele>
        <time>2021-11-22T12:55:29.798Z</time>
      </trkpt>
      <trkpt lat="47.482617" lon="8.185031">
        <ele>374.546940</ele>
        <time>2021-11-22T12:55:30.755Z</time>
      </trkpt>
      <trkpt lat="47.482657" lon="8.184949">
        <ele>374.952084</ele>
        <time>2021-11-22T12:55:32.466Z</time>
      </trkpt>
      <trkpt lat="47.482658" lon="8.184915">
        <ele>375.088423</ele>
        <time>2021-11-22T12:55:33.419Z</time>
      </trkpt>
      <trkpt lat="47.482698" lon="8.184890">
        <ele>375.345825</ele>
        <time>2021-11-22T12:55:34.658Z</time>
      </trkpt>
      <trkpt lat="47.482741" lon="8.184879">
        <ele>375.604508</ele>
        <time>2021-11-22T12:55:36.072Z</time>
      </trkpt>
      <trkpt lat="47.482780" lon="8.184888">
        <ele>375.838492</ele>
        <time>2021-11-22T12:55:36.987Z</time>
      </trkpt>
      <trkpt lat="47.483217" lon="8.185699">
        <ele>379.977590</ele>
        <time>2021-11-22T12:56:06.874Z</time>
      </trkpt>
      <trkpt lat="47.483305" lon="8.185862">
        <ele>380.809784</ele>
        <time>2021-11-22T12:56:12.262Z</time>
      </trkpt>
      <trkpt lat="47.483545" lon="8.186425">
        <ele>383.464997</ele>
        <time>2021-11-22T12:56:31.075Z</time>
      </trkpt>
      <trkpt lat="47.483714" lon="8.186627">
        <ele>384.747293</ele>
        <time>2021-11-22T12:56:38.503Z</time>
      </trkpt>
      <trkpt lat="47.483816" lon="8.186677">
        <ele>385.381521</ele>
        <time>2021-11-22T12:56:42.628Z</time>
      </trkpt>
      <trkpt lat="47.483906" lon="8.186674">
        <ele>385.912878</ele>
        <time>2021-11-22T12:56:45.857Z</time>
      </trkpt>
      <trkpt lat="47.484108" lon="8.186629">
        <ele>386.998592</ele>
        <time>2021-11-22T12:56:52.484Z</time>
      </trkpt>
      <trkpt lat="47.484330" lon="8.186531">
        <ele>387.788262</ele>
        <time>2021-11-22T12:57:00.858Z</time>
      </trkpt>
      <trkpt lat="47.484495" lon="8.186468">
        <ele>388.369107</ele>
        <time>2021-11-22T12:57:06.348Z</time>
      </trkpt>
      <trkpt lat="47.484801" lon="8.186390">
        <ele>389.427509</ele>
        <time>2021-11-22T12:57:16.435Z</time>
      </trkpt>
      <trkpt lat="47.484895" lon="8.186379">
        <ele>389.748920</ele>
        <time>2021-11-22T12:57:19.860Z</time>
      </trkpt>
      <trkpt lat="47.485127" lon="8.186353">
        <ele>390.541986</ele>
        <time>2021-11-22T12:57:26.949Z</time>
      </trkpt>
      <trkpt lat="47.485927" lon="8.186401">
        <ele>392.917160</ele>
        <time>2021-11-22T12:57:46.446Z</time>
      </trkpt>
      <trkpt lat="47.486547" lon="8.186524">
        <ele>392.580320</ele>
        <time>2021-11-22T12:57:54.224Z</time>
      </trkpt>
      <trkpt lat="47.486653" lon="8.186563">
        <ele>392.521504</ele>
        <time>2021-11-22T12:57:55.476Z</time>
      </trkpt>
      <trkpt lat="47.486930" lon="8.186675">
        <ele>392.366880</ele>
        <time>2021-11-22T12:57:58.932Z</time>
      </trkpt>
      <trkpt lat="47.488342" lon="8.187194">
        <ele>391.281398</ele>
        <time>2021-11-22T12:58:16.362Z</time>
      </trkpt>
      <trkpt lat="47.488450" lon="8.187222">
        <ele>391.179227</ele>
        <time>2021-11-22T12:58:17.770Z</time>
      </trkpt>
      <trkpt lat="47.488692" lon="8.187285">
        <ele>390.950258</ele>
        <time>2021-11-22T12:58:20.822Z</time>
      </trkpt>
      <trkpt lat="47.488896" lon="8.187332">
        <ele>390.757872</ele>
        <time>2021-11-22T12:58:23.432Z</time>
      </trkpt>
      <trkpt lat="47.489072" lon="8.187373">
        <ele>390.591848</ele>
        <time>2021-11-22T12:58:25.602Z</time>
      </trkpt>
      <trkpt lat="47.490084" lon="8.187497">
        <ele>390.610654</ele>
        <time>2021-11-22T12:58:39.073Z</time>
      </trkpt>
      <trkpt lat="47.490752" lon="8.187494">
        <ele>390.877773</ele>
        <time>2021-11-22T12:58:50.657Z</time>
      </trkpt>
      <trkpt lat="47.490871" lon="8.187485">
        <ele>390.925421</ele>
        <time>2021-11-22T12:58:52.922Z</time>
      </trkpt>
      <trkpt lat="47.491855" lon="8.187455">
        <ele>392.289669</ele>
        <time>2021-11-22T12:59:14.114Z</time>
      </trkpt>
      <trkpt lat="47.491946" lon="8.187452">
        <ele>392.452759</ele>
        <time>2021-11-22T12:59:16.140Z</time>
      </trkpt>
      <trkpt lat="47.492366" lon="8.187431">
        <ele>393.205724</ele>
        <time>2021-11-22T12:59:26.174Z</time>
      </trkpt>
      <trkpt lat="47.492518" lon="8.187437">
        <ele>393.478167</ele>
        <time>2021-11-22T12:59:30.089Z</time>
      </trkpt>
      <trkpt lat="47.492645" lon="8.187454">
        <ele>393.706649</ele>
        <time>2021-11-22T12:59:33.270Z</time>
      </trkpt>
      <trkpt lat="47.492740" lon="8.187474">
        <ele>393.878579</ele>
        <time>2021-11-22T12:59:35.503Z</time>
      </trkpt>
      <trkpt lat="47.492807" lon="8.187501">
        <ele>394.002997</ele>
        <time>2021-11-22T12:59:37.260Z</time>
      </trkpt>
      <trkpt lat="47.492888" lon="8.187533">
        <ele>394.153210</ele>
        <time>2021-11-22T12:59:39.259Z</time>
      </trkpt>
      <trkpt lat="47.493158" lon="8.187708">
        <ele>394.021339</ele>
        <time>2021-11-22T12:59:44.947Z</time>
      </trkpt>
      <trkpt lat="47.493200" lon="8.187747">
        <ele>393.970075</ele>
        <time>2021-11-22T12:59:46.006Z</time>
      </trkpt>
      <trkpt lat="47.493257" lon="8.187795">
        <ele>393.902271</ele>
        <time>2021-11-22T12:59:47.385Z</time>
      </trkpt>
      <trkpt lat="47.493328" lon="8.187887">
        <ele>393.804704</ele>
        <time>2021-11-22T12:59:48.593Z</time>
      </trkpt>
      <trkpt lat="47.493564" lon="8.188192">
        <ele>393.480768</ele>
        <time>2021-11-22T12:59:52.988Z</time>
      </trkpt>
      <trkpt lat="47.493761" lon="8.188582">
        <ele>393.140603</ele>
        <time>2021-11-22T12:59:56.945Z</time>
      </trkpt>
      <trkpt lat="47.493907" lon="8.188904">
        <ele>392.869707</ele>
        <time>2021-11-22T12:59:59.868Z</time>
      </trkpt>
      <trkpt lat="47.493941" lon="8.188998">
        <ele>392.795224</ele>
        <time>2021-11-22T13:00:00.572Z</time>
      </trkpt>
      <trkpt lat="47.494056" lon="8.188984">
        <ele>392.675923</ele>
        <time>2021-11-22T13:00:01.709Z</time>
      </trkpt>
      <trkpt lat="47.494332" lon="8.188863">
        <ele>392.291935</ele>
        <time>2021-11-22T13:00:04.689Z</time>
      </trkpt>
      <trkpt lat="47.494505" lon="8.188702">
        <ele>391.347677</ele>
        <time>2021-11-22T13:00:06.831Z</time>
      </trkpt>
      <trkpt lat="47.494597" lon="8.188575">
        <ele>390.766377</ele>
        <time>2021-11-22T13:00:08.020Z</time>
      </trkpt>
      <trkpt lat="47.494679" lon="8.188658">
        <ele>390.307356</ele>
        <time>2021-11-22T13:00:08.953Z</time>
      </trkpt>
      <trkpt lat="47.494815" lon="8.188799">
        <ele>389.540115</ele>
        <time>2021-11-22T13:00:10.657Z</time>
      </trkpt>
      <trkpt lat="47.494863" lon="8.188872">
        <ele>389.222106</ele>
        <time>2021-11-22T13:00:11.270Z</time>
      </trkpt>
      <trkpt lat="47.494913" lon="8.188947">
        <ele>388.893170</ele>
        <time>2021-11-22T13:00:11.918Z</time>
      </trkpt>
      <trkpt lat="47.494988" lon="8.189062">
        <ele>388.394181</ele>
        <time>2021-11-22T13:00:12.970Z</time>
      </trkpt>
      <trkpt lat="47.495046" lon="8.189116">
        <ele>388.077572</ele>
        <time>2021-11-22T13:00:13.660Z</time>
      </trkpt>
      <trkpt lat="47.495145" lon="8.189166">
        <ele>387.594233</ele>
        <time>2021-11-22T13:00:14.594Z</time>
      </trkpt>
      <trkpt lat="47.495322" lon="8.189227">
        <ele>386.754508</ele>
        <time>2021-11-22T13:00:16.285Z</time>
      </trkpt>
      <trkpt lat="47.495476" lon="8.189410">
        <ele>385.841968</ele>
        <time>2021-11-22T13:00:18.096Z</time>
      </trkpt>
      <trkpt lat="47.495598" lon="8.189610">
        <ele>385.000766</ele>
        <time>2021-11-22T13:00:19.858Z</time>
      </trkpt>
      <trkpt lat="47.495897" lon="8.190097">
        <ele>383.267329</ele>
        <time>2021-11-22T13:00:24.045Z</time>
      </trkpt>
      <trkpt lat="47.495939" lon="8.190175">
        <ele>383.043138</ele>
        <time>2021-11-22T13:00:24.646Z</time>
      </trkpt>
      <trkpt lat="47.496024" lon="8.190340">
        <ele>382.576758</ele>
        <time>2021-11-22T13:00:26.010Z</time>
      </trkpt>
      <trkpt lat="47.496239" lon="8.190790">
        <ele>381.337938</ele>
        <time>2021-11-22T13:00:29.624Z</time>
      </trkpt>
      <trkpt lat="47.496376" lon="8.191087">
        <ele>380.529621</ele>
        <time>2021-11-22T13:00:32.094Z</time>
      </trkpt>
      <trkpt lat="47.496742" lon="8.191983">
        <ele>378.176216</ele>
        <time>2021-11-22T13:00:39.514Z</time>
      </trkpt>
      <trkpt lat="47.497025" lon="8.192667">
        <ele>379.384691</ele>
        <time>2021-11-22T13:00:46.367Z</time>
      </trkpt>
      <trkpt lat="47.497481" lon="8.193624">
        <ele>381.320233</ele>
        <time>2021-11-22T13:01:06.158Z</time>
      </trkpt>
      <trkpt lat="47.497613" lon="8.193902">
        <ele>381.881835</ele>
        <time>2021-11-22T13:01:14.310Z</time>
      </trkpt>
      <trkpt lat="47.498027" lon="8.194688">
        <ele>385.234799</ele>
        <time>2021-11-22T13:01:42.736Z</time>
      </trkpt>
      <trkpt lat="47.498263" lon="8.195082">
        <ele>387.560003</ele>
        <time>2021-11-22T13:01:58.440Z</time>
      </trkpt>
      <trkpt lat="47.498334" lon="8.195192">
        <ele>388.231801</ele>
        <time>2021-11-22T13:02:04.494Z</time>
      </trkpt>
      <trkpt lat="47.498888" lon="8.196086">
        <ele>393.588760</ele>
        <time>2021-11-22T13:02:37.877Z</time>
      </trkpt>
      <trkpt lat="47.499078" lon="8.196466">
        <ele>394.729410</ele>
        <time>2021-11-22T13:02:50.217Z</time>
      </trkpt>
      <trkpt lat="47.499204" lon="8.196808">
        <ele>395.295437</ele>
        <time>2021-11-22T13:02:59.155Z</time>
      </trkpt>
      <trkpt lat="47.499315" lon="8.197062">
        <ele>395.734989</ele>
        <time>2021-11-22T13:03:04.665Z</time>
      </trkpt>
      <trkpt lat="47.499715" lon="8.198087">
        <ele>397.454956</ele>
        <time>2021-11-22T13:03:18.624Z</time>
      </trkpt>
      <trkpt lat="47.499995" lon="8.198983">
        <ele>397.914217</ele>
        <time>2021-11-22T13:03:27.901Z</time>
      </trkpt>
      <trkpt lat="47.500087" lon="8.199186">
        <ele>397.811231</ele>
        <time>2021-11-22T13:03:30.410Z</time>
      </trkpt>
      <trkpt lat="47.500603" lon="8.200224">
        <ele>397.268291</ele>
        <time>2021-11-22T13:03:42.508Z</time>
      </trkpt>
      <trkpt lat="47.500775" lon="8.200751">
        <ele>397.021716</ele>
        <time>2021-11-22T13:03:47.128Z</time>
      </trkpt>
      <trkpt lat="47.500893" lon="8.201244">
        <ele>395.161232</ele>
        <time>2021-11-22T13:03:51.005Z</time>
      </trkpt>
      <trkpt lat="47.501006" lon="8.201778">
        <ele>393.087727</ele>
        <time>2021-11-22T13:03:54.836Z</time>
      </trkpt>
      <trkpt lat="47.501173" lon="8.202379">
        <ele>390.679744</ele>
        <time>2021-11-22T13:03:58.873Z</time>
      </trkpt>
      <trkpt lat="47.501309" lon="8.202669">
        <ele>389.371641</ele>
        <time>2021-11-22T13:04:00.982Z</time>
      </trkpt>
      <trkpt lat="47.501613" lon="8.203066">
        <ele>387.148089</ele>
        <time>2021-11-22T13:04:04.506Z</time>
      </trkpt>
      <trkpt lat="47.501822" lon="8.203175">
        <ele>385.445684</ele>
        <time>2021-11-22T13:04:06.426Z</time>
      </trkpt>
      <trkpt lat="47.502295" lon="8.203209">
        <ele>381.806156</ele>
        <time>2021-11-22T13:04:10.557Z</time>
      </trkpt>
      <trkpt lat="47.502537" lon="8.203211">
        <ele>379.946235</ele>
        <time>2021-11-22T13:04:12.684Z</time>
      </trkpt>
      <trkpt lat="47.502665" lon="8.203221">
        <ele>378.961121</ele>
        <time>2021-11-22T13:04:13.813Z</time>
      </trkpt>
      <trkpt lat="47.502756" lon="8.203224">
        <ele>378.261567</ele>
        <time>2021-11-22T13:04:14.615Z</time>
      </trkpt>
      <trkpt lat="47.502787" lon="8.203328">
        <ele>377.671375</ele>
        <time>2021-11-22T13:04:15.560Z</time>
      </trkpt>
      <trkpt lat="47.503777" lon="8.203438">
        <ele>372.799175</ele>
        <time>2021-11-22T13:04:28.575Z</time>
      </trkpt>
      <trkpt lat="47.504298" lon="8.203668">
        <ele>372.132219</ele>
        <time>2021-11-22T13:04:37.281Z</time>
      </trkpt>
      <trkpt lat="47.504466" lon="8.203807">
        <ele>371.896118</ele>
        <time>2021-11-22T13:04:41.952Z</time>
      </trkpt>
      <trkpt lat="47.504619" lon="8.203946">
        <ele>371.675896</ele>
        <time>2021-11-22T13:04:46.531Z</time>
      </trkpt>
      <trkpt lat="47.505192" lon="8.204468">
        <ele>371.825632</ele>
        <time>2021-11-22T13:05:06.260Z</time>
      </trkpt>
      <trkpt lat="47.505593" lon="8.204648">
        <ele>373.196158</ele>
        <time>2021-11-22T13:05:20.214Z</time>
      </trkpt>
      <trkpt lat="47.506114" lon="8.204737">
        <ele>374.911508</ele>
        <time>2021-11-22T13:05:39.108Z</time>
      </trkpt>
      <trkpt lat="47.506134" lon="8.204624">
        <ele>375.169598</ele>
        <time>2021-11-22T13:05:41.893Z</time>
      </trkpt>
      <trkpt lat="47.506352" lon="8.204636">
        <ele>375.883106</ele>
        <time>2021-11-22T13:05:48.681Z</time>
      </trkpt>
      <trkpt lat="47.506628" lon="8.204650">
        <ele>376.786352</ele>
        <time>2021-11-22T13:05:56.730Z</time>
      </trkpt>
      <trkpt lat="47.506898" lon="8.204672">
        <ele>377.157407</ele>
        <time>2021-11-22T13:06:04.107Z</time>
      </trkpt>
      <trkpt lat="47.506966" lon="8.204678">
        <ele>377.209857</ele>
        <time>2021-11-22T13:06:05.918Z</time>
      </trkpt>
      <trkpt lat="47.507147" lon="8.204690">
        <ele>377.349359</ele>
        <time>2021-11-22T13:06:10.766Z</time>
      </trkpt>
      <trkpt lat="47.507368" lon="8.204685">
        <ele>377.519540</ele>
        <time>2021-11-22T13:06:15.742Z</time>
      </trkpt>
      <trkpt lat="47.507622" lon="8.204661">
        <ele>377.715507</ele>
        <time>2021-11-22T13:06:20.844Z</time>
      </trkpt>
      <trkpt lat="47.507870" lon="8.204624">
        <ele>377.907424</ele>
        <time>2021-11-22T13:06:25.235Z</time>
      </trkpt>
      <trkpt lat="47.507922" lon="8.204623">
        <ele>377.947465</ele>
        <time>2021-11-22T13:06:26.017Z</time>
      </trkpt>
      <trkpt lat="47.508075" lon="8.204619">
        <ele>378.065287</ele>
        <time>2021-11-22T13:06:27.958Z</time>
      </trkpt>
      <trkpt lat="47.508195" lon="8.204634">
        <ele>378.158010</ele>
        <time>2021-11-22T13:06:29.500Z</time>
      </trkpt>
      <trkpt lat="47.508323" lon="8.204658">
        <ele>378.257352</ele>
        <time>2021-11-22T13:06:30.992Z</time>
      </trkpt>
      <trkpt lat="47.508511" lon="8.204738">
        <ele>378.268097</ele>
        <time>2021-11-22T13:06:33.090Z</time>
      </trkpt>
      <trkpt lat="47.508606" lon="8.204790">
        <ele>377.886656</ele>
        <time>2021-11-22T13:06:34.288Z</time>
      </trkpt>
      <trkpt lat="47.508689" lon="8.204837">
        <ele>377.551992</ele>
        <time>2021-11-22T13:06:35.210Z</time>
      </trkpt>
      <trkpt lat="47.509032" lon="8.205060">
        <ele>376.141181</ele>
        <time>2021-11-22T13:06:38.944Z</time>
      </trkpt>
      <trkpt lat="47.509149" lon="8.205132">
        <ele>375.664008</ele>
        <time>2021-11-22T13:06:40.141Z</time>
      </trkpt>
      <trkpt lat="47.509289" lon="8.205248">
        <ele>375.059809</ele>
        <time>2021-11-22T13:06:41.766Z</time>
      </trkpt>
      <trkpt lat="47.509425" lon="8.205362">
        <ele>374.471234</ele>
        <time>2021-11-22T13:06:43.244Z</time>
      </trkpt>
      <trkpt lat="47.509576" lon="8.205502">
        <ele>373.800256</ele>
        <time>2021-11-22T13:06:44.949Z</time>
      </trkpt>
      <trkpt lat="47.509781" lon="8.205702">
        <ele>372.875665</ele>
        <time>2021-11-22T13:06:47.253Z</time>
      </trkpt>
      <trkpt lat="47.509957" lon="8.205884">
        <ele>372.067169</ele>
        <time>2021-11-22T13:06:49.328Z</time>
      </trkpt>
      <trkpt lat="47.510110" lon="8.206036">
        <ele>371.427970</ele>
        <time>2021-11-22T13:06:51.073Z</time>
      </trkpt>
      <trkpt lat="47.510310" lon="8.206228">
        <ele>370.737259</ele>
        <time>2021-11-22T13:06:53.360Z</time>
      </trkpt>
      <trkpt lat="47.510696" lon="8.206660">
        <ele>369.335127</ele>
        <time>2021-11-22T13:06:58.134Z</time>
      </trkpt>
      <trkpt lat="47.510746" lon="8.206745">
        <ele>369.114517</ele>
        <time>2021-11-22T13:06:58.888Z</time>
      </trkpt>
      <trkpt lat="47.510799" lon="8.206834">
        <ele>368.882289</ele>
        <time>2021-11-22T13:06:59.747Z</time>
      </trkpt>
      <trkpt lat="47.510868" lon="8.206975">
        <ele>368.541503</ele>
        <time>2021-11-22T13:07:00.921Z</time>
      </trkpt>
      <trkpt lat="47.511087" lon="8.207326">
        <ele>367.606270</ele>
        <time>2021-11-22T13:07:04.429Z</time>
      </trkpt>
      <trkpt lat="47.511287" lon="8.207539">
        <ele>366.892367</ele>
        <time>2021-11-22T13:07:07.177Z</time>
      </trkpt>
      <trkpt lat="47.511545" lon="8.207730">
        <ele>366.331775</ele>
        <time>2021-11-22T13:07:10.716Z</time>
      </trkpt>
      <trkpt lat="47.511830" lon="8.207951">
        <ele>366.149555</ele>
        <time>2021-11-22T13:07:15.009Z</time>
      </trkpt>
      <trkpt lat="47.512289" lon="8.208244">
        <ele>365.866450</ele>
        <time>2021-11-22T13:07:22.032Z</time>
      </trkpt>
      <trkpt lat="47.512464" lon="8.208323">
        <ele>365.762828</ele>
        <time>2021-11-22T13:07:24.543Z</time>
      </trkpt>
      <trkpt lat="47.513508" lon="8.208805">
        <ele>365.085443</ele>
        <time>2021-11-22T13:07:39.073Z</time>
      </trkpt>
      <trkpt lat="47.513709" lon="8.208886">
        <ele>364.938523</ele>
        <time>2021-11-22T13:07:41.824Z</time>
      </trkpt>
      <trkpt lat="47.513775" lon="8.209324">
        <ele>364.724747</ele>
        <time>2021-11-22T13:07:45.658Z</time>
      </trkpt>
      <trkpt lat="47.513828" lon="8.209683">
        <ele>364.549696</ele>
        <time>2021-11-22T13:07:48.827Z</time>
      </trkpt>
      <trkpt lat="47.513875" lon="8.210161">
        <ele>364.319595</ele>
        <time>2021-11-22T13:07:52.957Z</time>
      </trkpt>
      <trkpt lat="47.513886" lon="8.210522">
        <ele>364.147454</ele>
        <time>2021-11-22T13:07:55.993Z</time>
      </trkpt>
      <trkpt lat="47.513892" lon="8.210732">
        <ele>364.058755</ele>
        <time>2021-11-22T13:07:57.737Z</time>
      </trkpt>
      <trkpt lat="47.513892" lon="8.211277">
        <ele>363.845462</ele>
        <time>2021-11-22T13:08:02.175Z</time>
      </trkpt>
      <trkpt lat="47.513868" lon="8.212369">
        <ele>363.417868</ele>
        <time>2021-11-22T13:08:11.792Z</time>
      </trkpt>
      <trkpt lat="47.514119" lon="8.212384">
        <ele>363.272309</ele>
        <time>2021-11-22T13:08:16.660Z</time>
      </trkpt>
      <trkpt lat="47.514469" lon="8.212440">
        <ele>363.068457</ele>
        <time>2021-11-22T13:08:23.441Z</time>
      </trkpt>
      <trkpt lat="47.514567" lon="8.212469">
        <ele>363.019877</ele>
        <time>2021-11-22T13:08:25.251Z</time>
      </trkpt>
      <trkpt lat="47.515044" lon="8.212902">
        <ele>362.747900</ele>
        <time>2021-11-22T13:08:36.198Z</time>
      </trkpt>
      <trkpt lat="47.515199" lon="8.213043">
        <ele>362.659471</ele>
        <time>2021-11-22T13:08:39.613Z</time>
      </trkpt>
      <trkpt lat="47.515439" lon="8.213200">
        <ele>362.531929</ele>
        <time>2021-11-22T13:08:44.493Z</time>
      </trkpt>
      <trkpt lat="47.516229" lon="8.213774">
        <ele>362.035994</ele>
        <time>2021-11-22T13:09:00.227Z</time>
      </trkpt>
      <trkpt lat="47.516357" lon="8.213867">
        <ele>361.914577</ele>
        <time>2021-11-22T13:09:02.890Z</time>
      </trkpt>
      <trkpt lat="47.516450" lon="8.213978">
        <ele>361.812854</ele>
        <time>2021-11-22T13:09:05.013Z</time>
      </trkpt>
      <trkpt lat="47.516592" lon="8.214194">
        <ele>361.639489</ele>
        <time>2021-11-22T13:09:08.781Z</time>
      </trkpt>
      <trkpt lat="47.516853" lon="8.214613">
        <ele>361.311662</ele>
        <time>2021-11-22T13:09:15.693Z</time>
      </trkpt>
      <trkpt lat="47.516927" lon="8.214681">
        <ele>361.237496</ele>
        <time>2021-11-22T13:09:17.133Z</time>
      </trkpt>
      <trkpt lat="47.517061" lon="8.214737">
        <ele>361.118927</ele>
        <time>2021-11-22T13:09:19.602Z</time>
      </trkpt>
      <trkpt lat="47.517598" lon="8.214691">
        <ele>360.661269</ele>
        <time>2021-11-22T13:09:28.848Z</time>
      </trkpt>
      <trkpt lat="47.517727" lon="8.214690">
        <ele>360.570613</ele>
        <time>2021-11-22T13:09:31.037Z</time>
      </trkpt>
      <trkpt lat="47.517865" lon="8.214707">
        <ele>360.473298</ele>
        <time>2021-11-22T13:09:33.418Z</time>
      </trkpt>
      <trkpt lat="47.517918" lon="8.214716">
        <ele>360.435808</ele>
        <time>2021-11-22T13:09:34.346Z</time>
      </trkpt>
      <trkpt lat="47.518033" lon="8.214737">
        <ele>360.354380</ele>
        <time>2021-11-22T13:09:36.218Z</time>
      </trkpt>
      <trkpt lat="47.518146" lon="8.214775">
        <ele>360.272947</ele>
        <time>2021-11-22T13:09:38.336Z</time>
      </trkpt>
      <trkpt lat="47.518581" lon="8.214863">
        <ele>359.964410</ele>
        <time>2021-11-22T13:09:46.386Z</time>
      </trkpt>
      <trkpt lat="47.518727" lon="8.214908">
        <ele>359.859609</ele>
        <time>2021-11-22T13:09:49.171Z</time>
      </trkpt>
      <trkpt lat="47.518955" lon="8.215007">
        <ele>359.692634</ele>
        <time>2021-11-22T13:09:53.697Z</time>
      </trkpt>
      <trkpt lat="47.519148" lon="8.215131">
        <ele>359.544786</ele>
        <time>2021-11-22T13:09:57.638Z</time>
      </trkpt>
      <trkpt lat="47.519391" lon="8.215293">
        <ele>359.359659</ele>
        <time>2021-11-22T13:10:02.591Z</time>
      </trkpt>
      <trkpt lat="47.519670" lon="8.215440">
        <ele>359.162297</ele>
        <time>2021-11-22T13:10:07.973Z</time>
      </trkpt>
      <trkpt lat="47.519944" lon="8.215530">
        <ele>358.975249</ele>
        <time>2021-11-22T13:10:13.116Z</time>
      </trkpt>
      <trkpt lat="47.520124" lon="8.215569">
        <ele>358.854009</ele>
        <time>2021-11-22T13:10:16.448Z</time>
      </trkpt>
      <trkpt lat="47.520146" lon="8.215572">
        <ele>358.839285</ele>
        <time>2021-11-22T13:10:16.897Z</time>
      </trkpt>
      <trkpt lat="47.520315" lon="8.215590">
        <ele>358.726362</ele>
        <time>2021-11-22T13:10:19.850Z</time>
      </trkpt>
      <trkpt lat="47.520540" lon="8.215681">
        <ele>358.570916</ele>
        <time>2021-11-22T13:10:24.205Z</time>
      </trkpt>
      <trkpt lat="47.520786" lon="8.215911">
        <ele>358.377022</ele>
        <time>2021-11-22T13:10:29.418Z</time>
      </trkpt>
      <trkpt lat="47.521086" lon="8.216135">
        <ele>358.163263</ele>
        <time>2021-11-22T13:10:35.278Z</time>
      </trkpt>
      <trkpt lat="47.521196" lon="8.216177">
        <ele>358.103800</ele>
        <time>2021-11-22T13:10:37.314Z</time>
      </trkpt>
      <trkpt lat="47.521239" lon="8.216193">
        <ele>358.080591</ele>
        <time>2021-11-22T13:10:37.987Z</time>
      </trkpt>
      <trkpt lat="47.521527" lon="8.216269">
        <ele>357.927461</ele>
        <time>2021-11-22T13:10:43.311Z</time>
      </trkpt>
      <trkpt lat="47.521586" lon="8.216258">
        <ele>357.896334</ele>
        <time>2021-11-22T13:10:44.247Z</time>
      </trkpt>
      <trkpt lat="47.521761" lon="8.216165">
        <ele>357.799009</ele>
        <time>2021-11-22T13:10:47.570Z</time>
      </trkpt>
      <trkpt lat="47.521839" lon="8.216142">
        <ele>357.757377</ele>
        <time>2021-11-22T13:10:49.090Z</time>
      </trkpt>
      <trkpt lat="47.521918" lon="8.216174">
        <ele>357.714505</ele>
        <time>2021-11-22T13:10:50.472Z</time>
      </trkpt>
      <trkpt lat="47.522226" lon="8.216299">
        <ele>357.547336</ele>
        <time>2021-11-22T13:10:56.442Z</time>
      </trkpt>
      <trkpt lat="47.522326" lon="8.216356">
        <ele>357.491246</ele>
        <time>2021-11-22T13:10:58.219Z</time>
      </trkpt>
      <trkpt lat="47.522426" lon="8.216233">
        <ele>357.423199</ele>
        <time>2021-11-22T13:11:00.064Z</time>
      </trkpt>
      <trkpt lat="47.522589" lon="8.216064">
        <ele>357.319041</ele>
        <time>2021-11-22T13:11:02.738Z</time>
      </trkpt>
      <trkpt lat="47.522953" lon="8.215700">
        <ele>357.719815</ele>
        <time>2021-11-22T13:11:09.999Z</time>
      </trkpt>
      <trkpt lat="47.523040" lon="8.215616">
        <ele>357.867367</ele>
        <time>2021-11-22T13:11:12.085Z</time>
      </trkpt>
      <trkpt lat="47.523184" lon="8.215512">
        <ele>358.094982</ele>
        <time>2021-11-22T13:11:15.024Z</time>
      </trkpt>
      <trkpt lat="47.523252" lon="8.215477">
        <ele>358.197259</ele>
        <time>2021-11-22T13:11:16.349Z</time>
      </trkpt>
      <trkpt lat="47.523295" lon="8.215459">
        <ele>358.260743</ele>
        <time>2021-11-22T13:11:17.282Z</time>
      </trkpt>
      <trkpt lat="47.523322" lon="8.215449">
        <ele>358.300283</ele>
        <time>2021-11-22T13:11:17.853Z</time>
      </trkpt>
      <trkpt lat="47.523463" lon="8.215416">
        <ele>358.503088</ele>
        <time>2021-11-22T13:11:20.926Z</time>
      </trkpt>
      <trkpt lat="47.523628" lon="8.215398">
        <ele>358.738139</ele>
        <time>2021-11-22T13:11:23.993Z</time>
      </trkpt>
      <trkpt lat="47.523967" lon="8.215368">
        <ele>359.220615</ele>
        <time>2021-11-22T13:11:31.331Z</time>
      </trkpt>
      <trkpt lat="47.524496" lon="8.215283">
        <ele>360.397792</ele>
        <time>2021-11-22T13:11:43.832Z</time>
      </trkpt>
      <trkpt lat="47.525397" lon="8.215170">
        <ele>365.016247</ele>
        <time>2021-11-22T13:12:11.690Z</time>
      </trkpt>
      <trkpt lat="47.525630" lon="8.215165">
        <ele>366.206451</ele>
        <time>2021-11-22T13:12:19.706Z</time>
      </trkpt>
      <trkpt lat="47.525749" lon="8.215166">
        <ele>366.814270</ele>
        <time>2021-11-22T13:12:25.680Z</time>
      </trkpt>
      <trkpt lat="47.525837" lon="8.215146">
        <ele>367.269004</ele>
        <time>2021-11-22T13:12:29.598Z</time>
      </trkpt>
      <trkpt lat="47.525912" lon="8.215115">
        <ele>367.666718</ele>
        <time>2021-11-22T13:12:32.708Z</time>
      </trkpt>
      <trkpt lat="47.525955" lon="8.215079">
        <ele>367.919013</ele>
        <time>2021-11-22T13:12:34.403Z</time>
      </trkpt>
      <trkpt lat="47.526002" lon="8.215031">
        <ele>368.210621</ele>
        <time>2021-11-22T13:12:37.877Z</time>
      </trkpt>
      <trkpt lat="47.526053" lon="8.214977">
        <ele>368.530842</ele>
        <time>2021-11-22T13:12:40.764Z</time>
      </trkpt>
      <trkpt lat="47.526124" lon="8.214905">
        <ele>368.970358</ele>
        <time>2021-11-22T13:12:44.524Z</time>
      </trkpt>
      <trkpt lat="47.526245" lon="8.214785">
        <ele>370.229654</ele>
        <time>2021-11-22T13:12:50.958Z</time>
      </trkpt>
      <trkpt lat="47.526233" lon="8.214701">
        <ele>370.739848</ele>
        <time>2021-11-22T13:12:56.429Z</time>
      </trkpt>
      <trkpt lat="47.526337" lon="8.214415">
        <ele>372.670078</ele>
        <time>2021-11-22T13:13:11.059Z</time>
      </trkpt>
      <trkpt lat="47.526347" lon="8.214399">
        <ele>372.799629</ele>
        <time>2021-11-22T13:13:12.186Z</time>
      </trkpt>
      <trkpt lat="47.526668" lon="8.213870">
        <ele>377.025800</ele>
        <time>2021-11-22T13:13:46.965Z</time>
      </trkpt>
      <trkpt lat="47.526721" lon="8.213721">
        <ele>378.026514</ele>
        <time>2021-11-22T13:13:55.793Z</time>
      </trkpt>
      <trkpt lat="47.526750" lon="8.213563">
        <ele>378.999441</ele>
        <time>2021-11-22T13:14:03.540Z</time>
      </trkpt>
      <trkpt lat="47.526851" lon="8.213326">
        <ele>380.664746</ele>
        <time>2021-11-22T13:14:18.055Z</time>
      </trkpt>
      <trkpt lat="47.526966" lon="8.213055">
        <ele>382.566658</ele>
        <time>2021-11-22T13:14:33.697Z</time>
      </trkpt>
      <trkpt lat="47.526996" lon="8.212989">
        <ele>383.039417</ele>
        <time>2021-11-22T13:14:38.512Z</time>
      </trkpt>
      <trkpt lat="47.527086" lon="8.212822">
        <ele>384.309059</ele>
        <time>2021-11-22T13:14:46.789Z</time>
      </trkpt>
      <trkpt lat="47.527174" lon="8.212657">
        <ele>385.402688</ele>
        <time>2021-11-22T13:14:53.880Z</time>
      </trkpt>
      <trkpt lat="47.527492" lon="8.212260">
        <ele>388.281073</ele>
        <time>2021-11-22T13:15:13.621Z</time>
      </trkpt>
      <trkpt lat="47.527568" lon="8.212167">
        <ele>388.963357</ele>
        <time>2021-11-22T13:15:17.631Z</time>
      </trkpt>
      <trkpt lat="47.527628" lon="8.212063">
        <ele>389.602586</ele>
        <time>2021-11-22T13:15:23.654Z</time>
      </trkpt>
      <trkpt lat="47.527792" lon="8.211675">
        <ele>391.741659</ele>
        <time>2021-11-22T13:15:38.241Z</time>
      </trkpt>
      <trkpt lat="47.527904" lon="8.211051">
        <ele>394.758880</ele>
        <time>2021-11-22T13:15:55.573Z</time>
      </trkpt>
      <trkpt lat="47.528109" lon="8.210725">
        <ele>396.840592</ele>
        <time>2021-11-22T13:16:05.172Z</time>
      </trkpt>
      <trkpt lat="47.528294" lon="8.210278">
        <ele>397.522384</ele>
        <time>2021-11-22T13:16:15.422Z</time>
      </trkpt>
      <trkpt lat="47.528477" lon="8.209843">
        <ele>397.814435</ele>
        <time>2021-11-22T13:16:23.085Z</time>
      </trkpt>
      <trkpt lat="47.528988" lon="8.208838">
        <ele>398.531322</ele>
        <time>2021-11-22T13:16:35.815Z</time>
      </trkpt>
      <trkpt lat="47.529201" lon="8.208382">
        <ele>398.816838</ele>
        <time>2021-11-22T13:16:40.244Z</time>
      </trkpt>
      <trkpt lat="47.529351" lon="8.208087">
        <ele>398.905383</ele>
        <time>2021-11-22T13:16:42.955Z</time>
      </trkpt>
      <trkpt lat="47.529530" lon="8.207845">
        <ele>398.991447</ele>
        <time>2021-11-22T13:16:45.488Z</time>
      </trkpt>
      <trkpt lat="47.529704" lon="8.207736">
        <ele>399.058535</ele>
        <time>2021-11-22T13:16:47.679Z</time>
      </trkpt>
      <trkpt lat="47.530081" lon="8.207671">
        <ele>399.193312</ele>
        <time>2021-11-22T13:16:52.988Z</time>
      </trkpt>
      <trkpt lat="47.530570" lon="8.207684">
        <ele>399.366985</ele>
        <time>2021-11-22T13:17:02.936Z</time>
      </trkpt>
      <trkpt lat="47.530672" lon="8.207683">
        <ele>399.403206</ele>
        <time>2021-11-22T13:17:05.163Z</time>
      </trkpt>
      <trkpt lat="47.530748" lon="8.207682">
        <ele>399.430195</ele>
        <time>2021-11-22T13:17:07.279Z</time>
      </trkpt>
      <trkpt lat="47.530948" lon="8.207681">
        <ele>400.701567</ele>
        <time>2021-11-22T13:17:13.954Z</time>
      </trkpt>
      <trkpt lat="47.531043" lon="8.207684">
        <ele>401.332783</ele>
        <time>2021-11-22T13:17:16.859Z</time>
      </trkpt>
      <trkpt lat="47.531300" lon="8.207688">
        <ele>403.040095</ele>
        <time>2021-11-22T13:17:26.371Z</time>
      </trkpt>
      <trkpt lat="47.532270" lon="8.207712">
        <ele>409.484580</ele>
        <time>2021-11-22T13:18:11.853Z</time>
      </trkpt>
      <trkpt lat="47.532597" lon="8.207774">
        <ele>411.729298</ele>
        <time>2021-11-22T13:18:28.262Z</time>
      </trkpt>
      <trkpt lat="47.532835" lon="8.207933">
        <ele>413.787972</ele>
        <time>2021-11-22T13:18:39.994Z</time>
      </trkpt>
      <trkpt lat="47.533120" lon="8.208342">
        <ele>416.916993</ele>
        <time>2021-11-22T13:18:57.195Z</time>
      </trkpt>
      <trkpt lat="47.533191" lon="8.208445">
        <ele>417.700621</ele>
        <time>2021-11-22T13:19:03.392Z</time>
      </trkpt>
      <trkpt lat="47.533279" lon="8.208606">
        <ele>418.803378</ele>
        <time>2021-11-22T13:19:08.739Z</time>
      </trkpt>
      <trkpt lat="47.533949" lon="8.209720">
        <ele>426.884957</ele>
        <time>2021-11-22T13:19:55.538Z</time>
      </trkpt>
      <trkpt lat="47.534400" lon="8.210289">
        <ele>432.107050</ele>
        <time>2021-11-22T13:20:24.220Z</time>
      </trkpt>
      <trkpt lat="47.534948" lon="8.210478">
        <ele>437.066680</ele>
        <time>2021-11-22T13:20:51.668Z</time>
      </trkpt>
      <trkpt lat="47.535970" lon="8.210248">
        <ele>446.590177</ele>
        <time>2021-11-22T13:21:48.738Z</time>
      </trkpt>
      <trkpt lat="47.536563" lon="8.209636">
        <ele>453.511693</ele>
        <time>2021-11-22T13:22:26.886Z</time>
      </trkpt>
      <trkpt lat="47.536687" lon="8.209592">
        <ele>454.732800</ele>
        <time>2021-11-22T13:22:34.495Z</time>
      </trkpt>
      <trkpt lat="47.536874" lon="8.209678">
        <ele>456.607971</ele>
        <time>2021-11-22T13:22:43.550Z</time>
      </trkpt>
      <trkpt lat="47.536921" lon="8.209778">
        <ele>457.395755</ele>
        <time>2021-11-22T13:22:49.148Z</time>
      </trkpt>
      <trkpt lat="47.536956" lon="8.209884">
        <ele>458.158659</ele>
        <time>2021-11-22T13:22:53.339Z</time>
      </trkpt>
      <trkpt lat="47.537043" lon="8.210202">
        <ele>460.418198</ele>
        <time>2021-11-22T13:23:04.212Z</time>
      </trkpt>
      <trkpt lat="47.537143" lon="8.210508">
        <ele>462.668357</ele>
        <time>2021-11-22T13:23:15.247Z</time>
      </trkpt>
      <trkpt lat="47.537267" lon="8.210668">
        <ele>464.280622</ele>
        <time>2021-11-22T13:23:24.537Z</time>
      </trkpt>
      <trkpt lat="47.537388" lon="8.210688">
        <ele>465.474265</ele>
        <time>2021-11-22T13:23:30.364Z</time>
      </trkpt>
      <trkpt lat="47.537432" lon="8.210679">
        <ele>465.909733</ele>
        <time>2021-11-22T13:23:32.234Z</time>
      </trkpt>
      <trkpt lat="47.537481" lon="8.210648">
        <ele>466.432111</ele>
        <time>2021-11-22T13:23:34.891Z</time>
      </trkpt>
      <trkpt lat="47.537542" lon="8.210584">
        <ele>467.164976</ele>
        <time>2021-11-22T13:23:38.429Z</time>
      </trkpt>
      <trkpt lat="47.537582" lon="8.210504">
        <ele>467.823881</ele>
        <time>2021-11-22T13:23:43.508Z</time>
      </trkpt>
      <trkpt lat="47.537624" lon="8.210296">
        <ele>469.260836</ele>
        <time>2021-11-22T13:23:50.694Z</time>
      </trkpt>
      <trkpt lat="47.537525" lon="8.209530">
        <ele>474.422850</ele>
        <time>2021-11-22T13:24:19.942Z</time>
      </trkpt>
      <trkpt lat="47.537541" lon="8.209218">
        <ele>476.491893</ele>
        <time>2021-11-22T13:24:31.798Z</time>
      </trkpt>
      <trkpt lat="47.537630" lon="8.208383">
        <ele>482.036681</ele>
        <time>2021-11-22T13:25:08.002Z</time>
      </trkpt>
      <trkpt lat="47.537696" lon="8.207798">
        <ele>485.927030</ele>
        <time>2021-11-22T13:25:29.390Z</time>
      </trkpt>
      <trkpt lat="47.537822" lon="8.206799">
        <ele>492.593042</ele>
        <time>2021-11-22T13:26:05.207Z</time>
      </trkpt>
      <trkpt lat="47.537847" lon="8.206596">
        <ele>493.889656</ele>
        <time>2021-11-22T13:26:12.022Z</time>
      </trkpt>
      <trkpt lat="47.538192" lon="8.203678">
        <ele>507.776458</ele>
        <time>2021-11-22T13:27:33.646Z</time>
      </trkpt>
      <trkpt lat="47.538311" lon="8.203259">
        <ele>510.084468</ele>
        <time>2021-11-22T13:27:46.425Z</time>
      </trkpt>
      <trkpt lat="47.538542" lon="8.203042">
        <ele>512.141716</ele>
        <time>2021-11-22T13:27:58.124Z</time>
      </trkpt>
      <trkpt lat="47.539057" lon="8.202818">
        <ele>516.178523</ele>
        <time>2021-11-22T13:28:23.605Z</time>
      </trkpt>
      <trkpt lat="47.539686" lon="8.202173">
        <ele>521.850476</ele>
        <time>2021-11-22T13:29:00.655Z</time>
      </trkpt>
      <trkpt lat="47.540161" lon="8.202010">
        <ele>525.386944</ele>
        <time>2021-11-22T13:29:22.398Z</time>
      </trkpt>
      <trkpt lat="47.540245" lon="8.201988">
        <ele>526.005655</ele>
        <time>2021-11-22T13:29:27.594Z</time>
      </trkpt>
      <trkpt lat="47.540267" lon="8.201983">
        <ele>526.167091</ele>
        <time>2021-11-22T13:29:28.892Z</time>
      </trkpt>
      <trkpt lat="47.540495" lon="8.201931">
        <ele>527.840287</ele>
        <time>2021-11-22T13:29:42.520Z</time>
      </trkpt>
      <trkpt lat="47.540724" lon="8.201834">
        <ele>529.567822</ele>
        <time>2021-11-22T13:29:58.276Z</time>
      </trkpt>
      <trkpt lat="47.540817" lon="8.201780">
        <ele>530.292330</ele>
        <time>2021-11-22T13:30:03.930Z</time>
      </trkpt>
      <trkpt lat="47.540912" lon="8.201699">
        <ele>531.087363</ele>
        <time>2021-11-22T13:30:12.079Z</time>
      </trkpt>
      <trkpt lat="47.541150" lon="8.201242">
        <ele>533.656258</ele>
        <time>2021-11-22T13:30:36.725Z</time>
      </trkpt>
      <trkpt lat="47.541246" lon="8.200575">
        <ele>536.296090</ele>
        <time>2021-11-22T13:31:04.282Z</time>
      </trkpt>
      <trkpt lat="47.541339" lon="8.199690">
        <ele>539.762973</ele>
        <time>2021-11-22T13:31:38.021Z</time>
      </trkpt>
      <trkpt lat="47.541371" lon="8.199351">
        <ele>541.087927</ele>
        <time>2021-11-22T13:31:46.004Z</time>
      </trkpt>
      <trkpt lat="47.541407" lon="8.197380">
        <ele>550.820900</ele>
        <time>2021-11-22T13:32:41.214Z</time>
      </trkpt>
      <trkpt lat="47.541424" lon="8.196416">
        <ele>555.924293</ele>
        <time>2021-11-22T13:33:14.505Z</time>
      </trkpt>
      <trkpt lat="47.541449" lon="8.194943">
        <ele>565.909042</ele>
        <time>2021-11-22T13:34:09.849Z</time>
      </trkpt>
      <trkpt lat="47.541450" lon="8.194441">
        <ele>569.443003</ele>
        <time>2021-11-22T13:34:29.696Z</time>
      </trkpt>
      <trkpt lat="47.541411" lon="8.193836">
        <ele>573.721417</ele>
        <time>2021-11-22T13:34:53.462Z</time>
      </trkpt>
      <trkpt lat="47.541049" lon="8.191467">
        <ele>590.486386</ele>
        <time>2021-11-22T13:36:29.334Z</time>
      </trkpt>
      <trkpt lat="47.541065" lon="8.191152">
        <ele>592.660529</ele>
        <time>2021-11-22T13:36:38.457Z</time>
      </trkpt>
      <trkpt lat="47.541095" lon="8.191058">
        <ele>593.376150</ele>
        <time>2021-11-22T13:36:44.271Z</time>
      </trkpt>
      <trkpt lat="47.541136" lon="8.190956">
        <ele>594.193202</ele>
        <time>2021-11-22T13:36:50.042Z</time>
      </trkpt>
      <trkpt lat="47.541254" lon="8.190715">
        <ele>595.297097</ele>
        <time>2021-11-22T13:37:02.608Z</time>
      </trkpt>
      <trkpt lat="47.541303" lon="8.190582">
        <ele>595.858624</ele>
        <time>2021-11-22T13:37:11.390Z</time>
      </trkpt>
      <trkpt lat="47.541314" lon="8.190468">
        <ele>596.285403</ele>
        <time>2021-11-22T13:37:15.908Z</time>
      </trkpt>
      <trkpt lat="47.541134" lon="8.187007">
        <ele>604.196950</ele>
        <time>2021-11-22T13:38:29.293Z</time>
      </trkpt>
      <trkpt lat="47.541144" lon="8.185829">
        <ele>604.307094</ele>
        <time>2021-11-22T13:38:37.564Z</time>
      </trkpt>
      <trkpt lat="47.541253" lon="8.184529">
        <ele>596.828575</ele>
        <time>2021-11-22T13:38:45.490Z</time>
      </trkpt>
      <trkpt lat="47.541337" lon="8.183941">
        <ele>593.060973</ele>
        <time>2021-11-22T13:38:48.950Z</time>
      </trkpt>
      <trkpt lat="47.541372" lon="8.183706">
        <ele>591.552412</ele>
        <time>2021-11-22T13:38:50.319Z</time>
      </trkpt>
      <trkpt lat="47.541456" lon="8.183299">
        <ele>588.884496</ele>
        <time>2021-11-22T13:38:52.766Z</time>
      </trkpt>
      <trkpt lat="47.541555" lon="8.182888">
        <ele>585.542872</ele>
        <time>2021-11-22T13:38:55.254Z</time>
      </trkpt>
      <trkpt lat="47.541775" lon="8.182085">
        <ele>577.865169</ele>
        <time>2021-11-22T13:39:00.139Z</time>
      </trkpt>
      <trkpt lat="47.542275" lon="8.180404">
        <ele>562.277944</ele>
        <time>2021-11-22T13:39:10.524Z</time>
      </trkpt>
      <trkpt lat="47.542393" lon="8.180200">
        <ele>560.573784</ele>
        <time>2021-11-22T13:39:12.065Z</time>
      </trkpt>
      <trkpt lat="47.542427" lon="8.180153">
        <ele>560.136784</ele>
        <time>2021-11-22T13:39:13.110Z</time>
      </trkpt>
      <trkpt lat="47.542849" lon="8.179744">
        <ele>555.397910</ele>
        <time>2021-11-22T13:39:25.754Z</time>
      </trkpt>
      <trkpt lat="47.543118" lon="8.179531">
        <ele>552.531655</ele>
        <time>2021-11-22T13:39:33.369Z</time>
      </trkpt>
      <trkpt lat="47.543176" lon="8.179544">
        <ele>551.980422</ele>
        <time>2021-11-22T13:39:33.899Z</time>
      </trkpt>
      <trkpt lat="47.543293" lon="8.179736">
        <ele>550.339647</ele>
        <time>2021-11-22T13:39:35.430Z</time>
      </trkpt>
      <trkpt lat="47.543305" lon="8.179775">
        <ele>550.067769</ele>
        <time>2021-11-22T13:39:35.667Z</time>
      </trkpt>
      <trkpt lat="47.543154" lon="8.180425">
        <ele>546.254685</ele>
        <time>2021-11-22T13:39:39.865Z</time>
      </trkpt>
      <trkpt lat="47.543096" lon="8.180990">
        <ele>544.046177</ele>
        <time>2021-11-22T13:39:43.490Z</time>
      </trkpt>
      <trkpt lat="47.543392" lon="8.182519">
        <ele>537.899288</ele>
        <time>2021-11-22T13:39:53.565Z</time>
      </trkpt>
      <trkpt lat="47.543406" lon="8.182573">
        <ele>537.675748</ele>
        <time>2021-11-22T13:39:53.897Z</time>
      </trkpt>
      <trkpt lat="47.543480" lon="8.182935">
        <ele>536.153506</ele>
        <time>2021-11-22T13:39:56.310Z</time>
      </trkpt>
      <trkpt lat="47.543565" lon="8.183342">
        <ele>534.340087</ele>
        <time>2021-11-22T13:39:58.959Z</time>
      </trkpt>
      <trkpt lat="47.543590" lon="8.183476">
        <ele>533.748332</ele>
        <time>2021-11-22T13:39:59.817Z</time>
      </trkpt>
      <trkpt lat="47.543634" lon="8.183625">
        <ele>533.056080</ele>
        <time>2021-11-22T13:40:00.771Z</time>
      </trkpt>
      <trkpt lat="47.544044" lon="8.184606">
        <ele>528.144907</ele>
        <time>2021-11-22T13:40:07.856Z</time>
      </trkpt>
      <trkpt lat="47.544138" lon="8.184789">
        <ele>527.166097</ele>
        <time>2021-11-22T13:40:09.246Z</time>
      </trkpt>
      <trkpt lat="47.544212" lon="8.184972">
        <ele>526.258095</ele>
        <time>2021-11-22T13:40:10.522Z</time>
      </trkpt>
      <trkpt lat="47.544353" lon="8.185471">
        <ele>523.910974</ele>
        <time>2021-11-22T13:40:13.853Z</time>
      </trkpt>
      <trkpt lat="47.544424" lon="8.186024">
        <ele>521.444428</ele>
        <time>2021-11-22T13:40:17.452Z</time>
      </trkpt>
      <trkpt lat="47.544507" lon="8.186163">
        <ele>520.631263</ele>
        <time>2021-11-22T13:40:18.601Z</time>
      </trkpt>
      <trkpt lat="47.544619" lon="8.186213">
        <ele>519.871945</ele>
        <time>2021-11-22T13:40:19.658Z</time>
      </trkpt>
      <trkpt lat="47.544725" lon="8.186193">
        <ele>519.178310</ele>
        <time>2021-11-22T13:40:20.671Z</time>
      </trkpt>
      <trkpt lat="47.544810" lon="8.186087">
        <ele>518.457086</ele>
        <time>2021-11-22T13:40:21.674Z</time>
      </trkpt>
      <trkpt lat="47.544872" lon="8.185362">
        <ele>515.254957</ele>
        <time>2021-11-22T13:40:26.092Z</time>
      </trkpt>
      <trkpt lat="47.545007" lon="8.184603">
        <ele>511.644442</ele>
        <time>2021-11-22T13:40:30.854Z</time>
      </trkpt>
      <trkpt lat="47.545020" lon="8.184519">
        <ele>511.234136</ele>
        <time>2021-11-22T13:40:31.361Z</time>
      </trkpt>
      <trkpt lat="47.545048" lon="8.184405">
        <ele>510.656561</ele>
        <time>2021-11-22T13:40:32.085Z</time>
      </trkpt>
      <trkpt lat="47.545071" lon="8.184309">
        <ele>510.171563</ele>
        <time>2021-11-22T13:40:32.667Z</time>
      </trkpt>
      <trkpt lat="47.545131" lon="8.184113">
        <ele>509.146917</ele>
        <time>2021-11-22T13:40:33.978Z</time>
      </trkpt>
      <trkpt lat="47.545189" lon="8.183981">
        <ele>508.397039</ele>
        <time>2021-11-22T13:40:34.930Z</time>
      </trkpt>
      <trkpt lat="47.545233" lon="8.183913">
        <ele>507.948565</ele>
        <time>2021-11-22T13:40:35.470Z</time>
      </trkpt>
      <trkpt lat="47.545370" lon="8.183783">
        <ele>506.801034</ele>
        <time>2021-11-22T13:40:36.960Z</time>
      </trkpt>
      <trkpt lat="47.545545" lon="8.183735">
        <ele>505.545727</ele>
        <time>2021-11-22T13:40:38.575Z</time>
      </trkpt>
      <trkpt lat="47.545614" lon="8.183745">
        <ele>505.056725</ele>
        <time>2021-11-22T13:40:39.176Z</time>
      </trkpt>
      <trkpt lat="47.545667" lon="8.183774">
        <ele>504.658216</ele>
        <time>2021-11-22T13:40:39.709Z</time>
      </trkpt>
      <trkpt lat="47.545828" lon="8.183838">
        <ele>503.482463</ele>
        <time>2021-11-22T13:40:41.252Z</time>
      </trkpt>
      <trkpt lat="47.545985" lon="8.183902">
        <ele>502.333936</ele>
        <time>2021-11-22T13:40:42.696Z</time>
      </trkpt>
      <trkpt lat="47.546078" lon="8.183925">
        <ele>501.668900</ele>
        <time>2021-11-22T13:40:43.576Z</time>
      </trkpt>
      <trkpt lat="47.546327" lon="8.183903">
        <ele>500.327737</ele>
        <time>2021-11-22T13:40:45.804Z</time>
      </trkpt>
      <trkpt lat="47.546418" lon="8.183901">
        <ele>499.909887</ele>
        <time>2021-11-22T13:40:46.640Z</time>
      </trkpt>
      <trkpt lat="47.546484" lon="8.183925">
        <ele>499.597869</ele>
        <time>2021-11-22T13:40:47.306Z</time>
      </trkpt>
      <trkpt lat="47.546552" lon="8.183986">
        <ele>499.232891</ele>
        <time>2021-11-22T13:40:48.063Z</time>
      </trkpt>
      <trkpt lat="47.546597" lon="8.184061">
        <ele>498.921910</ele>
        <time>2021-11-22T13:40:48.645Z</time>
      </trkpt>
      <trkpt lat="47.546713" lon="8.184384">
        <ele>497.788052</ele>
        <time>2021-11-22T13:40:50.953Z</time>
      </trkpt>
      <trkpt lat="47.546754" lon="8.184671">
        <ele>496.878924</ele>
        <time>2021-11-22T13:40:52.788Z</time>
      </trkpt>
      <trkpt lat="47.546710" lon="8.185525">
        <ele>494.224642</ele>
        <time>2021-11-22T13:40:58.552Z</time>
      </trkpt>
      <trkpt lat="47.546702" lon="8.185736">
        <ele>493.569712</ele>
        <time>2021-11-22T13:41:00.015Z</time>
      </trkpt>
      <trkpt lat="47.546713" lon="8.185804">
        <ele>493.353010</ele>
        <time>2021-11-22T13:41:00.479Z</time>
      </trkpt>
      <trkpt lat="47.546751" lon="8.185869">
        <ele>493.086521</ele>
        <time>2021-11-22T13:41:01.179Z</time>
      </trkpt>
      <trkpt lat="47.546791" lon="8.185915">
        <ele>492.854035</ele>
        <time>2021-11-22T13:41:01.773Z</time>
      </trkpt>
      <trkpt lat="47.546914" lon="8.186002">
        <ele>492.440586</ele>
        <time>2021-11-22T13:41:03.223Z</time>
      </trkpt>
      <trkpt lat="47.546993" lon="8.186066">
        <ele>492.168454</ele>
        <time>2021-11-22T13:41:04.174Z</time>
      </trkpt>
      <trkpt lat="47.547016" lon="8.186095">
        <ele>492.077173</ele>
        <time>2021-11-22T13:41:04.467Z</time>
      </trkpt>
      <trkpt lat="47.547154" lon="8.186335">
        <ele>491.433996</ele>
        <time>2021-11-22T13:41:06.980Z</time>
      </trkpt>
      <trkpt lat="47.547190" lon="8.186389">
        <ele>491.279160</ele>
        <time>2021-11-22T13:41:07.517Z</time>
      </trkpt>
      <trkpt lat="47.547308" lon="8.186546">
        <ele>490.799814</ele>
        <time>2021-11-22T13:41:09.136Z</time>
      </trkpt>
      <trkpt lat="47.547458" lon="8.186711">
        <ele>490.235162</ele>
        <time>2021-11-22T13:41:11.080Z</time>
      </trkpt>
      <trkpt lat="47.547530" lon="8.186777">
        <ele>489.979267</ele>
        <time>2021-11-22T13:41:11.905Z</time>
      </trkpt>
      <trkpt lat="47.547662" lon="8.186864">
        <ele>489.542620</ele>
        <time>2021-11-22T13:41:13.348Z</time>
      </trkpt>
      <trkpt lat="47.547688" lon="8.186873">
        <ele>489.461922</ele>
        <time>2021-11-22T13:41:13.613Z</time>
      </trkpt>
      <trkpt lat="47.547833" lon="8.186908">
        <ele>489.017903</ele>
        <time>2021-11-22T13:41:15.087Z</time>
      </trkpt>
      <trkpt lat="47.547919" lon="8.186917">
        <ele>488.757333</ele>
        <time>2021-11-22T13:41:15.892Z</time>
      </trkpt>
      <trkpt lat="47.548052" lon="8.186907">
        <ele>488.354843</ele>
        <time>2021-11-22T13:41:17.276Z</time>
      </trkpt>
      <trkpt lat="47.548192" lon="8.186871">
        <ele>487.925388</ele>
        <time>2021-11-22T13:41:18.721Z</time>
      </trkpt>
      <trkpt lat="47.548282" lon="8.186836">
        <ele>487.644162</ele>
        <time>2021-11-22T13:41:19.597Z</time>
      </trkpt>
      <trkpt lat="47.548532" lon="8.186641">
        <ele>486.872986</ele>
        <time>2021-11-22T13:41:22.632Z</time>
      </trkpt>
      <trkpt lat="47.548674" lon="8.186493">
        <ele>486.417907</ele>
        <time>2021-11-22T13:41:24.394Z</time>
      </trkpt>
      <trkpt lat="47.548879" lon="8.186258">
        <ele>485.738505</ele>
        <time>2021-11-22T13:41:27.017Z</time>
      </trkpt>
      <trkpt lat="47.549047" lon="8.186089">
        <ele>485.206238</ele>
        <time>2021-11-22T13:41:29.130Z</time>
      </trkpt>
      <trkpt lat="47.549476" lon="8.185911">
        <ele>484.038497</ele>
        <time>2021-11-22T13:41:33.733Z</time>
      </trkpt>
      <trkpt lat="47.549993" lon="8.185950">
        <ele>482.704582</ele>
        <time>2021-11-22T13:41:39.250Z</time>
      </trkpt>
      <trkpt lat="47.550129" lon="8.185964">
        <ele>482.820113</ele>
        <time>2021-11-22T13:41:40.711Z</time>
      </trkpt>
      <trkpt lat="47.550243" lon="8.185976">
        <ele>482.916965</ele>
        <time>2021-11-22T13:41:42.114Z</time>
      </trkpt>
      <trkpt lat="47.550396" lon="8.185961">
        <ele>483.046909</ele>
        <time>2021-11-22T13:41:44.124Z</time>
      </trkpt>
      <trkpt lat="47.550661" lon="8.185911">
        <ele>483.273296</ele>
        <time>2021-11-22T13:41:48.240Z</time>
      </trkpt>
      <trkpt lat="47.550775" lon="8.185862">
        <ele>483.373889</ele>
        <time>2021-11-22T13:41:50.150Z</time>
      </trkpt>
      <trkpt lat="47.552101" lon="8.185355">
        <ele>485.466559</ele>
        <time>2021-11-22T13:42:22.337Z</time>
      </trkpt>
      <trkpt lat="47.552746" lon="8.185180">
        <ele>487.686753</ele>
        <time>2021-11-22T13:42:42.189Z</time>
      </trkpt>
      <trkpt lat="47.552981" lon="8.185161">
        <ele>488.483615</ele>
        <time>2021-11-22T13:42:49.929Z</time>
      </trkpt>
      <trkpt lat="47.553227" lon="8.185177">
        <ele>489.317339</ele>
        <time>2021-11-22T13:42:56.596Z</time>
      </trkpt>
      <trkpt lat="47.553316" lon="8.185187">
        <ele>489.619546</ele>
        <time>2021-11-22T13:43:00.025Z</time>
      </trkpt>
      <trkpt lat="47.553859" lon="8.185383">
        <ele>490.874867</ele>
        <time>2021-11-22T13:43:15.772Z</time>
      </trkpt>
      <trkpt lat="47.554267" lon="8.185677">
        <ele>491.594688</ele>
        <time>2021-11-22T13:43:28.405Z</time>
      </trkpt>
      <trkpt lat="47.554367" lon="8.185749">
        <ele>491.771087</ele>
        <time>2021-11-22T13:43:31.608Z</time>
      </trkpt>
      <trkpt lat="47.554800" lon="8.186250">
        <ele>492.642724</ele>
        <time>2021-11-22T13:43:41.256Z</time>
      </trkpt>
      <trkpt lat="47.554972" lon="8.186525">
        <ele>493.044194</ele>
        <time>2021-11-22T13:43:44.514Z</time>
      </trkpt>
      <trkpt lat="47.555272" lon="8.187188">
        <ele>491.759668</ele>
        <time>2021-11-22T13:43:50.789Z</time>
      </trkpt>
      <trkpt lat="47.556132" lon="8.189993">
        <ele>484.166351</ele>
        <time>2021-11-22T13:44:11.164Z</time>
      </trkpt>
      <trkpt lat="47.556798" lon="8.191880">
        <ele>477.026941</ele>
        <time>2021-11-22T13:44:24.617Z</time>
      </trkpt>
      <trkpt lat="47.557188" lon="8.192350">
        <ele>474.206924</ele>
        <time>2021-11-22T13:44:29.233Z</time>
      </trkpt>
      <trkpt lat="47.557539" lon="8.192482">
        <ele>472.175473</ele>
        <time>2021-11-22T13:44:32.577Z</time>
      </trkpt>
      <trkpt lat="47.557714" lon="8.192494">
        <ele>471.192713</ele>
        <time>2021-11-22T13:44:34.252Z</time>
      </trkpt>
      <trkpt lat="47.557808" lon="8.192484">
        <ele>470.664037</ele>
        <time>2021-11-22T13:44:35.077Z</time>
      </trkpt>
      <trkpt lat="47.558109" lon="8.192336">
        <ele>468.885594</ele>
        <time>2021-11-22T13:44:38.038Z</time>
      </trkpt>
      <trkpt lat="47.558371" lon="8.192047">
        <ele>467.059516</ele>
        <time>2021-11-22T13:44:41.090Z</time>
      </trkpt>
      <trkpt lat="47.559378" lon="8.189953">
        <ele>457.838493</ele>
        <time>2021-11-22T13:44:57.158Z</time>
      </trkpt>
      <trkpt lat="47.559488" lon="8.189816">
        <ele>457.267985</ele>
        <time>2021-11-22T13:44:58.453Z</time>
      </trkpt>
      <trkpt lat="47.559559" lon="8.189740">
        <ele>456.920235</ele>
        <time>2021-11-22T13:44:59.331Z</time>
      </trkpt>
      <trkpt lat="47.559834" lon="8.189566">
        <ele>455.733019</ele>
        <time>2021-11-22T13:45:02.207Z</time>
      </trkpt>
      <trkpt lat="47.560109" lon="8.189498">
        <ele>454.626070</ele>
        <time>2021-11-22T13:45:05.065Z</time>
      </trkpt>
      <trkpt lat="47.560673" lon="8.189659">
        <ele>452.345610</ele>
        <time>2021-11-22T13:45:10.865Z</time>
      </trkpt>
      <trkpt lat="47.560801" lon="8.189726">
        <ele>451.842128</ele>
        <time>2021-11-22T13:45:12.310Z</time>
      </trkpt>
      <trkpt lat="47.560917" lon="8.189786">
        <ele>451.612500</ele>
        <time>2021-11-22T13:45:13.476Z</time>
      </trkpt>
      <trkpt lat="47.561339" lon="8.190034">
        <ele>450.764036</ele>
        <time>2021-11-22T13:45:18.756Z</time>
      </trkpt>
      <trkpt lat="47.562270" lon="8.190771">
        <ele>448.791319</ele>
        <time>2021-11-22T13:45:31.059Z</time>
      </trkpt>
      <trkpt lat="47.562600" lon="8.191109">
        <ele>447.796338</ele>
        <time>2021-11-22T13:45:35.478Z</time>
      </trkpt>
      <trkpt lat="47.562742" lon="8.191268">
        <ele>447.290320</ele>
        <time>2021-11-22T13:45:37.393Z</time>
      </trkpt>
      <trkpt lat="47.563121" lon="8.191765">
        <ele>445.851455</ele>
        <time>2021-11-22T13:45:42.576Z</time>
      </trkpt>
      <trkpt lat="47.563220" lon="8.191911">
        <ele>445.454357</ele>
        <time>2021-11-22T13:45:44.040Z</time>
      </trkpt>
      <trkpt lat="47.563443" lon="8.192289">
        <ele>444.491077</ele>
        <time>2021-11-22T13:45:47.477Z</time>
      </trkpt>
      <trkpt lat="47.563580" lon="8.192549">
        <ele>443.858197</ele>
        <time>2021-11-22T13:45:49.690Z</time>
      </trkpt>
      <trkpt lat="47.563699" lon="8.192817">
        <ele>443.256380</ele>
        <time>2021-11-22T13:45:51.927Z</time>
      </trkpt>
      <trkpt lat="47.563876" lon="8.193308">
        <ele>442.282335</ele>
        <time>2021-11-22T13:45:55.648Z</time>
      </trkpt>
      <trkpt lat="47.563969" lon="8.193666">
        <ele>441.611107</ele>
        <time>2021-11-22T13:45:58.101Z</time>
      </trkpt>
      <trkpt lat="47.564019" lon="8.193989">
        <ele>441.031258</ele>
        <time>2021-11-22T13:46:00.263Z</time>
      </trkpt>
      <trkpt lat="47.564028" lon="8.194134">
        <ele>440.776474</ele>
        <time>2021-11-22T13:46:01.172Z</time>
      </trkpt>
      <trkpt lat="47.564061" lon="8.194828">
        <ele>439.559142</ele>
        <time>2021-11-22T13:46:06.146Z</time>
      </trkpt>
      <trkpt lat="47.564079" lon="8.195206">
        <ele>438.896095</ele>
        <time>2021-11-22T13:46:09.797Z</time>
      </trkpt>
      <trkpt lat="47.564107" lon="8.195673">
        <ele>438.910189</ele>
        <time>2021-11-22T13:46:16.355Z</time>
      </trkpt>
      <trkpt lat="47.564110" lon="8.195703">
        <ele>438.924381</ele>
        <time>2021-11-22T13:46:16.535Z</time>
      </trkpt>
      <trkpt lat="47.564170" lon="8.196214">
        <ele>439.167109</ele>
        <time>2021-11-22T13:46:25.651Z</time>
      </trkpt>
      <trkpt lat="47.564213" lon="8.196452">
        <ele>439.282410</ele>
        <time>2021-11-22T13:46:29.701Z</time>
      </trkpt>
      <trkpt lat="47.564252" lon="8.196687">
        <ele>439.395661</ele>
        <time>2021-11-22T13:46:35.079Z</time>
      </trkpt>
      <trkpt lat="47.564411" lon="8.197395">
        <ele>439.744853</ele>
        <time>2021-11-22T13:46:43.594Z</time>
      </trkpt>
      <trkpt lat="47.564571" lon="8.198114">
        <ele>439.118481</ele>
        <time>2021-11-22T13:46:49.611Z</time>
      </trkpt>
      <trkpt lat="47.564609" lon="8.198243">
        <ele>438.635146</ele>
        <time>2021-11-22T13:46:50.496Z</time>
      </trkpt>
      <trkpt lat="47.564682" lon="8.198489">
        <ele>437.712347</ele>
        <time>2021-11-22T13:46:53.525Z</time>
      </trkpt>
      <trkpt lat="47.564717" lon="8.198585">
        <ele>437.337659</ele>
        <time>2021-11-22T13:46:54.325Z</time>
      </trkpt>
      <trkpt lat="47.564786" lon="8.198730">
        <ele>436.728393</ele>
        <time>2021-11-22T13:46:55.424Z</time>
      </trkpt>
      <trkpt lat="47.564900" lon="8.198893">
        <ele>435.922266</ele>
        <time>2021-11-22T13:46:57.897Z</time>
      </trkpt>
      <trkpt lat="47.564963" lon="8.198970">
        <ele>435.506699</ele>
        <time>2021-11-22T13:46:58.663Z</time>
      </trkpt>
      <trkpt lat="47.565092" lon="8.199089">
        <ele>434.733438</ele>
        <time>2021-11-22T13:47:00.017Z</time>
      </trkpt>
      <trkpt lat="47.565203" lon="8.199174">
        <ele>434.097614</ele>
        <time>2021-11-22T13:47:01.609Z</time>
      </trkpt>
      <trkpt lat="47.565276" lon="8.199206">
        <ele>433.710210</ele>
        <time>2021-11-22T13:47:02.282Z</time>
      </trkpt>
      <trkpt lat="47.565402" lon="8.199270">
        <ele>433.032387</ele>
        <time>2021-11-22T13:47:03.432Z</time>
      </trkpt>
      <trkpt lat="47.566549" lon="8.199512">
        <ele>423.989153</ele>
        <time>2021-11-22T13:47:13.423Z</time>
      </trkpt>
      <trkpt lat="47.567182" lon="8.199624">
        <ele>417.979229</ele>
        <time>2021-11-22T13:47:18.923Z</time>
      </trkpt>
      <trkpt lat="47.567494" lon="8.199692">
        <ele>415.006244</ele>
        <time>2021-11-22T13:47:21.688Z</time>
      </trkpt>
      <trkpt lat="47.567549" lon="8.199701">
        <ele>414.484586</ele>
        <time>2021-11-22T13:47:22.160Z</time>
      </trkpt>
      <trkpt lat="47.567733" lon="8.199741">
        <ele>412.998573</ele>
        <time>2021-11-22T13:47:23.805Z</time>
      </trkpt>
      <trkpt lat="47.567931" lon="8.199770">
        <ele>411.562335</ele>
        <time>2021-11-22T13:47:25.526Z</time>
      </trkpt>
      <trkpt lat="47.568571" lon="8.199729">
        <ele>406.938140</ele>
        <time>2021-11-22T13:47:31.130Z</time>
      </trkpt>
      <trkpt lat="47.569431" lon="8.199372">
        <ele>400.824498</ele>
        <time>2021-11-22T13:47:39.274Z</time>
      </trkpt>
      <trkpt lat="47.569668" lon="8.199275">
        <ele>400.539889</ele>
        <time>2021-11-22T13:47:41.759Z</time>
      </trkpt>
      <trkpt lat="47.569710" lon="8.199256">
        <ele>400.489058</ele>
        <time>2021-11-22T13:47:42.237Z</time>
      </trkpt>
      <trkpt lat="47.569792" lon="8.199218">
        <ele>400.389606</ele>
        <time>2021-11-22T13:47:43.178Z</time>
      </trkpt>
      <trkpt lat="47.569934" lon="8.199154">
        <ele>400.217802</ele>
        <time>2021-11-22T13:47:44.793Z</time>
      </trkpt>
      <trkpt lat="47.570363" lon="8.199052">
        <ele>399.714861</ele>
        <time>2021-11-22T13:47:50.145Z</time>
      </trkpt>
      <trkpt lat="47.570594" lon="8.199059">
        <ele>399.447409</ele>
        <time>2021-11-22T13:47:53.821Z</time>
      </trkpt>
      <trkpt lat="47.571180" lon="8.199253">
        <ele>398.806821</ele>
        <time>2021-11-22T13:48:05.535Z</time>
      </trkpt>
      <trkpt lat="47.571416" lon="8.199356">
        <ele>398.810618</ele>
        <time>2021-11-22T13:48:10.958Z</time>
      </trkpt>
      <trkpt lat="47.571863" lon="8.199549">
        <ele>398.817803</ele>
        <time>2021-11-22T13:48:20.710Z</time>
      </trkpt>
      <trkpt lat="47.572250" lon="8.199723">
        <ele>398.824044</ele>
        <time>2021-11-22T13:48:28.414Z</time>
      </trkpt>
      <trkpt lat="47.572312" lon="8.199751">
        <ele>398.825044</ele>
        <time>2021-11-22T13:48:29.682Z</time>
      </trkpt>
      <trkpt lat="47.572804" lon="8.199969">
        <ele>398.832969</ele>
        <time>2021-11-22T13:48:36.953Z</time>
      </trkpt>
      <trkpt lat="47.574089" lon="8.200695">
        <ele>391.142085</ele>
        <time>2021-11-22T13:48:49.663Z</time>
      </trkpt>
      <trkpt lat="47.574247" lon="8.200781">
        <ele>390.159280</ele>
        <time>2021-11-22T13:48:51.120Z</time>
      </trkpt>
      <trkpt lat="47.574356" lon="8.200811">
        <ele>389.511944</ele>
        <time>2021-11-22T13:48:52.099Z</time>
      </trkpt>
      <trkpt lat="47.574450" lon="8.200829">
        <ele>388.958512</ele>
        <time>2021-11-22T13:48:53.017Z</time>
      </trkpt>
      <trkpt lat="47.574515" lon="8.200813">
        <ele>388.573776</ele>
        <time>2021-11-22T13:48:53.576Z</time>
      </trkpt>
      <trkpt lat="47.574616" lon="8.200755">
        <ele>387.905171</ele>
        <time>2021-11-22T13:48:54.521Z</time>
      </trkpt>
      <trkpt lat="47.575461" lon="8.199807">
        <ele>381.143985</ele>
        <time>2021-11-22T13:49:03.906Z</time>
      </trkpt>
      <trkpt lat="47.575594" lon="8.199685">
        <ele>380.146105</ele>
        <time>2021-11-22T13:49:05.363Z</time>
      </trkpt>
      <trkpt lat="47.575835" lon="8.199428">
        <ele>378.251964</ele>
        <time>2021-11-22T13:49:08.160Z</time>
      </trkpt>
      <trkpt lat="47.575939" lon="8.199309">
        <ele>377.413751</ele>
        <time>2021-11-22T13:49:09.507Z</time>
      </trkpt>
      <trkpt lat="47.575997" lon="8.199245">
        <ele>376.952436</ele>
        <time>2021-11-22T13:49:10.331Z</time>
      </trkpt>
      <trkpt lat="47.576040" lon="8.199164">
        <ele>376.689510</ele>
        <time>2021-11-22T13:49:11.013Z</time>
      </trkpt>
      <trkpt lat="47.576113" lon="8.198986">
        <ele>376.259540</ele>
        <time>2021-11-22T13:49:12.480Z</time>
      </trkpt>
      <trkpt lat="47.576243" lon="8.198668">
        <ele>375.492052</ele>
        <time>2021-11-22T13:49:15.013Z</time>
      </trkpt>
      <trkpt lat="47.576353" lon="8.198518">
        <ele>375.034742</ele>
        <time>2021-11-22T13:49:16.573Z</time>
      </trkpt>
      <trkpt lat="47.576370" lon="8.198512">
        <ele>374.981274</ele>
        <time>2021-11-22T13:49:16.729Z</time>
      </trkpt>
      <trkpt lat="47.576404" lon="8.198504">
        <ele>374.875943</ele>
        <time>2021-11-22T13:49:17.152Z</time>
      </trkpt>
      <trkpt lat="47.576449" lon="8.198516">
        <ele>374.736048</ele>
        <time>2021-11-22T13:49:17.692Z</time>
      </trkpt>
      <trkpt lat="47.576517" lon="8.198560">
        <ele>374.509034</ele>
        <time>2021-11-22T13:49:18.426Z</time>
      </trkpt>
      <trkpt lat="47.576579" lon="8.198621">
        <ele>374.281353</ele>
        <time>2021-11-22T13:49:19.138Z</time>
      </trkpt>
      <trkpt lat="47.576952" lon="8.199107">
        <ele>372.761905</ele>
        <time>2021-11-22T13:49:24.229Z</time>
      </trkpt>
      <trkpt lat="47.576993" lon="8.199134">
        <ele>372.624637</ele>
        <time>2021-11-22T13:49:24.827Z</time>
      </trkpt>
      <trkpt lat="47.577129" lon="8.199176">
        <ele>372.199590</ele>
        <time>2021-11-22T13:49:26.249Z</time>
      </trkpt>
      <trkpt lat="47.577220" lon="8.199207">
        <ele>371.913904</ele>
        <time>2021-11-22T13:49:27.231Z</time>
      </trkpt>
      <trkpt lat="47.577283" lon="8.199241">
        <ele>371.708768</ele>
        <time>2021-11-22T13:49:27.940Z</time>
      </trkpt>
      <trkpt lat="47.577432" lon="8.199320">
        <ele>371.247564</ele>
        <time>2021-11-22T13:49:29.711Z</time>
      </trkpt>
      <trkpt lat="47.577488" lon="8.199356">
        <ele>371.094265</ele>
        <time>2021-11-22T13:49:30.338Z</time>
      </trkpt>
      <trkpt lat="47.577794" lon="8.199631">
        <ele>370.195553</ele>
        <time>2021-11-22T13:49:34.078Z</time>
      </trkpt>
      <trkpt lat="47.577833" lon="8.199696">
        <ele>370.048172</ele>
        <time>2021-11-22T13:49:34.666Z</time>
      </trkpt>
      <trkpt lat="47.577966" lon="8.199918">
        <ele>369.545145</ele>
        <time>2021-11-22T13:49:36.920Z</time>
      </trkpt>
      <trkpt lat="47.578334" lon="8.200508">
        <ele>368.183767</ele>
        <time>2021-11-22T13:49:42.536Z</time>
      </trkpt>
      <trkpt lat="47.578441" lon="8.200648">
        <ele>367.825336</ele>
        <time>2021-11-22T13:49:44.005Z</time>
      </trkpt>
      <trkpt lat="47.578817" lon="8.201076">
        <ele>366.769637</ele>
        <time>2021-11-22T13:49:49.016Z</time>
      </trkpt>
      <trkpt lat="47.579131" lon="8.201438">
        <ele>366.441770</ele>
        <time>2021-11-22T13:49:53.372Z</time>
      </trkpt>
      <trkpt lat="47.579408" lon="8.201917">
        <ele>366.090972</ele>
        <time>2021-11-22T13:49:58.171Z</time>
      </trkpt>
      <trkpt lat="47.579523" lon="8.202175">
        <ele>365.919033</ele>
        <time>2021-11-22T13:50:00.844Z</time>
      </trkpt>
      <trkpt lat="47.579612" lon="8.202233">
        <ele>365.838900</ele>
        <time>2021-11-22T13:50:02.661Z</time>
      </trkpt>
      <trkpt lat="47.579686" lon="8.202374">
        <ele>365.739571</ele>
        <time>2021-11-22T13:50:05.034Z</time>
      </trkpt>
      <trkpt lat="47.579735" lon="8.202470">
        <ele>365.672636</ele>
        <time>2021-11-22T13:50:06.957Z</time>
      </trkpt>
      <trkpt lat="47.579917" lon="8.202787">
        <ele>365.441186</ele>
        <time>2021-11-22T13:50:13.166Z</time>
      </trkpt>
      <trkpt lat="47.580394" lon="8.203348">
        <ele>365.942510</ele>
        <time>2021-11-22T13:50:29.109Z</time>
      </trkpt>
      <trkpt lat="47.580448" lon="8.203389">
        <ele>366.013768</ele>
        <time>2021-11-22T13:50:30.350Z</time>
      </trkpt>
      <trkpt lat="47.580554" lon="8.203421">
        <ele>366.140821</ele>
        <time>2021-11-22T13:50:34.032Z</time>
      </trkpt>
      <trkpt lat="47.580665" lon="8.203400">
        <ele>366.272249</ele>
        <time>2021-11-22T13:50:36.636Z</time>
      </trkpt>
      <trkpt lat="47.581549" lon="8.203215">
        <ele>367.320812</ele>
        <time>2021-11-22T13:50:59.897Z</time>
      </trkpt>
      <trkpt lat="47.581618" lon="8.203163">
        <ele>367.411724</ele>
        <time>2021-11-22T13:51:02.124Z</time>
      </trkpt>
      <trkpt lat="47.582534" lon="8.202872">
        <ele>366.483234</ele>
        <time>2021-11-22T13:51:21.067Z</time>
      </trkpt>
      <trkpt lat="47.582711" lon="8.202807">
        <ele>366.282192</ele>
        <time>2021-11-22T13:51:23.827Z</time>
      </trkpt>
      <trkpt lat="47.583574" lon="8.202741">
        <ele>365.185474</ele>
        <time>2021-11-22T13:51:36.951Z</time>
      </trkpt>
      <trkpt lat="47.584291" lon="8.202749">
        <ele>363.651284</ele>
        <time>2021-11-22T13:51:47.698Z</time>
      </trkpt>
      <trkpt lat="47.584595" lon="8.202784">
        <ele>362.998864</ele>
        <time>2021-11-22T13:51:52.403Z</time>
      </trkpt>
      <trkpt lat="47.584778" lon="8.202834">
        <ele>362.600710</ele>
        <time>2021-11-22T13:51:55.236Z</time>
      </trkpt>
      <trkpt lat="47.584882" lon="8.202863">
        <ele>362.374282</ele>
        <time>2021-11-22T13:51:56.911Z</time>
      </trkpt>
      <trkpt lat="47.585408" lon="8.202985">
        <ele>361.708876</ele>
        <time>2021-11-22T13:52:05.613Z</time>
      </trkpt>
      <trkpt lat="47.586005" lon="8.203143">
        <ele>361.952417</ele>
        <time>2021-11-22T13:52:18.632Z</time>
      </trkpt>
      <trkpt lat="47.586081" lon="8.203166">
        <ele>361.983568</ele>
        <time>2021-11-22T13:52:20.084Z</time>
      </trkpt>
      <trkpt lat="47.586521" lon="8.203267">
        <ele>362.162375</ele>
        <time>2021-11-22T13:52:31.033Z</time>
      </trkpt>
      <trkpt lat="47.586697" lon="8.203308">
        <ele>362.233922</ele>
        <time>2021-11-22T13:52:36.013Z</time>
      </trkpt>
      <trkpt lat="47.587081" lon="8.203346">
        <ele>362.482450</ele>
        <time>2021-11-22T13:52:45.424Z</time>
      </trkpt>
      <trkpt lat="47.587223" lon="8.203331">
        <ele>362.706762</ele>
        <time>2021-11-22T13:52:48.698Z</time>
      </trkpt>
      <trkpt lat="47.587395" lon="8.203275">
        <ele>362.984235</ele>
        <time>2021-11-22T13:52:53.607Z</time>
      </trkpt>
      <trkpt lat="47.587806" lon="8.203077">
        <ele>363.665162</ele>
        <time>2021-11-22T13:53:04.937Z</time>
      </trkpt>
      <trkpt lat="47.588204" lon="8.202896">
        <ele>364.321114</ele>
        <time>2021-11-22T13:53:16.281Z</time>
      </trkpt>
      <trkpt lat="47.588345" lon="8.202845">
        <ele>364.549799</ele>
        <time>2021-11-22T13:53:19.911Z</time>
      </trkpt>
      <trkpt lat="47.589607" lon="8.202594">
        <ele>367.433933</ele>
        <time>2021-11-22T13:53:55.383Z</time>
      </trkpt>
      <trkpt lat="47.589702" lon="8.202598">
        <ele>367.679935</ele>
        <time>2021-11-22T13:53:57.936Z</time>
      </trkpt>
      <trkpt lat="47.589867" lon="8.202543">
        <ele>368.117690</ele>
        <time>2021-11-22T13:54:02.591Z</time>
      </trkpt>
      <trkpt lat="47.590000" lon="8.202394">
        <ele>368.549174</ele>
        <time>2021-11-22T13:54:08.707Z</time>
      </trkpt>
      <trkpt lat="47.590478" lon="8.201933">
        <ele>370.165816</ele>
        <time>2021-11-22T13:54:27.704Z</time>
      </trkpt>
      <trkpt lat="47.591025" lon="8.201600">
        <ele>372.898737</ele>
        <time>2021-11-22T13:54:49.944Z</time>
      </trkpt>
      <trkpt lat="47.591175" lon="8.201543">
        <ele>373.614414</ele>
        <time>2021-11-22T13:54:55.904Z</time>
      </trkpt>
      <trkpt lat="47.591322" lon="8.201487">
        <ele>374.315885</ele>
        <time>2021-11-22T13:55:02.515Z</time>
      </trkpt>
      <trkpt lat="47.591816" lon="8.201262">
        <ele>376.704348</ele>
        <time>2021-11-22T13:55:22.984Z</time>
      </trkpt>
      <trkpt lat="47.592136" lon="8.200981">
        <ele>378.339614</ele>
        <time>2021-11-22T13:55:38.441Z</time>
      </trkpt>
      <trkpt lat="47.592368" lon="8.200605">
        <ele>379.425243</ele>
        <time>2021-11-22T13:55:52.527Z</time>
      </trkpt>
      <trkpt lat="47.592546" lon="8.200091">
        <ele>380.656108</ele>
        <time>2021-11-22T13:56:07.195Z</time>
      </trkpt>
      <trkpt lat="47.592591" lon="8.199952">
        <ele>380.984561</ele>
        <time>2021-11-22T13:56:11.833Z</time>
      </trkpt>
      <trkpt lat="47.592615" lon="8.199779">
        <ele>381.360809</ele>
        <time>2021-11-22T13:56:15.483Z</time>
      </trkpt>
      <trkpt lat="47.592694" lon="8.199627">
        <ele>381.769603</ele>
        <time>2021-11-22T13:56:18.325Z</time>
      </trkpt>
      <trkpt lat="47.592717" lon="8.199521">
        <ele>382.006808</ele>
        <time>2021-11-22T13:56:20.665Z</time>
      </trkpt>
      <trkpt lat="47.592690" lon="8.199341">
        <ele>382.399619</ele>
        <time>2021-11-22T13:56:24.715Z</time>
      </trkpt>
      <trkpt lat="47.592600" lon="8.199186">
        <ele>382.835327</ele>
        <time>2021-11-22T13:56:27.821Z</time>
      </trkpt>
      <trkpt lat="47.592464" lon="8.198657">
        <ele>383.766131</ele>
        <time>2021-11-22T13:56:37.122Z</time>
      </trkpt>
      <trkpt lat="47.592387" lon="8.197728">
        <ele>383.027495</ele>
        <time>2021-11-22T13:56:52.050Z</time>
      </trkpt>
      <trkpt lat="47.592402" lon="8.197635">
        <ele>382.952034</ele>
        <time>2021-11-22T13:56:53.083Z</time>
      </trkpt>
      <trkpt lat="47.592417" lon="8.197496">
        <ele>382.840946</ele>
        <time>2021-11-22T13:56:54.464Z</time>
      </trkpt>
      <trkpt lat="47.592739" lon="8.196568">
        <ele>382.017372</ele>
        <time>2021-11-22T13:57:05.447Z</time>
      </trkpt>
      <trkpt lat="47.592818" lon="8.196012">
        <ele>381.037006</ele>
        <time>2021-11-22T13:57:11.054Z</time>
      </trkpt>
      <trkpt lat="47.592723" lon="8.195551">
        <ele>379.443852</ele>
        <time>2021-11-22T13:57:15.779Z</time>
      </trkpt>
      <trkpt lat="47.592675" lon="8.195458">
        <ele>379.056800</ele>
        <time>2021-11-22T13:57:16.844Z</time>
      </trkpt>
      <trkpt lat="47.592312" lon="8.194747">
        <ele>376.109498</ele>
        <time>2021-11-22T13:57:25.276Z</time>
      </trkpt>
      <trkpt lat="47.592217" lon="8.194467">
        <ele>375.073573</ele>
        <time>2021-11-22T13:57:28.012Z</time>
      </trkpt>
      <trkpt lat="47.591959" lon="8.193335">
        <ele>370.223578</ele>
        <time>2021-11-22T13:57:38.291Z</time>
      </trkpt>
      <trkpt lat="47.591757" lon="8.192398">
        <ele>365.342442</ele>
        <time>2021-11-22T13:57:46.684Z</time>
      </trkpt>
      <trkpt lat="47.591634" lon="8.191801">
        <ele>362.244983</ele>
        <time>2021-11-22T13:57:51.993Z</time>
      </trkpt>
      <trkpt lat="47.591408" lon="8.190630">
        <ele>357.328688</ele>
        <time>2021-11-22T13:58:02.504Z</time>
      </trkpt>
      <trkpt lat="47.591346" lon="8.190106">
        <ele>355.542554</ele>
        <time>2021-11-22T13:58:07.293Z</time>
      </trkpt>
      <trkpt lat="47.591312" lon="8.189555">
        <ele>353.684913</ele>
        <time>2021-11-22T13:58:12.534Z</time>
      </trkpt>
      <trkpt lat="47.591311" lon="8.189221">
        <ele>352.563538</ele>
        <time>2021-11-22T13:58:15.775Z</time>
      </trkpt>
      <trkpt lat="47.591375" lon="8.188440">
        <ele>350.259554</ele>
        <time>2021-11-22T13:58:23.393Z</time>
      </trkpt>
      <trkpt lat="47.591415" lon="8.188072">
        <ele>349.528453</ele>
        <time>2021-11-22T13:58:26.980Z</time>
      </trkpt>
      <trkpt lat="47.591513" lon="8.187349">
        <ele>348.082021</ele>
        <time>2021-11-22T13:58:34.517Z</time>
      </trkpt>
      <trkpt lat="47.591587" lon="8.186714">
        <ele>346.818093</ele>
        <time>2021-11-22T13:58:40.946Z</time>
      </trkpt>
      <trkpt lat="47.591595" lon="8.186565">
        <ele>346.524924</ele>
        <time>2021-11-22T13:58:42.402Z</time>
      </trkpt>
      <trkpt lat="47.591616" lon="8.185893">
        <ele>345.304476</ele>
        <time>2021-11-22T13:58:49.268Z</time>
      </trkpt>
      <trkpt lat="47.591576" lon="8.185277">
        <ele>344.495028</ele>
        <time>2021-11-22T13:58:55.756Z</time>
      </trkpt>
      <trkpt lat="47.591554" lon="8.185091">
        <ele>344.248029</ele>
        <time>2021-11-22T13:58:57.645Z</time>
      </trkpt>
      <trkpt lat="47.591381" lon="8.184020">
        <ele>342.807547</ele>
        <time>2021-11-22T13:59:09.634Z</time>
      </trkpt>
      <trkpt lat="47.590945" lon="8.182013">
        <ele>340.775055</ele>
        <time>2021-11-22T13:59:33.117Z</time>
      </trkpt>
      <trkpt lat="47.590938" lon="8.181982">
        <ele>340.748085</ele>
        <time>2021-11-22T13:59:33.523Z</time>
      </trkpt>
      <trkpt lat="47.590694" lon="8.180992">
        <ele>339.878491</ele>
        <time>2021-11-22T13:59:45.895Z</time>
      </trkpt>
      <trkpt lat="47.590644" lon="8.180804">
        <ele>339.812958</ele>
        <time>2021-11-22T13:59:48.394Z</time>
      </trkpt>
      <trkpt lat="47.590487" lon="8.180209">
        <ele>339.807478</ele>
        <time>2021-11-22T13:59:56.087Z</time>
      </trkpt>
      <trkpt lat="47.590442" lon="8.179962">
        <ele>339.805283</ele>
        <time>2021-11-22T13:59:59.042Z</time>
      </trkpt>
      <trkpt lat="47.590375" lon="8.179996">
        <ele>339.804382</ele>
        <time>2021-11-22T14:00:00.415Z</time>
      </trkpt>
      <trkpt lat="47.590351" lon="8.179884">
        <ele>339.803374</ele>
        <time>2021-11-22T14:00:01.723Z</time>
      </trkpt>
      <trkpt lat="47.590303" lon="8.179625">
        <ele>339.801070</ele>
        <time>2021-11-22T14:00:04.196Z</time>
      </trkpt>
      <trkpt lat="47.590215" lon="8.178972">
        <ele>339.795358</ele>
        <time>2021-11-22T14:00:11.305Z</time>
      </trkpt>
      <trkpt lat="47.590102" lon="8.178128">
        <ele>340.054813</ele>
        <time>2021-11-22T14:00:22.287Z</time>
      </trkpt>
      <trkpt lat="47.590057" lon="8.177917">
        <ele>340.212816</ele>
        <time>2021-11-22T14:00:25.516Z</time>
      </trkpt>
      <trkpt lat="47.589977" lon="8.177608">
        <ele>340.449133</ele>
        <time>2021-11-22T14:00:30.620Z</time>
      </trkpt>
      <trkpt lat="47.589591" lon="8.176143">
        <ele>341.572109</ele>
        <time>2021-11-22T14:00:51.298Z</time>
      </trkpt>
      <trkpt lat="47.589566" lon="8.176002">
        <ele>341.676202</ele>
        <time>2021-11-22T14:00:53.555Z</time>
      </trkpt>
      <trkpt lat="47.589515" lon="8.175608">
        <ele>341.485965</ele>
        <time>2021-11-22T14:00:57.583Z</time>
      </trkpt>
      <trkpt lat="47.589490" lon="8.175383">
        <ele>341.358519</ele>
        <time>2021-11-22T14:01:00.388Z</time>
      </trkpt>
      <trkpt lat="47.589478" lon="8.175262">
        <ele>341.290165</ele>
        <time>2021-11-22T14:01:01.285Z</time>
      </trkpt>
      <trkpt lat="47.589501" lon="8.174623">
        <ele>340.932523</ele>
        <time>2021-11-22T14:01:06.790Z</time>
      </trkpt>
      <trkpt lat="47.589693" lon="8.173800">
        <ele>340.445813</ele>
        <time>2021-11-22T14:01:13.972Z</time>
      </trkpt>
      <trkpt lat="47.589770" lon="8.173440">
        <ele>340.234736</ele>
        <time>2021-11-22T14:01:16.708Z</time>
      </trkpt>
      <trkpt lat="47.589843" lon="8.173241">
        <ele>339.902505</ele>
        <time>2021-11-22T14:01:18.349Z</time>
      </trkpt>
      <trkpt lat="47.589895" lon="8.173206">
        <ele>339.754481</ele>
        <time>2021-11-22T14:01:18.944Z</time>
      </trkpt>
      <trkpt lat="47.589945" lon="8.173167">
        <ele>339.608040</ele>
        <time>2021-11-22T14:01:19.508Z</time>
      </trkpt>
      <trkpt lat="47.589911" lon="8.172969">
        <ele>339.250863</ele>
        <time>2021-11-22T14:01:20.964Z</time>
      </trkpt>
      <trkpt lat="47.589842" lon="8.172596">
        <ele>338.574717</ele>
        <time>2021-11-22T14:01:23.620Z</time>
      </trkpt>
      <trkpt lat="47.589801" lon="8.172357">
        <ele>338.143603</ele>
        <time>2021-11-22T14:01:25.357Z</time>
      </trkpt>
      <trkpt lat="47.589753" lon="8.172071">
        <ele>337.628382</ele>
        <time>2021-11-22T14:01:27.334Z</time>
      </trkpt>
      <trkpt lat="47.589692" lon="8.171703">
        <ele>336.965913</ele>
        <time>2021-11-22T14:01:30.004Z</time>
      </trkpt>
      <trkpt lat="47.589628" lon="8.171343">
        <ele>336.315077</ele>
        <time>2021-11-22T14:01:32.597Z</time>
      </trkpt>
      <trkpt lat="47.589603" lon="8.171150">
        <ele>335.971515</ele>
        <time>2021-11-22T14:01:34.025Z</time>
      </trkpt>
      <trkpt lat="47.589507" lon="8.170514">
        <ele>335.188929</ele>
        <time>2021-11-22T14:01:38.843Z</time>
      </trkpt>
      <trkpt lat="47.589432" lon="8.170029">
        <ele>334.755880</ele>
        <time>2021-11-22T14:01:42.488Z</time>
      </trkpt>
      <trkpt lat="47.589422" lon="8.169985">
        <ele>334.715471</ele>
        <time>2021-11-22T14:01:42.844Z</time>
      </trkpt>
      <trkpt lat="47.589338" lon="8.169503">
        <ele>334.282207</ele>
        <time>2021-11-22T14:01:46.574Z</time>
      </trkpt>
      <trkpt lat="47.589280" lon="8.169122">
        <ele>333.942280</ele>
        <time>2021-11-22T14:01:49.489Z</time>
      </trkpt>
      <trkpt lat="47.589265" lon="8.169049">
        <ele>333.875865</ele>
        <time>2021-11-22T14:01:50.052Z</time>
      </trkpt>
      <trkpt lat="47.589149" lon="8.168412">
        <ele>333.301627</ele>
        <time>2021-11-22T14:01:55.991Z</time>
      </trkpt>
      <trkpt lat="47.589109" lon="8.168214">
        <ele>333.340619</ele>
        <time>2021-11-22T14:01:58.746Z</time>
      </trkpt>
      <trkpt lat="47.589090" lon="8.168074">
        <ele>333.488691</ele>
        <time>2021-11-22T14:02:00.282Z</time>
      </trkpt>
      <trkpt lat="47.588936" lon="8.167065">
        <ele>334.561349</ele>
        <time>2021-11-22T14:02:15.682Z</time>
      </trkpt>
      <trkpt lat="47.588919" lon="8.166964">
        <ele>334.669285</ele>
        <time>2021-11-22T14:02:17.249Z</time>
      </trkpt>
      <trkpt lat="47.588886" lon="8.166773">
        <ele>334.873723</ele>
        <time>2021-11-22T14:02:20.360Z</time>
      </trkpt>
      <trkpt lat="47.588804" lon="8.166249">
        <ele>335.431478</ele>
        <time>2021-11-22T14:02:28.557Z</time>
      </trkpt>
      <trkpt lat="47.588650" lon="8.165152">
        <ele>336.393258</ele>
        <time>2021-11-22T14:02:46.400Z</time>
      </trkpt>
      <trkpt lat="47.588496" lon="8.162682">
        <ele>337.613453</ele>
        <time>2021-11-22T14:03:16.439Z</time>
      </trkpt>
      <trkpt lat="47.588513" lon="8.157629">
        <ele>335.170639</ele>
        <time>2021-11-22T14:03:56.606Z</time>
      </trkpt>
      <trkpt lat="47.588519" lon="8.157044">
        <ele>336.438157</ele>
        <time>2021-11-22T14:04:07.653Z</time>
      </trkpt>
      <trkpt lat="47.588525" lon="8.156604">
        <ele>337.391588</ele>
        <time>2021-11-22T14:04:17.308Z</time>
      </trkpt>
      <trkpt lat="47.588527" lon="8.156347">
        <ele>337.948402</ele>
        <time>2021-11-22T14:04:23.324Z</time>
      </trkpt>
      <trkpt lat="47.588564" lon="8.154322">
        <ele>341.132974</ele>
        <time>2021-11-22T14:05:05.908Z</time>
      </trkpt>
      <trkpt lat="47.588556" lon="8.153527">
        <ele>341.594361</ele>
        <time>2021-11-22T14:05:16.903Z</time>
      </trkpt>
      <trkpt lat="47.588498" lon="8.152664">
        <ele>342.097638</ele>
        <time>2021-11-22T14:05:24.880Z</time>
      </trkpt>
      <trkpt lat="47.588281" lon="8.151539">
        <ele>339.148749</ele>
        <time>2021-11-22T14:05:32.588Z</time>
      </trkpt>
      <trkpt lat="47.588139" lon="8.151059">
        <ele>337.396660</ele>
        <time>2021-11-22T14:05:35.913Z</time>
      </trkpt>
      <trkpt lat="47.587893" lon="8.150269">
        <ele>334.488000</ele>
        <time>2021-11-22T14:05:41.241Z</time>
      </trkpt>
      <trkpt lat="47.587515" lon="8.149064">
        <ele>329.888892</ele>
        <time>2021-11-22T14:05:49.464Z</time>
      </trkpt>
      <trkpt lat="47.587422" lon="8.148776">
        <ele>328.770521</ele>
        <time>2021-11-22T14:05:51.400Z</time>
      </trkpt>
      <trkpt lat="47.587348" lon="8.148547">
        <ele>327.881144</ele>
        <time>2021-11-22T14:05:53.029Z</time>
      </trkpt>
      <trkpt lat="47.587271" lon="8.148318">
        <ele>326.984924</ele>
        <time>2021-11-22T14:05:54.630Z</time>
      </trkpt>
      <trkpt lat="47.586874" lon="8.147126">
        <ele>323.583838</ele>
        <time>2021-11-22T14:06:03.434Z</time>
      </trkpt>
      <trkpt lat="47.586812" lon="8.146941">
        <ele>323.408552</ele>
        <time>2021-11-22T14:06:04.689Z</time>
      </trkpt>
      <trkpt lat="47.586747" lon="8.146748">
        <ele>323.225507</ele>
        <time>2021-11-22T14:06:08.322Z</time>
      </trkpt>
      <trkpt lat="47.586480" lon="8.145943">
        <ele>322.464325</ele>
        <time>2021-11-22T14:06:15.538Z</time>
      </trkpt>
      <trkpt lat="47.586444" lon="8.145833">
        <ele>322.360580</ele>
        <time>2021-11-22T14:06:19.058Z</time>
      </trkpt>
      <trkpt lat="47.586304" lon="8.145415">
        <ele>321.964574</ele>
        <time>2021-11-22T14:06:23.002Z</time>
      </trkpt>
      <trkpt lat="47.586286" lon="8.145363">
        <ele>321.914979</ele>
        <time>2021-11-22T14:06:24.908Z</time>
      </trkpt>
      <trkpt lat="47.586191" lon="8.145057">
        <ele>321.771037</ele>
        <time>2021-11-22T14:06:27.212Z</time>
      </trkpt>
      <trkpt lat="47.586082" lon="8.144714">
        <ele>321.939047</ele>
        <time>2021-11-22T14:06:34.420Z</time>
      </trkpt>
      <trkpt lat="47.586071" lon="8.144677">
        <ele>321.956964</ele>
        <time>2021-11-22T14:06:34.675Z</time>
      </trkpt>
      <trkpt lat="47.586002" lon="8.144470">
        <ele>322.059277</ele>
        <time>2021-11-22T14:06:36.686Z</time>
      </trkpt>
      <trkpt lat="47.585989" lon="8.144423">
        <ele>322.081786</ele>
        <time>2021-11-22T14:06:38.671Z</time>
      </trkpt>
      <trkpt lat="47.585856" lon="8.144060">
        <ele>322.264834</ele>
        <time>2021-11-22T14:06:41.856Z</time>
      </trkpt>
      <trkpt lat="47.585796" lon="8.143867">
        <ele>322.359001</ele>
        <time>2021-11-22T14:06:46.817Z</time>
      </trkpt>
      <trkpt lat="47.585413" lon="8.142895">
        <ele>322.857815</ele>
        <time>2021-11-22T14:07:00.344Z</time>
      </trkpt>
      <trkpt lat="47.585261" lon="8.142529">
        <ele>322.857654</ele>
        <time>2021-11-22T14:07:05.445Z</time>
      </trkpt>
      <trkpt lat="47.584064" lon="8.139642">
        <ele>323.763185</ele>
        <time>2021-11-22T14:07:35.934Z</time>
      </trkpt>
      <trkpt lat="47.584040" lon="8.139585">
        <ele>323.842623</ele>
        <time>2021-11-22T14:07:36.766Z</time>
      </trkpt>
      <trkpt lat="47.583879" lon="8.139148">
        <ele>324.431295</ele>
        <time>2021-11-22T14:07:44.111Z</time>
      </trkpt>
      <trkpt lat="47.583837" lon="8.139029">
        <ele>324.590075</ele>
        <time>2021-11-22T14:07:46.600Z</time>
      </trkpt>
      <trkpt lat="47.583514" lon="8.138100">
        <ele>326.177221</ele>
        <time>2021-11-22T14:08:07.211Z</time>
      </trkpt>
      <trkpt lat="47.583437" lon="8.137880">
        <ele>327.162943</ele>
        <time>2021-11-22T14:08:12.913Z</time>
      </trkpt>
      <trkpt lat="47.583161" lon="8.137044">
        <ele>330.864637</ele>
        <time>2021-11-22T14:08:37.095Z</time>
      </trkpt>
      <trkpt lat="47.582702" lon="8.135441">
        <ele>337.404801</ele>
        <time>2021-11-22T14:09:27.147Z</time>
      </trkpt>
      <trkpt lat="47.582445" lon="8.133813">
        <ele>342.354174</ele>
        <time>2021-11-22T14:10:06.313Z</time>
      </trkpt>
      <trkpt lat="47.582405" lon="8.133220">
        <ele>344.118314</ele>
        <time>2021-11-22T14:10:16.394Z</time>
      </trkpt>
      <trkpt lat="47.582401" lon="8.132729">
        <ele>343.778051</ele>
        <time>2021-11-22T14:10:23.084Z</time>
      </trkpt>
      <trkpt lat="47.582502" lon="8.130347">
        <ele>341.857066</ele>
        <time>2021-11-22T14:10:40.184Z</time>
      </trkpt>
      <trkpt lat="47.582476" lon="8.129918">
        <ele>341.694292</ele>
        <time>2021-11-22T14:10:43.417Z</time>
      </trkpt>
      <trkpt lat="47.582452" lon="8.129518">
        <ele>341.542534</ele>
        <time>2021-11-22T14:10:46.571Z</time>
      </trkpt>
      <trkpt lat="47.582383" lon="8.129121">
        <ele>341.387605</ele>
        <time>2021-11-22T14:10:49.826Z</time>
      </trkpt>
      <trkpt lat="47.582333" lon="8.128926">
        <ele>341.308769</ele>
        <time>2021-11-22T14:10:52.090Z</time>
      </trkpt>
      <trkpt lat="47.582271" lon="8.128732">
        <ele>341.227643</ele>
        <time>2021-11-22T14:10:53.877Z</time>
      </trkpt>
      <trkpt lat="47.582054" lon="8.128175">
        <ele>340.984563</ele>
        <time>2021-11-22T14:11:00.811Z</time>
      </trkpt>
      <trkpt lat="47.581995" lon="8.128036">
        <ele>340.922499</ele>
        <time>2021-11-22T14:11:03.471Z</time>
      </trkpt>
      <trkpt lat="47.581682" lon="8.126961">
        <ele>342.928075</ele>
        <time>2021-11-22T14:11:23.155Z</time>
      </trkpt>
      <trkpt lat="47.581616" lon="8.126107">
        <ele>344.402841</ele>
        <time>2021-11-22T14:11:41.753Z</time>
      </trkpt>
      <trkpt lat="47.581853" lon="8.122293">
        <ele>347.188664</ele>
        <time>2021-11-22T14:12:36.019Z</time>
      </trkpt>
      <trkpt lat="47.581872" lon="8.121939">
        <ele>346.580119</ele>
        <time>2021-11-22T14:12:38.584Z</time>
      </trkpt>
      <trkpt lat="47.581925" lon="8.120891">
        <ele>344.779188</ele>
        <time>2021-11-22T14:12:45.641Z</time>
      </trkpt>
      <trkpt lat="47.581997" lon="8.119489">
        <ele>342.004357</ele>
        <time>2021-11-22T14:12:54.633Z</time>
      </trkpt>
      <trkpt lat="47.582058" lon="8.118074">
        <ele>338.803405</ele>
        <time>2021-11-22T14:13:04.233Z</time>
      </trkpt>
      <trkpt lat="47.581851" lon="8.116146">
        <ele>335.248511</ele>
        <time>2021-11-22T14:13:18.952Z</time>
      </trkpt>
      <trkpt lat="47.581747" lon="8.115421">
        <ele>334.034584</ele>
        <time>2021-11-22T14:13:24.191Z</time>
      </trkpt>
      <trkpt lat="47.581698" lon="8.115075">
        <ele>333.455564</ele>
        <time>2021-11-22T14:13:26.628Z</time>
      </trkpt>
      <trkpt lat="47.581610" lon="8.114392">
        <ele>332.031522</ele>
        <time>2021-11-22T14:13:31.366Z</time>
      </trkpt>
      <trkpt lat="47.581503" lon="8.113781">
        <ele>330.636845</ele>
        <time>2021-11-22T14:13:35.621Z</time>
      </trkpt>
      <trkpt lat="47.581427" lon="8.113428">
        <ele>329.818173</ele>
        <time>2021-11-22T14:13:38.088Z</time>
      </trkpt>
      <trkpt lat="47.581391" lon="8.113276">
        <ele>329.462249</ele>
        <time>2021-11-22T14:13:39.176Z</time>
      </trkpt>
      <trkpt lat="47.581277" lon="8.112870">
        <ele>328.490629</ele>
        <time>2021-11-22T14:13:42.094Z</time>
      </trkpt>
      <trkpt lat="47.581182" lon="8.112552">
        <ele>327.722224</ele>
        <time>2021-11-22T14:13:44.479Z</time>
      </trkpt>
      <trkpt lat="47.581045" lon="8.112180">
        <ele>326.933847</ele>
        <time>2021-11-22T14:13:47.436Z</time>
      </trkpt>
      <trkpt lat="47.580746" lon="8.111504">
        <ele>325.726440</ele>
        <time>2021-11-22T14:13:53.301Z</time>
      </trkpt>
      <trkpt lat="47.580670" lon="8.111332">
        <ele>325.419323</ele>
        <time>2021-11-22T14:13:54.805Z</time>
      </trkpt>
      <trkpt lat="47.580364" lon="8.110708">
        <ele>324.267023</ele>
        <time>2021-11-22T14:14:00.523Z</time>
      </trkpt>
      <trkpt lat="47.580212" lon="8.110399">
        <ele>323.695798</ele>
        <time>2021-11-22T14:14:03.379Z</time>
      </trkpt>
      <trkpt lat="47.579991" lon="8.109948">
        <ele>322.917830</ele>
        <time>2021-11-22T14:14:07.604Z</time>
      </trkpt>
      <trkpt lat="47.579823" lon="8.109617">
        <ele>322.384311</ele>
        <time>2021-11-22T14:14:10.764Z</time>
      </trkpt>
      <trkpt lat="47.579759" lon="8.109482">
        <ele>322.171789</ele>
        <time>2021-11-22T14:14:11.931Z</time>
      </trkpt>
      <trkpt lat="47.578335" lon="8.106654">
        <ele>318.111720</ele>
        <time>2021-11-22T14:14:38.280Z</time>
      </trkpt>
      <trkpt lat="47.578187" lon="8.106429">
        <ele>317.796255</ele>
        <time>2021-11-22T14:14:40.804Z</time>
      </trkpt>
      <trkpt lat="47.578068" lon="8.106263">
        <ele>317.553097</ele>
        <time>2021-11-22T14:14:42.751Z</time>
      </trkpt>
      <trkpt lat="47.577500" lon="8.105730">
        <ele>317.134769</ele>
        <time>2021-11-22T14:14:51.541Z</time>
      </trkpt>
      <trkpt lat="47.576841" lon="8.105315">
        <ele>317.108833</ele>
        <time>2021-11-22T14:15:02.291Z</time>
      </trkpt>
      <trkpt lat="47.576601" lon="8.105189">
        <ele>317.099610</ele>
        <time>2021-11-22T14:15:06.564Z</time>
      </trkpt>
      <trkpt lat="47.576181" lon="8.104949">
        <ele>317.065060</ele>
        <time>2021-11-22T14:15:14.295Z</time>
      </trkpt>
      <trkpt lat="47.575253" lon="8.104463">
        <ele>316.247585</ele>
        <time>2021-11-22T14:15:28.921Z</time>
      </trkpt>
      <trkpt lat="47.574899" lon="8.104362">
        <ele>315.948160</ele>
        <time>2021-11-22T14:15:33.174Z</time>
      </trkpt>
      <trkpt lat="47.574708" lon="8.104323">
        <ele>315.788020</ele>
        <time>2021-11-22T14:15:35.098Z</time>
      </trkpt>
      <trkpt lat="47.574232" lon="8.104312">
        <ele>315.218008</ele>
        <time>2021-11-22T14:15:40.293Z</time>
      </trkpt>
      <trkpt lat="47.573831" lon="8.104354">
        <ele>314.589067</ele>
        <time>2021-11-22T14:15:44.604Z</time>
      </trkpt>
      <trkpt lat="47.573668" lon="8.104380">
        <ele>314.332576</ele>
        <time>2021-11-22T14:15:46.228Z</time>
      </trkpt>
      <trkpt lat="47.573480" lon="8.104411">
        <ele>314.036630</ele>
        <time>2021-11-22T14:15:48.455Z</time>
      </trkpt>
      <trkpt lat="47.573446" lon="8.104418">
        <ele>313.982926</ele>
        <time>2021-11-22T14:15:48.807Z</time>
      </trkpt>
      <trkpt lat="47.573366" lon="8.104434">
        <ele>313.856629</ele>
        <time>2021-11-22T14:15:49.626Z</time>
      </trkpt>
      <trkpt lat="47.573291" lon="8.104448">
        <ele>313.738362</ele>
        <time>2021-11-22T14:15:50.349Z</time>
      </trkpt>
      <trkpt lat="47.572479" lon="8.104559">
        <ele>313.325249</ele>
        <time>2021-11-22T14:16:01.709Z</time>
      </trkpt>
      <trkpt lat="47.571788" lon="8.104486">
        <ele>315.222866</ele>
        <time>2021-11-22T14:16:16.290Z</time>
      </trkpt>
      <trkpt lat="47.571606" lon="8.104456">
        <ele>315.724481</ele>
        <time>2021-11-22T14:16:22.959Z</time>
      </trkpt>
      <trkpt lat="47.571492" lon="8.104392">
        <ele>316.058404</ele>
        <time>2021-11-22T14:16:26.447Z</time>
      </trkpt>
      <trkpt lat="47.571346" lon="8.104311">
        <ele>316.485431</ele>
        <time>2021-11-22T14:16:31.526Z</time>
      </trkpt>
      <trkpt lat="47.571354" lon="8.104222">
        <ele>316.651364</ele>
        <time>2021-11-22T14:16:33.980Z</time>
      </trkpt>
      <trkpt lat="47.571310" lon="8.104135">
        <ele>316.852307</ele>
        <time>2021-11-22T14:16:36.189Z</time>
      </trkpt>
      <trkpt lat="47.571041" lon="8.104109">
        <ele>317.590728</ele>
        <time>2021-11-22T14:16:45.211Z</time>
      </trkpt>
      <trkpt lat="47.570788" lon="8.103933">
        <ele>318.609872</ele>
        <time>2021-11-22T14:16:54.001Z</time>
      </trkpt>
      <trkpt lat="47.570667" lon="8.103884">
        <ele>319.086859</ele>
        <time>2021-11-22T14:16:58.908Z</time>
      </trkpt>
      <trkpt lat="47.570391" lon="8.103841">
        <ele>320.142176</ele>
        <time>2021-11-22T14:17:14.009Z</time>
      </trkpt>
      <trkpt lat="47.570159" lon="8.103813">
        <ele>321.027314</ele>
        <time>2021-11-22T14:17:21.647Z</time>
      </trkpt>
      <trkpt lat="47.569557" lon="8.103677">
        <ele>323.342957</ele>
        <time>2021-11-22T14:17:38.849Z</time>
      </trkpt>
      <trkpt lat="47.568220" lon="8.103389">
        <ele>327.386382</ele>
        <time>2021-11-22T14:18:13.736Z</time>
      </trkpt>
      <trkpt lat="47.567683" lon="8.103272">
        <ele>328.876866</ele>
        <time>2021-11-22T14:18:27.102Z</time>
      </trkpt>
      <trkpt lat="47.566684" lon="8.102974">
        <ele>331.512461</ele>
        <time>2021-11-22T14:18:53.774Z</time>
      </trkpt>
      <trkpt lat="47.565727" lon="8.102512">
        <ele>334.066644</ele>
        <time>2021-11-22T14:19:19.338Z</time>
      </trkpt>
      <trkpt lat="47.564165" lon="8.101615">
        <ele>337.140646</ele>
        <time>2021-11-22T14:19:54.529Z</time>
      </trkpt>
      <trkpt lat="47.563202" lon="8.101042">
        <ele>340.094489</ele>
        <time>2021-11-22T14:20:20.342Z</time>
      </trkpt>
      <trkpt lat="47.563031" lon="8.100935">
        <ele>340.646687</ele>
        <time>2021-11-22T14:20:27.225Z</time>
      </trkpt>
      <trkpt lat="47.562207" lon="8.100413">
        <ele>343.134179</ele>
        <time>2021-11-22T14:20:57.666Z</time>
      </trkpt>
      <trkpt lat="47.561466" lon="8.099697">
        <ele>344.991721</ele>
        <time>2021-11-22T14:21:28.566Z</time>
      </trkpt>
      <trkpt lat="47.560787" lon="8.098864">
        <ele>345.921066</ele>
        <time>2021-11-22T14:21:48.235Z</time>
      </trkpt>
      <trkpt lat="47.560171" lon="8.097877">
        <ele>342.945825</ele>
        <time>2021-11-22T14:22:01.816Z</time>
      </trkpt>
      <trkpt lat="47.559606" lon="8.096837">
        <ele>339.610447</ele>
        <time>2021-11-22T14:22:13.827Z</time>
      </trkpt>
      <trkpt lat="47.558983" lon="8.095482">
        <ele>333.653737</ele>
        <time>2021-11-22T14:22:28.355Z</time>
      </trkpt>
      <trkpt lat="47.558857" lon="8.095293">
        <ele>332.688535</ele>
        <time>2021-11-22T14:22:30.848Z</time>
      </trkpt>
      <trkpt lat="47.558776" lon="8.095210">
        <ele>332.158359</ele>
        <time>2021-11-22T14:22:32.097Z</time>
      </trkpt>
      <trkpt lat="47.558531" lon="8.094661">
        <ele>330.105858</ele>
        <time>2021-11-22T14:22:36.378Z</time>
      </trkpt>
      <trkpt lat="47.557677" lon="8.092776">
        <ele>324.321121</ele>
        <time>2021-11-22T14:22:51.803Z</time>
      </trkpt>
      <trkpt lat="47.556850" lon="8.091457">
        <ele>318.647404</ele>
        <time>2021-11-22T14:23:03.427Z</time>
      </trkpt>
      <trkpt lat="47.556692" lon="8.091113">
        <ele>317.323984</ele>
        <time>2021-11-22T14:23:06.030Z</time>
      </trkpt>
      <trkpt lat="47.556527" lon="8.090721">
        <ele>315.854624</ele>
        <time>2021-11-22T14:23:08.911Z</time>
      </trkpt>
      <trkpt lat="47.556259" lon="8.090058">
        <ele>314.091964</ele>
        <time>2021-11-22T14:23:13.823Z</time>
      </trkpt>
      <trkpt lat="47.556193" lon="8.089926">
        <ele>313.731870</ele>
        <time>2021-11-22T14:23:14.955Z</time>
      </trkpt>
      <trkpt lat="47.556110" lon="8.089809">
        <ele>313.359790</ele>
        <time>2021-11-22T14:23:16.033Z</time>
      </trkpt>
      <trkpt lat="47.556137" lon="8.089730">
        <ele>313.165687</ele>
        <time>2021-11-22T14:23:16.586Z</time>
      </trkpt>
      <trkpt lat="47.556151" lon="8.089459">
        <ele>312.569933</ele>
        <time>2021-11-22T14:23:18.429Z</time>
      </trkpt>
      <trkpt lat="47.556111" lon="8.089266">
        <ele>312.127389</ele>
        <time>2021-11-22T14:23:19.718Z</time>
      </trkpt>
      <trkpt lat="47.556065" lon="8.089084">
        <ele>311.701396</ele>
        <time>2021-11-22T14:23:21.028Z</time>
      </trkpt>
      <trkpt lat="47.555997" lon="8.088801">
        <ele>311.042931</ele>
        <time>2021-11-22T14:23:23.337Z</time>
      </trkpt>
      <trkpt lat="47.555991" lon="8.088778">
        <ele>310.988881</ele>
        <time>2021-11-22T14:23:23.575Z</time>
      </trkpt>
      <trkpt lat="47.555939" lon="8.088552">
        <ele>310.465501</ele>
        <time>2021-11-22T14:23:25.405Z</time>
      </trkpt>
      <trkpt lat="47.555887" lon="8.088299">
        <ele>309.885790</ele>
        <time>2021-11-22T14:23:27.916Z</time>
      </trkpt>
      <trkpt lat="47.555829" lon="8.087941">
        <ele>310.318606</ele>
        <time>2021-11-22T14:23:31.732Z</time>
      </trkpt>
      <trkpt lat="47.555809" lon="8.087783">
        <ele>310.578955</ele>
        <time>2021-11-22T14:23:33.343Z</time>
      </trkpt>
      <trkpt lat="47.555780" lon="8.087557">
        <ele>310.951528</ele>
        <time>2021-11-22T14:23:35.520Z</time>
      </trkpt>
      <trkpt lat="47.555737" lon="8.087083">
        <ele>311.726094</ele>
        <time>2021-11-22T14:23:43.147Z</time>
      </trkpt>
      <trkpt lat="47.555733" lon="8.086819">
        <ele>312.153760</ele>
        <time>2021-11-22T14:23:48.169Z</time>
      </trkpt>
      <trkpt lat="47.555764" lon="8.085769">
        <ele>313.855903</ele>
        <time>2021-11-22T14:24:10.005Z</time>
      </trkpt>
      <trkpt lat="47.555899" lon="8.084472">
        <ele>317.869691</ele>
        <time>2021-11-22T14:24:39.416Z</time>
      </trkpt>
      <trkpt lat="47.555956" lon="8.084115">
        <ele>319.062799</ele>
        <time>2021-11-22T14:24:48.170Z</time>
      </trkpt>
      <trkpt lat="47.556083" lon="8.083354">
        <ele>321.612313</ele>
        <time>2021-11-22T14:25:06.291Z</time>
      </trkpt>
      <trkpt lat="47.556470" lon="8.081563">
        <ele>327.657591</ele>
        <time>2021-11-22T14:25:52.852Z</time>
      </trkpt>
      <trkpt lat="47.556709" lon="8.080886">
        <ele>330.106893</ele>
        <time>2021-11-22T14:26:09.651Z</time>
      </trkpt>
      <trkpt lat="47.556853" lon="8.080477">
        <ele>331.407918</ele>
        <time>2021-11-22T14:26:18.908Z</time>
      </trkpt>
      <trkpt lat="47.557099" lon="8.079786">
        <ele>332.237058</ele>
        <time>2021-11-22T14:26:33.224Z</time>
      </trkpt>
      <trkpt lat="47.557256" lon="8.079416">
        <ele>332.700907</ele>
        <time>2021-11-22T14:26:39.924Z</time>
      </trkpt>
      <trkpt lat="47.557793" lon="8.078299">
        <ele>334.141458</ele>
        <time>2021-11-22T14:26:56.516Z</time>
      </trkpt>
      <trkpt lat="47.558613" lon="8.076826">
        <ele>332.338680</ele>
        <time>2021-11-22T14:27:11.080Z</time>
      </trkpt>
      <trkpt lat="47.559046" lon="8.076086">
        <ele>331.395545</ele>
        <time>2021-11-22T14:27:18.460Z</time>
      </trkpt>
      <trkpt lat="47.559426" lon="8.075372">
        <ele>330.464462</ele>
        <time>2021-11-22T14:27:25.457Z</time>
      </trkpt>
      <trkpt lat="47.559811" lon="8.074398">
        <ele>329.308680</ele>
        <time>2021-11-22T14:27:34.351Z</time>
      </trkpt>
      <trkpt lat="47.560318" lon="8.072316">
        <ele>326.767597</ele>
        <time>2021-11-22T14:27:51.623Z</time>
      </trkpt>
      <trkpt lat="47.560524" lon="8.071179">
        <ele>325.270539</ele>
        <time>2021-11-22T14:28:00.189Z</time>
      </trkpt>
      <trkpt lat="47.560553" lon="8.071099">
        <ele>325.132469</ele>
        <time>2021-11-22T14:28:00.800Z</time>
      </trkpt>
      <trkpt lat="47.560584" lon="8.070919">
        <ele>324.850027</ele>
        <time>2021-11-22T14:28:02.110Z</time>
      </trkpt>
      <trkpt lat="47.560739" lon="8.070551">
        <ele>324.190481</ele>
        <time>2021-11-22T14:28:05.197Z</time>
      </trkpt>
      <trkpt lat="47.560864" lon="8.070015">
        <ele>323.328263</ele>
        <time>2021-11-22T14:28:09.219Z</time>
      </trkpt>
      <trkpt lat="47.560904" lon="8.069780">
        <ele>322.959783</ele>
        <time>2021-11-22T14:28:10.963Z</time>
      </trkpt>
      <trkpt lat="47.560998" lon="8.069237">
        <ele>322.107485</ele>
        <time>2021-11-22T14:28:15.044Z</time>
      </trkpt>
      <trkpt lat="47.561130" lon="8.068650">
        <ele>321.534602</ele>
        <time>2021-11-22T14:28:19.714Z</time>
      </trkpt>
      <trkpt lat="47.561187" lon="8.068256">
        <ele>321.330360</ele>
        <time>2021-11-22T14:28:22.989Z</time>
      </trkpt>
      <trkpt lat="47.561229" lon="8.067903">
        <ele>321.148676</ele>
        <time>2021-11-22T14:28:26.027Z</time>
      </trkpt>
      <trkpt lat="47.561265" lon="8.067435">
        <ele>320.909927</ele>
        <time>2021-11-22T14:28:30.008Z</time>
      </trkpt>
      <trkpt lat="47.561276" lon="8.067022">
        <ele>320.700430</ele>
        <time>2021-11-22T14:28:33.926Z</time>
      </trkpt>
      <trkpt lat="47.561253" lon="8.066385">
        <ele>320.377095</ele>
        <time>2021-11-22T14:28:40.441Z</time>
      </trkpt>
      <trkpt lat="47.561108" lon="8.065242">
        <ele>320.240275</ele>
        <time>2021-11-22T14:28:52.809Z</time>
      </trkpt>
      <trkpt lat="47.561017" lon="8.064820">
        <ele>320.190998</ele>
        <time>2021-11-22T14:28:57.448Z</time>
      </trkpt>
      <trkpt lat="47.560887" lon="8.064271">
        <ele>320.126283</ele>
        <time>2021-11-22T14:29:02.646Z</time>
      </trkpt>
      <trkpt lat="47.560806" lon="8.064037">
        <ele>320.097030</ele>
        <time>2021-11-22T14:29:04.915Z</time>
      </trkpt>
      <trkpt lat="47.560719" lon="8.063873">
        <ele>320.073827</ele>
        <time>2021-11-22T14:29:06.698Z</time>
      </trkpt>
      <trkpt lat="47.560597" lon="8.063660">
        <ele>319.926462</ele>
        <time>2021-11-22T14:29:09.046Z</time>
      </trkpt>
      <trkpt lat="47.560392" lon="8.063300">
        <ele>319.658887</ele>
        <time>2021-11-22T14:29:12.996Z</time>
      </trkpt>
      <trkpt lat="47.560335" lon="8.063169">
        <ele>319.570345</ele>
        <time>2021-11-22T14:29:14.343Z</time>
      </trkpt>
      <trkpt lat="47.560443" lon="8.063042">
        <ele>319.454288</ele>
        <time>2021-11-22T14:29:16.011Z</time>
      </trkpt>
      <trkpt lat="47.560545" lon="8.062928">
        <ele>319.346744</ele>
        <time>2021-11-22T14:29:17.578Z</time>
      </trkpt>
      <trkpt lat="47.560580" lon="8.062890">
        <ele>319.310221</ele>
        <time>2021-11-22T14:29:18.114Z</time>
      </trkpt>
      <trkpt lat="47.560673" lon="8.062786">
        <ele>319.212147</ele>
        <time>2021-11-22T14:29:20.184Z</time>
      </trkpt>
      <trkpt lat="47.560765" lon="8.062729">
        <ele>319.128207</ele>
        <time>2021-11-22T14:29:21.936Z</time>
      </trkpt>
      <trkpt lat="47.560570" lon="8.061926">
        <ele>318.643435</ele>
        <time>2021-11-22T14:29:29.292Z</time>
      </trkpt>
      <trkpt lat="47.560335" lon="8.060984">
        <ele>318.247085</ele>
        <time>2021-11-22T14:29:37.621Z</time>
      </trkpt>
      <trkpt lat="47.560293" lon="8.060828">
        <ele>318.186000</ele>
        <time>2021-11-22T14:29:39.051Z</time>
      </trkpt>
      <trkpt lat="47.560262" lon="8.060729">
        <ele>318.146307</ele>
        <time>2021-11-22T14:29:40.006Z</time>
      </trkpt>
      <trkpt lat="47.560130" lon="8.060196">
        <ele>317.939816</ele>
        <time>2021-11-22T14:29:45.205Z</time>
      </trkpt>
      <trkpt lat="47.560069" lon="8.059943">
        <ele>317.842104</ele>
        <time>2021-11-22T14:29:47.617Z</time>
      </trkpt>
      <trkpt lat="47.560040" lon="8.059827">
        <ele>317.797114</ele>
        <time>2021-11-22T14:29:48.834Z</time>
      </trkpt>
      <trkpt lat="47.560019" lon="8.059741">
        <ele>317.763851</ele>
        <time>2021-11-22T14:29:49.725Z</time>
      </trkpt>
      <trkpt lat="47.559979" lon="8.059591">
        <ele>317.705192</ele>
        <time>2021-11-22T14:29:51.186Z</time>
      </trkpt>
      <trkpt lat="47.559859" lon="8.059093">
        <ele>317.552570</ele>
        <time>2021-11-22T14:29:56.208Z</time>
      </trkpt>
      <trkpt lat="47.559725" lon="8.058554">
        <ele>317.454602</ele>
        <time>2021-11-22T14:30:01.618Z</time>
      </trkpt>
      <trkpt lat="47.559654" lon="8.058257">
        <ele>317.400863</ele>
        <time>2021-11-22T14:30:04.570Z</time>
      </trkpt>
      <trkpt lat="47.559579" lon="8.057955">
        <ele>317.345979</ele>
        <time>2021-11-22T14:30:07.475Z</time>
      </trkpt>
      <trkpt lat="47.559548" lon="8.057827">
        <ele>317.322785</ele>
        <time>2021-11-22T14:30:08.770Z</time>
      </trkpt>
      <trkpt lat="47.559447" lon="8.057490">
        <ele>317.259894</ele>
        <time>2021-11-22T14:30:12.198Z</time>
      </trkpt>
      <trkpt lat="47.559294" lon="8.057130">
        <ele>317.187333</ele>
        <time>2021-11-22T14:30:16.336Z</time>
      </trkpt>
      <trkpt lat="47.559116" lon="8.056760">
        <ele>317.127497</ele>
        <time>2021-11-22T14:30:20.774Z</time>
      </trkpt>
      <trkpt lat="47.558662" lon="8.056061">
        <ele>317.087974</ele>
        <time>2021-11-22T14:30:30.112Z</time>
      </trkpt>
      <trkpt lat="47.558447" lon="8.055831">
        <ele>317.071967</ele>
        <time>2021-11-22T14:30:33.643Z</time>
      </trkpt>
      <trkpt lat="47.558239" lon="8.055639">
        <ele>317.057173</ele>
        <time>2021-11-22T14:30:37.325Z</time>
      </trkpt>
      <trkpt lat="47.558012" lon="8.055477">
        <ele>317.041963</ele>
        <time>2021-11-22T14:30:40.969Z</time>
      </trkpt>
      <trkpt lat="47.557918" lon="8.055409">
        <ele>317.035649</ele>
        <time>2021-11-22T14:30:42.767Z</time>
      </trkpt>
      <trkpt lat="47.557710" lon="8.055283">
        <ele>317.022451</ele>
        <time>2021-11-22T14:30:46.133Z</time>
      </trkpt>
      <trkpt lat="47.557500" lon="8.055133">
        <ele>317.010552</ele>
        <time>2021-11-22T14:30:49.957Z</time>
      </trkpt>
      <trkpt lat="47.557273" lon="8.054941">
        <ele>316.997211</ele>
        <time>2021-11-22T14:30:54.197Z</time>
      </trkpt>
      <trkpt lat="47.557097" lon="8.054768">
        <ele>316.986432</ele>
        <time>2021-11-22T14:30:57.162Z</time>
      </trkpt>
      <trkpt lat="47.557019" lon="8.054678">
        <ele>316.981386</ele>
        <time>2021-11-22T14:30:58.967Z</time>
      </trkpt>
      <trkpt lat="47.556494" lon="8.054073">
        <ele>316.947441</ele>
        <time>2021-11-22T14:31:07.818Z</time>
      </trkpt>
      <trkpt lat="47.556239" lon="8.053780">
        <ele>316.943194</ele>
        <time>2021-11-22T14:31:12.225Z</time>
      </trkpt>
      <trkpt lat="47.556032" lon="8.053510">
        <ele>317.031138</ele>
        <time>2021-11-22T14:31:16.449Z</time>
      </trkpt>
      <trkpt lat="47.555890" lon="8.053286">
        <ele>317.097279</ele>
        <time>2021-11-22T14:31:20.085Z</time>
      </trkpt>
      <trkpt lat="47.555773" lon="8.053070">
        <ele>317.156886</ele>
        <time>2021-11-22T14:31:23.027Z</time>
      </trkpt>
      <trkpt lat="47.555603" lon="8.052757">
        <ele>317.243355</ele>
        <time>2021-11-22T14:31:27.249Z</time>
      </trkpt>
      <trkpt lat="47.555259" lon="8.052135">
        <ele>317.416427</ele>
        <time>2021-11-22T14:31:35.946Z</time>
      </trkpt>
      <trkpt lat="47.554988" lon="8.051475">
        <ele>317.887941</ele>
        <time>2021-11-22T14:31:44.936Z</time>
      </trkpt>
      <trkpt lat="47.554715" lon="8.050527">
        <ele>318.995416</ele>
        <time>2021-11-22T14:31:59.726Z</time>
      </trkpt>
      <trkpt lat="47.554412" lon="8.049127">
        <ele>320.574827</ele>
        <time>2021-11-22T14:32:22.287Z</time>
      </trkpt>
      <trkpt lat="47.554309" lon="8.048719">
        <ele>321.042108</ele>
        <time>2021-11-22T14:32:29.304Z</time>
      </trkpt>
      <trkpt lat="47.553996" lon="8.047557">
        <ele>322.384208</ele>
        <time>2021-11-22T14:32:48.207Z</time>
      </trkpt>
      <trkpt lat="47.553619" lon="8.046372">
        <ele>323.073050</ele>
        <time>2021-11-22T14:33:04.456Z</time>
      </trkpt>
      <trkpt lat="47.553392" lon="8.045781">
        <ele>322.870543</ele>
        <time>2021-11-22T14:33:11.362Z</time>
      </trkpt>
      <trkpt lat="47.552844" lon="8.044355">
        <ele>322.186973</ele>
        <time>2021-11-22T14:33:24.781Z</time>
      </trkpt>
      <trkpt lat="47.551627" lon="8.041127">
        <ele>317.212965</ele>
        <time>2021-11-22T14:33:51.644Z</time>
      </trkpt>
      <trkpt lat="47.551167" lon="8.039905">
        <ele>315.454342</ele>
        <time>2021-11-22T14:34:02.274Z</time>
      </trkpt>
      <trkpt lat="47.551001" lon="8.039426">
        <ele>315.341827</ele>
        <time>2021-11-22T14:34:06.630Z</time>
      </trkpt>
      <trkpt lat="47.550515" lon="8.038174">
        <ele>315.210539</ele>
        <time>2021-11-22T14:34:20.333Z</time>
      </trkpt>
      <trkpt lat="47.550424" lon="8.037956">
        <ele>315.187239</ele>
        <time>2021-11-22T14:34:23.303Z</time>
      </trkpt>
      <trkpt lat="47.550111" lon="8.037123">
        <ele>315.408041</ele>
        <time>2021-11-22T14:34:35.671Z</time>
      </trkpt>
      <trkpt lat="47.549832" lon="8.036349">
        <ele>315.898615</ele>
        <time>2021-11-22T14:34:46.953Z</time>
      </trkpt>
      <trkpt lat="47.549753" lon="8.036077">
        <ele>316.064167</ele>
        <time>2021-11-22T14:34:50.726Z</time>
      </trkpt>
      <trkpt lat="47.549699" lon="8.035900">
        <ele>316.172764</ele>
        <time>2021-11-22T14:34:53.058Z</time>
      </trkpt>
      <trkpt lat="47.549632" lon="8.035633">
        <ele>316.332022</ele>
        <time>2021-11-22T14:34:56.376Z</time>
      </trkpt>
      <trkpt lat="47.549554" lon="8.035288">
        <ele>316.535439</ele>
        <time>2021-11-22T14:35:00.667Z</time>
      </trkpt>
      <trkpt lat="47.549494" lon="8.034935">
        <ele>316.650495</ele>
        <time>2021-11-22T14:35:05.126Z</time>
      </trkpt>
      <trkpt lat="47.549442" lon="8.034584">
        <ele>316.682956</ele>
        <time>2021-11-22T14:35:08.530Z</time>
      </trkpt>
      <trkpt lat="47.549395" lon="8.034029">
        <ele>316.733483</ele>
        <time>2021-11-22T14:35:14.591Z</time>
      </trkpt>
      <trkpt lat="47.549394" lon="8.034003">
        <ele>316.735835</ele>
        <time>2021-11-22T14:35:16.067Z</time>
      </trkpt>
      <trkpt lat="47.549386" lon="8.033799">
        <ele>316.754294</ele>
        <time>2021-11-22T14:35:17.599Z</time>
      </trkpt>
      <trkpt lat="47.549374" lon="8.033423">
        <ele>316.788296</ele>
        <time>2021-11-22T14:35:22.115Z</time>
      </trkpt>
      <trkpt lat="47.549363" lon="8.032869">
        <ele>316.838362</ele>
        <time>2021-11-22T14:35:27.275Z</time>
      </trkpt>
      <trkpt lat="47.549368" lon="8.032544">
        <ele>316.867727</ele>
        <time>2021-11-22T14:35:29.872Z</time>
      </trkpt>
      <trkpt lat="47.549372" lon="8.031883">
        <ele>316.926479</ele>
        <time>2021-11-22T14:35:36.891Z</time>
      </trkpt>
      <trkpt lat="47.549378" lon="8.030790">
        <ele>317.023435</ele>
        <time>2021-11-22T14:35:47.551Z</time>
      </trkpt>
      <trkpt lat="47.549380" lon="8.030702">
        <ele>317.031245</ele>
        <time>2021-11-22T14:35:48.391Z</time>
      </trkpt>
      <trkpt lat="47.549418" lon="8.028906">
        <ele>317.457034</ele>
        <time>2021-11-22T14:36:09.098Z</time>
      </trkpt>
      <trkpt lat="47.549431" lon="8.028306">
        <ele>317.687408</ele>
        <time>2021-11-22T14:36:15.843Z</time>
      </trkpt>
      <trkpt lat="47.549445" lon="8.027599">
        <ele>317.958841</ele>
        <time>2021-11-22T14:36:24.020Z</time>
      </trkpt>
      <trkpt lat="47.549454" lon="8.027138">
        <ele>318.135240</ele>
        <time>2021-11-22T14:36:29.546Z</time>
      </trkpt>
      <trkpt lat="47.549436" lon="8.026046">
        <ele>318.460642</ele>
        <time>2021-11-22T14:36:42.830Z</time>
      </trkpt>
      <trkpt lat="47.549322" lon="8.024323">
        <ele>318.896456</ele>
        <time>2021-11-22T14:37:01.426Z</time>
      </trkpt>
      <trkpt lat="47.549268" lon="8.023385">
        <ele>318.722517</ele>
        <time>2021-11-22T14:37:10.873Z</time>
      </trkpt>
      <trkpt lat="47.549244" lon="8.022943">
        <ele>318.640587</ele>
        <time>2021-11-22T14:37:15.113Z</time>
      </trkpt>
      <trkpt lat="47.549201" lon="8.022146">
        <ele>318.492860</ele>
        <time>2021-11-22T14:37:22.130Z</time>
      </trkpt>
      <trkpt lat="47.549191" lon="8.021436">
        <ele>318.109820</ele>
        <time>2021-11-22T14:37:28.097Z</time>
      </trkpt>
      <trkpt lat="47.549186" lon="8.021006">
        <ele>317.756380</ele>
        <time>2021-11-22T14:37:31.681Z</time>
      </trkpt>
      <trkpt lat="47.549208" lon="8.019997">
        <ele>316.926721</ele>
        <time>2021-11-22T14:37:39.918Z</time>
      </trkpt>
      <trkpt lat="47.549261" lon="8.017878">
        <ele>314.975394</ele>
        <time>2021-11-22T14:37:56.040Z</time>
      </trkpt>
      <trkpt lat="47.549256" lon="8.017769">
        <ele>314.867942</ele>
        <time>2021-11-22T14:37:56.904Z</time>
      </trkpt>
      <trkpt lat="47.549291" lon="8.017761">
        <ele>314.816338</ele>
        <time>2021-11-22T14:37:57.301Z</time>
      </trkpt>
      <trkpt lat="47.549324" lon="8.017738">
        <ele>314.763196</ele>
        <time>2021-11-22T14:37:57.691Z</time>
      </trkpt>
      <trkpt lat="47.549351" lon="8.017702">
        <ele>314.710266</ele>
        <time>2021-11-22T14:37:58.093Z</time>
      </trkpt>
      <trkpt lat="47.549370" lon="8.017656">
        <ele>314.657224</ele>
        <time>2021-11-22T14:37:58.552Z</time>
      </trkpt>
      <trkpt lat="47.549379" lon="8.017603">
        <ele>314.603473</ele>
        <time>2021-11-22T14:37:58.958Z</time>
      </trkpt>
      <trkpt lat="47.549377" lon="8.017547">
        <ele>314.548319</ele>
        <time>2021-11-22T14:37:59.516Z</time>
      </trkpt>
      <trkpt lat="47.549310" lon="8.017418">
        <ele>314.388228</ele>
        <time>2021-11-22T14:38:00.862Z</time>
      </trkpt>
      <trkpt lat="47.549274" lon="8.017401">
        <ele>314.333170</ele>
        <time>2021-11-22T14:38:01.344Z</time>
      </trkpt>
      <trkpt lat="47.549281" lon="8.017304">
        <ele>314.237224</ele>
        <time>2021-11-22T14:38:02.060Z</time>
      </trkpt>
      <trkpt lat="47.549431" lon="8.015998">
        <ele>313.034879</ele>
        <time>2021-11-22T14:38:12.804Z</time>
      </trkpt>
      <trkpt lat="47.549589" lon="8.015316">
        <ele>312.429189</ele>
        <time>2021-11-22T14:38:18.648Z</time>
      </trkpt>
      <trkpt lat="47.549795" lon="8.014667">
        <ele>311.826754</ele>
        <time>2021-11-22T14:38:24.464Z</time>
      </trkpt>
      <trkpt lat="47.549871" lon="8.014427">
        <ele>311.604069</ele>
        <time>2021-11-22T14:38:26.599Z</time>
      </trkpt>
      <trkpt lat="47.550001" lon="8.014034">
        <ele>311.225045</ele>
        <time>2021-11-22T14:38:29.987Z</time>
      </trkpt>
      <trkpt lat="47.550565" lon="8.012461">
        <ele>309.614336</ele>
        <time>2021-11-22T14:38:43.594Z</time>
      </trkpt>
      <trkpt lat="47.550764" lon="8.011985">
        <ele>309.108010</ele>
        <time>2021-11-22T14:38:48.094Z</time>
      </trkpt>
      <trkpt lat="47.551187" lon="8.011080">
        <ele>309.155714</ele>
        <time>2021-11-22T14:38:58.212Z</time>
      </trkpt>
      <trkpt lat="47.551275" lon="8.010934">
        <ele>309.192705</ele>
        <time>2021-11-22T14:39:00.022Z</time>
      </trkpt>
      <trkpt lat="47.551902" lon="8.009884">
        <ele>309.457637</ele>
        <time>2021-11-22T14:39:16.976Z</time>
      </trkpt>
      <trkpt lat="47.552604" lon="8.008677">
        <ele>310.312403</ele>
        <time>2021-11-22T14:39:39.456Z</time>
      </trkpt>
      <trkpt lat="47.552640" lon="8.008615">
        <ele>310.358450</ele>
        <time>2021-11-22T14:39:41.042Z</time>
      </trkpt>
      <trkpt lat="47.552935" lon="8.007851">
        <ele>310.853997</ele>
        <time>2021-11-22T14:39:50.641Z</time>
      </trkpt>
      <trkpt lat="47.553173" lon="8.006642">
        <ele>310.421624</ele>
        <time>2021-11-22T14:40:01.443Z</time>
      </trkpt>
      <trkpt lat="47.553211" lon="8.006270">
        <ele>310.219195</ele>
        <time>2021-11-22T14:40:04.657Z</time>
      </trkpt>
      <trkpt lat="47.553220" lon="8.006182">
        <ele>310.171307</ele>
        <time>2021-11-22T14:40:05.248Z</time>
      </trkpt>
      <trkpt lat="47.553251" lon="8.005657">
        <ele>309.887759</ele>
        <time>2021-11-22T14:40:09.496Z</time>
      </trkpt>
      <trkpt lat="47.553256" lon="8.004837">
        <ele>309.567273</ele>
        <time>2021-11-22T14:40:16.420Z</time>
      </trkpt>
      <trkpt lat="47.553266" lon="8.003502">
        <ele>309.725314</ele>
        <time>2021-11-22T14:40:29.007Z</time>
      </trkpt>
      <trkpt lat="47.553270" lon="8.002465">
        <ele>309.848072</ele>
        <time>2021-11-22T14:40:41.679Z</time>
      </trkpt>
      <trkpt lat="47.553271" lon="8.002109">
        <ele>309.980535</ele>
        <time>2021-11-22T14:40:46.657Z</time>
      </trkpt>
      <trkpt lat="47.553273" lon="8.001687">
        <ele>310.184823</ele>
        <time>2021-11-22T14:40:52.337Z</time>
      </trkpt>
      <trkpt lat="47.553275" lon="7.999860">
        <ele>311.069240</ele>
        <time>2021-11-22T14:41:14.524Z</time>
      </trkpt>
      <trkpt lat="47.553278" lon="7.999508">
        <ele>311.027260</ele>
        <time>2021-11-22T14:41:18.070Z</time>
      </trkpt>
      <trkpt lat="47.553287" lon="7.998380">
        <ele>310.263997</ele>
        <time>2021-11-22T14:41:27.837Z</time>
      </trkpt>
      <trkpt lat="47.553287" lon="7.997190">
        <ele>309.458838</ele>
        <time>2021-11-22T14:41:37.100Z</time>
      </trkpt>
      <trkpt lat="47.553279" lon="7.996528">
        <ele>308.624818</ele>
        <time>2021-11-22T14:41:42.100Z</time>
      </trkpt>
      <trkpt lat="47.553268" lon="7.996252">
        <ele>308.223488</ele>
        <time>2021-11-22T14:41:44.171Z</time>
      </trkpt>
      <trkpt lat="47.553246" lon="7.995617">
        <ele>307.300530</ele>
        <time>2021-11-22T14:41:48.353Z</time>
      </trkpt>
      <trkpt lat="47.553221" lon="7.995085">
        <ele>306.526427</ele>
        <time>2021-11-22T14:41:52.486Z</time>
      </trkpt>
      <trkpt lat="47.553164" lon="7.993925">
        <ele>305.349430</ele>
        <time>2021-11-22T14:42:01.889Z</time>
      </trkpt>
      <trkpt lat="47.553156" lon="7.993696">
        <ele>305.281956</ele>
        <time>2021-11-22T14:42:03.291Z</time>
      </trkpt>
      <trkpt lat="47.553137" lon="7.993190">
        <ele>305.132835</ele>
        <time>2021-11-22T14:42:07.903Z</time>
      </trkpt>
      <trkpt lat="47.553130" lon="7.993014">
        <ele>305.080957</ele>
        <time>2021-11-22T14:42:12.086Z</time>
      </trkpt>
      <trkpt lat="47.553107" lon="7.992226">
        <ele>304.848870</ele>
        <time>2021-11-22T14:42:18.871Z</time>
      </trkpt>
      <trkpt lat="47.553091" lon="7.991915">
        <ele>304.757092</ele>
        <time>2021-11-22T14:42:23.133Z</time>
      </trkpt>
      <trkpt lat="47.553050" lon="7.990744">
        <ele>303.602180</ele>
        <time>2021-11-22T14:42:35.967Z</time>
      </trkpt>
      <trkpt lat="47.553126" lon="7.990240">
        <ele>303.015620</ele>
        <time>2021-11-22T14:42:39.879Z</time>
      </trkpt>
      <trkpt lat="47.553146" lon="7.990113">
        <ele>302.867498</ele>
        <time>2021-11-22T14:42:40.808Z</time>
      </trkpt>
      <trkpt lat="47.553163" lon="7.990004">
        <ele>302.740432</ele>
        <time>2021-11-22T14:42:41.593Z</time>
      </trkpt>
      <trkpt lat="47.553214" lon="7.989758">
        <ele>302.448139</ele>
        <time>2021-11-22T14:42:43.372Z</time>
      </trkpt>
      <trkpt lat="47.553253" lon="7.989578">
        <ele>302.233418</ele>
        <time>2021-11-22T14:42:44.661Z</time>
      </trkpt>
      <trkpt lat="47.553352" lon="7.989142">
        <ele>301.710933</ele>
        <time>2021-11-22T14:42:47.757Z</time>
      </trkpt>
      <trkpt lat="47.553424" lon="7.988762">
        <ele>300.759477</ele>
        <time>2021-11-22T14:42:50.403Z</time>
      </trkpt>
      <trkpt lat="47.553410" lon="7.988607">
        <ele>300.361538</ele>
        <time>2021-11-22T14:42:51.435Z</time>
      </trkpt>
      <trkpt lat="47.553343" lon="7.988401">
        <ele>299.779642</ele>
        <time>2021-11-22T14:42:52.956Z</time>
      </trkpt>
      <trkpt lat="47.553232" lon="7.988247">
        <ele>299.206296</ele>
        <time>2021-11-22T14:42:54.428Z</time>
      </trkpt>
      <trkpt lat="47.552867" lon="7.987810">
        <ele>297.436964</ele>
        <time>2021-11-22T14:42:58.996Z</time>
      </trkpt>
      <trkpt lat="47.552713" lon="7.987638">
        <ele>296.709833</ele>
        <time>2021-11-22T14:43:00.834Z</time>
      </trkpt>
      <trkpt lat="47.552504" lon="7.987369">
        <ele>295.666020</ele>
        <time>2021-11-22T14:43:03.544Z</time>
      </trkpt>
      <trkpt lat="47.552436" lon="7.987273">
        <ele>295.311882</ele>
        <time>2021-11-22T14:43:04.488Z</time>
      </trkpt>
      <trkpt lat="47.552224" lon="7.986975">
        <ele>294.762611</ele>
        <time>2021-11-22T14:43:07.473Z</time>
      </trkpt>
      <trkpt lat="47.552152" lon="7.986883">
        <ele>294.696891</ele>
        <time>2021-11-22T14:43:08.454Z</time>
      </trkpt>
      <trkpt lat="47.551971" lon="7.986555">
        <ele>294.499234</ele>
        <time>2021-11-22T14:43:11.452Z</time>
      </trkpt>
      <trkpt lat="47.551917" lon="7.986288">
        <ele>294.369199</ele>
        <time>2021-11-22T14:43:13.532Z</time>
      </trkpt>
      <trkpt lat="47.551915" lon="7.986209">
        <ele>294.332317</ele>
        <time>2021-11-22T14:43:14.092Z</time>
      </trkpt>
      <trkpt lat="47.551898" lon="7.985654">
        <ele>294.073128</ele>
        <time>2021-11-22T14:43:19.600Z</time>
      </trkpt>
      <trkpt lat="47.551939" lon="7.985151">
        <ele>293.836760</ele>
        <time>2021-11-22T14:43:25.846Z</time>
      </trkpt>
      <trkpt lat="47.551934" lon="7.984260">
        <ele>294.529599</ele>
        <time>2021-11-22T14:43:39.747Z</time>
      </trkpt>
      <trkpt lat="47.551993" lon="7.984014">
        <ele>295.015158</ele>
        <time>2021-11-22T14:43:43.425Z</time>
      </trkpt>
      <trkpt lat="47.552007" lon="7.983931">
        <ele>295.174276</ele>
        <time>2021-11-22T14:43:44.992Z</time>
      </trkpt>
      <trkpt lat="47.552005" lon="7.983849">
        <ele>295.326886</ele>
        <time>2021-11-22T14:43:47.086Z</time>
      </trkpt>
      <trkpt lat="47.551911" lon="7.983632">
        <ele>295.806456</ele>
        <time>2021-11-22T14:43:51.316Z</time>
      </trkpt>
      <trkpt lat="47.551892" lon="7.983447">
        <ele>296.154495</ele>
        <time>2021-11-22T14:43:54.645Z</time>
      </trkpt>
      <trkpt lat="47.551879" lon="7.982483">
        <ele>297.947779</ele>
        <time>2021-11-22T14:44:14.156Z</time>
      </trkpt>
      <trkpt lat="47.551861" lon="7.981113">
        <ele>299.453478</ele>
        <time>2021-11-22T14:44:37.930Z</time>
      </trkpt>
      <trkpt lat="47.551865" lon="7.980584">
        <ele>299.896358</ele>
        <time>2021-11-22T14:44:44.522Z</time>
      </trkpt>
      <trkpt lat="47.551873" lon="7.980135">
        <ele>300.272368</ele>
        <time>2021-11-22T14:44:49.143Z</time>
      </trkpt>
      <trkpt lat="47.551933" lon="7.979363">
        <ele>300.789373</ele>
        <time>2021-11-22T14:44:57.246Z</time>
      </trkpt>
      <trkpt lat="47.551923" lon="7.979308">
        <ele>300.767886</ele>
        <time>2021-11-22T14:44:57.613Z</time>
      </trkpt>
      <trkpt lat="47.551901" lon="7.979190">
        <ele>300.721706</ele>
        <time>2021-11-22T14:44:58.577Z</time>
      </trkpt>
      <trkpt lat="47.551829" lon="7.976305">
        <ele>299.863558</ele>
        <time>2021-11-22T14:45:23.608Z</time>
      </trkpt>
      <trkpt lat="47.551793" lon="7.974325">
        <ele>300.010743</ele>
        <time>2021-11-22T14:45:45.720Z</time>
      </trkpt>
      <trkpt lat="47.551755" lon="7.972603">
        <ele>299.743729</ele>
        <time>2021-11-22T14:46:03.019Z</time>
      </trkpt>
      <trkpt lat="47.551725" lon="7.970823">
        <ele>299.349407</ele>
        <time>2021-11-22T14:46:18.248Z</time>
      </trkpt>
      <trkpt lat="47.551734" lon="7.970034">
        <ele>299.120580</ele>
        <time>2021-11-22T14:46:25.208Z</time>
      </trkpt>
      <trkpt lat="47.551750" lon="7.968659">
        <ele>298.797570</ele>
        <time>2021-11-22T14:46:38.397Z</time>
      </trkpt>
      <trkpt lat="47.551825" lon="7.968445">
        <ele>298.838383</ele>
        <time>2021-11-22T14:46:40.650Z</time>
      </trkpt>
      <trkpt lat="47.551847" lon="7.968315">
        <ele>298.861067</ele>
        <time>2021-11-22T14:46:42.120Z</time>
      </trkpt>
      <trkpt lat="47.551839" lon="7.968208">
        <ele>298.879288</ele>
        <time>2021-11-22T14:46:43.322Z</time>
      </trkpt>
      <trkpt lat="47.551767" lon="7.967910">
        <ele>298.932860</ele>
        <time>2021-11-22T14:46:46.555Z</time>
      </trkpt>
      <trkpt lat="47.551902" lon="7.964650">
        <ele>299.459301</ele>
        <time>2021-11-22T14:47:22.956Z</time>
      </trkpt>
      <trkpt lat="47.551918" lon="7.963725">
        <ele>299.600329</ele>
        <time>2021-11-22T14:47:32.354Z</time>
      </trkpt>
      <trkpt lat="47.551906" lon="7.962453">
        <ele>299.306073</ele>
        <time>2021-11-22T14:47:44.284Z</time>
      </trkpt>
      <trkpt lat="47.551859" lon="7.961133">
        <ele>298.919861</ele>
        <time>2021-11-22T14:47:55.868Z</time>
      </trkpt>
      <trkpt lat="47.551894" lon="7.960729">
        <ele>298.816280</ele>
        <time>2021-11-22T14:47:59.619Z</time>
      </trkpt>
      <trkpt lat="47.551882" lon="7.960631">
        <ele>298.796656</ele>
        <time>2021-11-22T14:48:00.389Z</time>
      </trkpt>
      <trkpt lat="47.551865" lon="7.960528">
        <ele>298.775764</ele>
        <time>2021-11-22T14:48:01.335Z</time>
      </trkpt>
      <trkpt lat="47.551677" lon="7.960100">
        <ele>298.675147</ele>
        <time>2021-11-22T14:48:05.859Z</time>
      </trkpt>
      <trkpt lat="47.551300" lon="7.958844">
        <ele>298.404304</ele>
        <time>2021-11-22T14:48:18.770Z</time>
      </trkpt>
      <trkpt lat="47.550869" lon="7.957700">
        <ele>298.357821</ele>
        <time>2021-11-22T14:48:32.134Z</time>
      </trkpt>
      <trkpt lat="47.550745" lon="7.957569">
        <ele>298.366532</ele>
        <time>2021-11-22T14:48:34.373Z</time>
      </trkpt>
      <trkpt lat="47.550735" lon="7.957541">
        <ele>298.367755</ele>
        <time>2021-11-22T14:48:34.815Z</time>
      </trkpt>
      <trkpt lat="47.550613" lon="7.957254">
        <ele>298.380848</ele>
        <time>2021-11-22T14:48:38.153Z</time>
      </trkpt>
      <trkpt lat="47.550549" lon="7.957126">
        <ele>298.386997</ele>
        <time>2021-11-22T14:48:39.701Z</time>
      </trkpt>
      <trkpt lat="47.550445" lon="7.956918">
        <ele>298.396990</ele>
        <time>2021-11-22T14:48:42.374Z</time>
      </trkpt>
      <trkpt lat="47.550380" lon="7.956806">
        <ele>298.402692</ele>
        <time>2021-11-22T14:48:43.858Z</time>
      </trkpt>
      <trkpt lat="47.550205" lon="7.956552">
        <ele>298.416703</ele>
        <time>2021-11-22T14:48:47.568Z</time>
      </trkpt>
      <trkpt lat="47.549444" lon="7.955496">
        <ele>298.539936</ele>
        <time>2021-11-22T14:49:03.934Z</time>
      </trkpt>
      <trkpt lat="47.549157" lon="7.955099">
        <ele>298.590777</ele>
        <time>2021-11-22T14:49:09.735Z</time>
      </trkpt>
      <trkpt lat="47.549042" lon="7.954942">
        <ele>298.611025</ele>
        <time>2021-11-22T14:49:12.087Z</time>
      </trkpt>
      <trkpt lat="47.548833" lon="7.954652">
        <ele>298.648102</ele>
        <time>2021-11-22T14:49:16.443Z</time>
      </trkpt>
      <trkpt lat="47.548542" lon="7.954269">
        <ele>298.753001</ele>
        <time>2021-11-22T14:49:22.461Z</time>
      </trkpt>
      <trkpt lat="47.548342" lon="7.954009">
        <ele>298.834880</ele>
        <time>2021-11-22T14:49:26.643Z</time>
      </trkpt>
      <trkpt lat="47.548251" lon="7.953895">
        <ele>298.871552</ele>
        <time>2021-11-22T14:49:28.571Z</time>
      </trkpt>
      <trkpt lat="47.548115" lon="7.953729">
        <ele>298.925777</ele>
        <time>2021-11-22T14:49:31.440Z</time>
      </trkpt>
      <trkpt lat="47.547994" lon="7.953584">
        <ele>298.973668</ele>
        <time>2021-11-22T14:49:34.002Z</time>
      </trkpt>
      <trkpt lat="47.547871" lon="7.953437">
        <ele>299.022298</ele>
        <time>2021-11-22T14:49:36.593Z</time>
      </trkpt>
      <trkpt lat="47.547797" lon="7.953355">
        <ele>299.050735</ele>
        <time>2021-11-22T14:49:38.096Z</time>
      </trkpt>
      <trkpt lat="47.547624" lon="7.953160">
        <ele>299.117627</ele>
        <time>2021-11-22T14:49:41.590Z</time>
      </trkpt>
      <trkpt lat="47.547550" lon="7.953078">
        <ele>299.146064</ele>
        <time>2021-11-22T14:49:43.114Z</time>
      </trkpt>
      <trkpt lat="47.547458" lon="7.952975">
        <ele>299.181549</ele>
        <time>2021-11-22T14:49:45.127Z</time>
      </trkpt>
      <trkpt lat="47.547400" lon="7.952910">
        <ele>299.203929</ele>
        <time>2021-11-22T14:49:46.409Z</time>
      </trkpt>
      <trkpt lat="47.547090" lon="7.952543">
        <ele>299.342891</ele>
        <time>2021-11-22T14:49:52.857Z</time>
      </trkpt>
      <trkpt lat="47.546935" lon="7.952372">
        <ele>299.411179</ele>
        <time>2021-11-22T14:49:55.749Z</time>
      </trkpt>
      <trkpt lat="47.546776" lon="7.952185">
        <ele>299.482914</ele>
        <time>2021-11-22T14:49:59.073Z</time>
      </trkpt>
      <trkpt lat="47.546695" lon="7.952091">
        <ele>299.519271</ele>
        <time>2021-11-22T14:50:00.881Z</time>
      </trkpt>
      <trkpt lat="47.546634" lon="7.952024">
        <ele>299.546104</ele>
        <time>2021-11-22T14:50:02.324Z</time>
      </trkpt>
      <trkpt lat="47.546421" lon="7.951793">
        <ele>299.639380</ele>
        <time>2021-11-22T14:50:06.735Z</time>
      </trkpt>
      <trkpt lat="47.546231" lon="7.951558">
        <ele>299.726840</ele>
        <time>2021-11-22T14:50:11.288Z</time>
      </trkpt>
      <trkpt lat="47.546212" lon="7.951535">
        <ele>299.735510</ele>
        <time>2021-11-22T14:50:11.534Z</time>
      </trkpt>
      <trkpt lat="47.546135" lon="7.951406">
        <ele>299.776583</ele>
        <time>2021-11-22T14:50:13.343Z</time>
      </trkpt>
      <trkpt lat="47.545886" lon="7.951110">
        <ele>299.794776</ele>
        <time>2021-11-22T14:50:18.163Z</time>
      </trkpt>
      <trkpt lat="47.545824" lon="7.951061">
        <ele>299.762893</ele>
        <time>2021-11-22T14:50:19.304Z</time>
      </trkpt>
      <trkpt lat="47.545759" lon="7.950982">
        <ele>299.724747</ele>
        <time>2021-11-22T14:50:20.710Z</time>
      </trkpt>
      <trkpt lat="47.545727" lon="7.950947">
        <ele>299.706701</ele>
        <time>2021-11-22T14:50:21.511Z</time>
      </trkpt>
      <trkpt lat="47.545625" lon="7.950829">
        <ele>299.647983</ele>
        <time>2021-11-22T14:50:23.066Z</time>
      </trkpt>
      <trkpt lat="47.545567" lon="7.950765">
        <ele>299.615171</ele>
        <time>2021-11-22T14:50:24.100Z</time>
      </trkpt>
      <trkpt lat="47.545494" lon="7.950684">
        <ele>299.573790</ele>
        <time>2021-11-22T14:50:25.468Z</time>
      </trkpt>
      <trkpt lat="47.545434" lon="7.950668">
        <ele>299.546130</ele>
        <time>2021-11-22T14:50:26.553Z</time>
      </trkpt>
      <trkpt lat="47.545166" lon="7.950366">
        <ele>299.393356</ele>
        <time>2021-11-22T14:50:30.893Z</time>
      </trkpt>
      <trkpt lat="47.544901" lon="7.950044">
        <ele>299.237853</ele>
        <time>2021-11-22T14:50:35.027Z</time>
      </trkpt>
      <trkpt lat="47.544521" lon="7.949558">
        <ele>299.061665</ele>
        <time>2021-11-22T14:50:41.216Z</time>
      </trkpt>
      <trkpt lat="47.544239" lon="7.949202">
        <ele>299.290993</ele>
        <time>2021-11-22T14:50:46.124Z</time>
      </trkpt>
      <trkpt lat="47.543864" lon="7.948694">
        <ele>299.605518</ele>
        <time>2021-11-22T14:50:54.087Z</time>
      </trkpt>
      <trkpt lat="47.543760" lon="7.948548">
        <ele>299.694203</ele>
        <time>2021-11-22T14:50:56.329Z</time>
      </trkpt>
      <trkpt lat="47.543579" lon="7.948287">
        <ele>299.850546</ele>
        <time>2021-11-22T14:51:02.047Z</time>
      </trkpt>
      <trkpt lat="47.543532" lon="7.948214">
        <ele>299.892696</ele>
        <time>2021-11-22T14:51:03.173Z</time>
      </trkpt>
      <trkpt lat="47.543435" lon="7.948000">
        <ele>300.000397</ele>
        <time>2021-11-22T14:51:06.235Z</time>
      </trkpt>
      <trkpt lat="47.543407" lon="7.947938">
        <ele>300.031565</ele>
        <time>2021-11-22T14:51:08.092Z</time>
      </trkpt>
      <trkpt lat="47.543280" lon="7.947656">
        <ele>300.266398</ele>
        <time>2021-11-22T14:51:12.579Z</time>
      </trkpt>
      <trkpt lat="47.543142" lon="7.947250">
        <ele>301.088249</ele>
        <time>2021-11-22T14:51:20.043Z</time>
      </trkpt>
      <trkpt lat="47.543086" lon="7.947052">
        <ele>301.476385</ele>
        <time>2021-11-22T14:51:23.472Z</time>
      </trkpt>
      <trkpt lat="47.543056" lon="7.946935">
        <ele>301.702667</ele>
        <time>2021-11-22T14:51:26.314Z</time>
      </trkpt>
      <trkpt lat="47.543045" lon="7.946881">
        <ele>301.804648</ele>
        <time>2021-11-22T14:51:27.471Z</time>
      </trkpt>
      <trkpt lat="47.542982" lon="7.946547">
        <ele>302.431652</ele>
        <time>2021-11-22T14:51:32.870Z</time>
      </trkpt>
      <trkpt lat="47.542974" lon="7.946495">
        <ele>302.528079</ele>
        <time>2021-11-22T14:51:34.511Z</time>
      </trkpt>
      <trkpt lat="47.542960" lon="7.946400">
        <ele>302.703884</ele>
        <time>2021-11-22T14:51:36.577Z</time>
      </trkpt>
      <trkpt lat="47.542916" lon="7.945730">
        <ele>303.920966</ele>
        <time>2021-11-22T14:51:49.242Z</time>
      </trkpt>
      <trkpt lat="47.542913" lon="7.945267">
        <ele>304.758111</ele>
        <time>2021-11-22T14:51:57.737Z</time>
      </trkpt>
      <trkpt lat="47.543007" lon="7.943867">
        <ele>305.945705</ele>
        <time>2021-11-22T14:52:18.904Z</time>
      </trkpt>
      <trkpt lat="47.543161" lon="7.942213">
        <ele>306.777498</ele>
        <time>2021-11-22T14:52:37.311Z</time>
      </trkpt>
      <trkpt lat="47.543435" lon="7.940670">
        <ele>305.658075</ele>
        <time>2021-11-22T14:52:50.259Z</time>
      </trkpt>
      <trkpt lat="47.543826" lon="7.939433">
        <ele>304.397759</ele>
        <time>2021-11-22T14:53:00.660Z</time>
      </trkpt>
      <trkpt lat="47.544472" lon="7.937932">
        <ele>302.246541</ele>
        <time>2021-11-22T14:53:13.984Z</time>
      </trkpt>
      <trkpt lat="47.544705" lon="7.937395">
        <ele>301.514330</ele>
        <time>2021-11-22T14:53:18.823Z</time>
      </trkpt>
      <trkpt lat="47.544903" lon="7.936917">
        <ele>300.899510</ele>
        <time>2021-11-22T14:53:23.084Z</time>
      </trkpt>
      <trkpt lat="47.545074" lon="7.936484">
        <ele>300.349552</ele>
        <time>2021-11-22T14:53:26.915Z</time>
      </trkpt>
      <trkpt lat="47.545457" lon="7.935110">
        <ele>298.919371</ele>
        <time>2021-11-22T14:53:38.283Z</time>
      </trkpt>
      <trkpt lat="47.545674" lon="7.933625">
        <ele>298.548091</ele>
        <time>2021-11-22T14:53:51.363Z</time>
      </trkpt>
      <trkpt lat="47.545702" lon="7.933290">
        <ele>298.465606</ele>
        <time>2021-11-22T14:53:54.943Z</time>
      </trkpt>
      <trkpt lat="47.545724" lon="7.932758">
        <ele>298.335363</ele>
        <time>2021-11-22T14:54:01.210Z</time>
      </trkpt>
      <trkpt lat="47.545721" lon="7.931992">
        <ele>299.197643</ele>
        <time>2021-11-22T14:54:11.250Z</time>
      </trkpt>
      <trkpt lat="47.545696" lon="7.931497">
        <ele>299.794412</ele>
        <time>2021-11-22T14:54:18.455Z</time>
      </trkpt>
      <trkpt lat="47.545661" lon="7.930955">
        <ele>300.448998</ele>
        <time>2021-11-22T14:54:27.150Z</time>
      </trkpt>
      <trkpt lat="47.545563" lon="7.929641">
        <ele>301.653279</ele>
        <time>2021-11-22T14:54:49.490Z</time>
      </trkpt>
      <trkpt lat="47.545475" lon="7.928419">
        <ele>302.013809</ele>
        <time>2021-11-22T14:55:05.792Z</time>
      </trkpt>
      <trkpt lat="47.545421" lon="7.927686">
        <ele>302.230125</ele>
        <time>2021-11-22T14:55:11.896Z</time>
      </trkpt>
      <trkpt lat="47.545406" lon="7.927306">
        <ele>302.078962</ele>
        <time>2021-11-22T14:55:14.800Z</time>
      </trkpt>
      <trkpt lat="47.545407" lon="7.927001">
        <ele>301.412002</ele>
        <time>2021-11-22T14:55:17.086Z</time>
      </trkpt>
      <trkpt lat="47.545409" lon="7.926773">
        <ele>300.913386</ele>
        <time>2021-11-22T14:55:18.716Z</time>
      </trkpt>
      <trkpt lat="47.545417" lon="7.925848">
        <ele>298.890497</ele>
        <time>2021-11-22T14:55:25.051Z</time>
      </trkpt>
      <trkpt lat="47.545446" lon="7.925350">
        <ele>297.797462</ele>
        <time>2021-11-22T14:55:28.343Z</time>
      </trkpt>
      <trkpt lat="47.545466" lon="7.924880">
        <ele>296.767661</ele>
        <time>2021-11-22T14:55:31.396Z</time>
      </trkpt>
      <trkpt lat="47.545481" lon="7.924396">
        <ele>295.783088</ele>
        <time>2021-11-22T14:55:34.479Z</time>
      </trkpt>
      <trkpt lat="47.545521" lon="7.923709">
        <ele>294.420858</ele>
        <time>2021-11-22T14:55:39.005Z</time>
      </trkpt>
      <trkpt lat="47.545536" lon="7.923407">
        <ele>293.822634</ele>
        <time>2021-11-22T14:55:41.394Z</time>
      </trkpt>
      <trkpt lat="47.545553" lon="7.923142">
        <ele>293.296760</ele>
        <time>2021-11-22T14:55:43.115Z</time>
      </trkpt>
      <trkpt lat="47.545587" lon="7.922895">
        <ele>292.798761</ele>
        <time>2021-11-22T14:55:45.516Z</time>
      </trkpt>
      <trkpt lat="47.545641" lon="7.922610">
        <ele>292.213975</ele>
        <time>2021-11-22T14:55:47.515Z</time>
      </trkpt>
      <trkpt lat="47.545690" lon="7.922369">
        <ele>291.716744</ele>
        <time>2021-11-22T14:55:50.206Z</time>
      </trkpt>
      <trkpt lat="47.545699" lon="7.922325">
        <ele>291.625917</ele>
        <time>2021-11-22T14:55:50.467Z</time>
      </trkpt>
      <trkpt lat="47.545714" lon="7.922249">
        <ele>291.469491</ele>
        <time>2021-11-22T14:55:51.057Z</time>
      </trkpt>
      <trkpt lat="47.545778" lon="7.921947">
        <ele>291.123079</ele>
        <time>2021-11-22T14:55:54.213Z</time>
      </trkpt>
      <trkpt lat="47.545810" lon="7.921755">
        <ele>291.022483</ele>
        <time>2021-11-22T14:55:55.571Z</time>
      </trkpt>
      <trkpt lat="47.545881" lon="7.921096">
        <ele>290.683031</ele>
        <time>2021-11-22T14:56:00.919Z</time>
      </trkpt>
      <trkpt lat="47.545913" lon="7.920765">
        <ele>290.512946</ele>
        <time>2021-11-22T14:56:03.786Z</time>
      </trkpt>
      <trkpt lat="47.545973" lon="7.920313">
        <ele>290.278628</ele>
        <time>2021-11-22T14:56:08.933Z</time>
      </trkpt>
      <trkpt lat="47.546128" lon="7.919617">
        <ele>289.905830</ele>
        <time>2021-11-22T14:56:15.396Z</time>
      </trkpt>
      <trkpt lat="47.546262" lon="7.919081">
        <ele>289.707624</ele>
        <time>2021-11-22T14:56:21.395Z</time>
      </trkpt>
      <trkpt lat="47.546821" lon="7.916867">
        <ele>288.977631</ele>
        <time>2021-11-22T14:56:42.148Z</time>
      </trkpt>
      <trkpt lat="47.547032" lon="7.916218">
        <ele>288.846493</ele>
        <time>2021-11-22T14:56:48.639Z</time>
      </trkpt>
      <trkpt lat="47.547091" lon="7.916039">
        <ele>288.810230</ele>
        <time>2021-11-22T14:56:50.456Z</time>
      </trkpt>
      <trkpt lat="47.547113" lon="7.915971">
        <ele>288.796502</ele>
        <time>2021-11-22T14:56:51.055Z</time>
      </trkpt>
      <trkpt lat="47.547423" lon="7.915080">
        <ele>288.614022</ele>
        <time>2021-11-22T14:57:00.699Z</time>
      </trkpt>
      <trkpt lat="47.547994" lon="7.913433">
        <ele>289.102763</ele>
        <time>2021-11-22T14:57:20.418Z</time>
      </trkpt>
      <trkpt lat="47.548027" lon="7.913334">
        <ele>289.149051</ele>
        <time>2021-11-22T14:57:21.778Z</time>
      </trkpt>
      <trkpt lat="47.548412" lon="7.912168">
        <ele>289.734304</ele>
        <time>2021-11-22T14:57:38.181Z</time>
      </trkpt>
      <trkpt lat="47.549012" lon="7.910340">
        <ele>291.299496</ele>
        <time>2021-11-22T14:58:05.123Z</time>
      </trkpt>
      <trkpt lat="47.549102" lon="7.910058">
        <ele>291.539690</ele>
        <time>2021-11-22T14:58:09.283Z</time>
      </trkpt>
      <trkpt lat="47.549195" lon="7.909756">
        <ele>291.842876</ele>
        <time>2021-11-22T14:58:13.542Z</time>
      </trkpt>
      <trkpt lat="47.549239" lon="7.909611">
        <ele>292.023985</ele>
        <time>2021-11-22T14:58:15.671Z</time>
      </trkpt>
      <trkpt lat="47.549310" lon="7.909375">
        <ele>292.318332</ele>
        <time>2021-11-22T14:58:18.908Z</time>
      </trkpt>
      <trkpt lat="47.549381" lon="7.909139">
        <ele>292.612678</ele>
        <time>2021-11-22T14:58:22.355Z</time>
      </trkpt>
      <trkpt lat="47.549520" lon="7.908678">
        <ele>293.187863</ele>
        <time>2021-11-22T14:58:28.872Z</time>
      </trkpt>
      <trkpt lat="47.549539" lon="7.908625">
        <ele>293.256228</ele>
        <time>2021-11-22T14:58:29.623Z</time>
      </trkpt>
      <trkpt lat="47.550497" lon="7.905558">
        <ele>298.537926</ele>
        <time>2021-11-22T14:59:24.478Z</time>
      </trkpt>
      <trkpt lat="47.550283" lon="7.905413">
        <ele>299.174610</ele>
        <time>2021-11-22T14:59:32.644Z</time>
      </trkpt>
      <trkpt lat="47.550067" lon="7.905245">
        <ele>299.933299</ele>
        <time>2021-11-22T14:59:41.330Z</time>
      </trkpt>
      <trkpt lat="47.549867" lon="7.905155">
        <ele>300.734832</ele>
        <time>2021-11-22T14:59:48.959Z</time>
      </trkpt>
      <trkpt lat="47.549868" lon="7.905010">
        <ele>301.110143</ele>
        <time>2021-11-22T14:59:52.364Z</time>
      </trkpt>
      <trkpt lat="47.550025" lon="7.904774">
        <ele>301.967791</ele>
        <time>2021-11-22T15:00:00.515Z</time>
      </trkpt>
      <trkpt lat="47.550302" lon="7.904164">
        <ele>303.870661</ele>
        <time>2021-11-22T15:00:18.814Z</time>
      </trkpt>
      <trkpt lat="47.550498" lon="7.903445">
        <ele>305.877621</ele>
        <time>2021-11-22T15:00:38.386Z</time>
      </trkpt>
      <trkpt lat="47.550688" lon="7.902451">
        <ele>308.524689</ele>
        <time>2021-11-22T15:01:00.934Z</time>
      </trkpt>
      <trkpt lat="47.550757" lon="7.901591">
        <ele>310.737009</ele>
        <time>2021-11-22T15:01:20.731Z</time>
      </trkpt>
      <trkpt lat="47.550769" lon="7.901362">
        <ele>311.323744</ele>
        <time>2021-11-22T15:01:26.638Z</time>
      </trkpt>
      <trkpt lat="47.550801" lon="7.900244">
        <ele>314.257719</ele>
        <time>2021-11-22T15:01:51.036Z</time>
      </trkpt>
      <trkpt lat="47.550819" lon="7.898109">
        <ele>320.180320</ele>
        <time>2021-11-22T15:02:38.076Z</time>
      </trkpt>
      <trkpt lat="47.550648" lon="7.896481">
        <ele>322.665850</ele>
        <time>2021-11-22T15:03:05.731Z</time>
      </trkpt>
      <trkpt lat="47.550639" lon="7.896345">
        <ele>322.850058</ele>
        <time>2021-11-22T15:03:08.106Z</time>
      </trkpt>
      <trkpt lat="47.550660" lon="7.896255">
        <ele>322.978424</ele>
        <time>2021-11-22T15:03:08.907Z</time>
      </trkpt>
      <trkpt lat="47.550838" lon="7.895509">
        <ele>324.045026</ele>
        <time>2021-11-22T15:03:19.075Z</time>
      </trkpt>
      <trkpt lat="47.550878" lon="7.895158">
        <ele>324.486863</ele>
        <time>2021-11-22T15:03:23.137Z</time>
      </trkpt>
      <trkpt lat="47.550908" lon="7.894308">
        <ele>325.450657</ele>
        <time>2021-11-22T15:03:33.610Z</time>
      </trkpt>
      <trkpt lat="47.550892" lon="7.893176">
        <ele>326.732734</ele>
        <time>2021-11-22T15:03:48.327Z</time>
      </trkpt>
      <trkpt lat="47.550904" lon="7.891725">
        <ele>330.597173</ele>
        <time>2021-11-22T15:04:18.089Z</time>
      </trkpt>
      <trkpt lat="47.550915" lon="7.890600">
        <ele>334.513515</ele>
        <time>2021-11-22T15:04:46.929Z</time>
      </trkpt>
      <trkpt lat="47.550833" lon="7.889069">
        <ele>340.531205</ele>
        <time>2021-11-22T15:05:29.563Z</time>
      </trkpt>
      <trkpt lat="47.550831" lon="7.888611">
        <ele>342.452138</ele>
        <time>2021-11-22T15:05:42.133Z</time>
      </trkpt>
      <trkpt lat="47.550789" lon="7.887816">
        <ele>345.796640</ele>
        <time>2021-11-22T15:06:02.745Z</time>
      </trkpt>
      <trkpt lat="47.550758" lon="7.887295">
        <ele>347.957792</ele>
        <time>2021-11-22T15:06:16.566Z</time>
      </trkpt>
      <trkpt lat="47.550677" lon="7.886476">
        <ele>350.944760</ele>
        <time>2021-11-22T15:06:38.055Z</time>
      </trkpt>
      <trkpt lat="47.550548" lon="7.885799">
        <ele>353.483247</ele>
        <time>2021-11-22T15:06:55.258Z</time>
      </trkpt>
      <trkpt lat="47.550391" lon="7.885109">
        <ele>356.110845</ele>
        <time>2021-11-22T15:07:12.896Z</time>
      </trkpt>
      <trkpt lat="47.550332" lon="7.884727">
        <ele>357.483187</ele>
        <time>2021-11-22T15:07:21.586Z</time>
      </trkpt>
      <trkpt lat="47.550234" lon="7.883221">
        <ele>361.429346</ele>
        <time>2021-11-22T15:07:54.417Z</time>
      </trkpt>
      <trkpt lat="47.549927" lon="7.881490">
        <ele>366.114706</ele>
        <time>2021-11-22T15:08:26.681Z</time>
      </trkpt>
      <trkpt lat="47.549726" lon="7.880786">
        <ele>368.127862</ele>
        <time>2021-11-22T15:08:42.658Z</time>
      </trkpt>
      <trkpt lat="47.549327" lon="7.879547">
        <ele>371.715461</ele>
        <time>2021-11-22T15:09:12.442Z</time>
      </trkpt>
      <trkpt lat="47.549318" lon="7.879398">
        <ele>372.081974</ele>
        <time>2021-11-22T15:09:15.630Z</time>
      </trkpt>
      <trkpt lat="47.549140" lon="7.879391">
        <ele>372.728326</ele>
        <time>2021-11-22T15:09:22.500Z</time>
      </trkpt>
      <trkpt lat="47.548718" lon="7.879258">
        <ele>374.294424</ele>
        <time>2021-11-22T15:09:36.171Z</time>
      </trkpt>
      <trkpt lat="47.548422" lon="7.878959">
        <ele>375.594850</ele>
        <time>2021-11-22T15:09:46.818Z</time>
      </trkpt>
      <trkpt lat="47.548234" lon="7.878638">
        <ele>376.636120</ele>
        <time>2021-11-22T15:09:55.250Z</time>
      </trkpt>
      <trkpt lat="47.547992" lon="7.877974">
        <ele>377.777334</ele>
        <time>2021-11-22T15:10:08.347Z</time>
      </trkpt>
      <trkpt lat="47.547574" lon="7.876801">
        <ele>377.275013</ele>
        <time>2021-11-22T15:10:22.111Z</time>
      </trkpt>
      <trkpt lat="47.547126" lon="7.875801">
        <ele>376.503040</ele>
        <time>2021-11-22T15:10:30.893Z</time>
      </trkpt>
      <trkpt lat="47.546309" lon="7.874154">
        <ele>369.939480</ele>
        <time>2021-11-22T15:10:44.082Z</time>
      </trkpt>
      <trkpt lat="47.546135" lon="7.873859">
        <ele>368.681434</ele>
        <time>2021-11-22T15:10:46.464Z</time>
      </trkpt>
      <trkpt lat="47.546077" lon="7.873763">
        <ele>368.305928</ele>
        <time>2021-11-22T15:10:47.275Z</time>
      </trkpt>
      <trkpt lat="47.545934" lon="7.873549">
        <ele>368.305928</ele>
        <time>2021-11-22T15:10:49.079Z</time>
      </trkpt>
      <trkpt lat="47.545746" lon="7.873302">
        <ele>368.305928</ele>
        <time>2021-11-22T15:10:51.368Z</time>
      </trkpt>
      <trkpt lat="47.545515" lon="7.873015">
        <ele>368.305928</ele>
        <time>2021-11-22T15:10:54.070Z</time>
      </trkpt>
      <trkpt lat="47.545478" lon="7.872968">
        <ele>368.305928</ele>
        <time>2021-11-22T15:10:54.512Z</time>
      </trkpt>
      <trkpt lat="47.545375" lon="7.872836">
        <ele>368.305928</ele>
        <time>2021-11-22T15:10:55.708Z</time>
      </trkpt>
      <trkpt lat="47.545131" lon="7.872664">
        <ele>368.305928</ele>
        <time>2021-11-22T15:10:58.177Z</time>
      </trkpt>
      <trkpt lat="47.544883" lon="7.872555">
        <ele>368.305928</ele>
        <time>2021-11-22T15:11:00.530Z</time>
      </trkpt>
      <trkpt lat="47.544390" lon="7.872423">
        <ele>368.305928</ele>
        <time>2021-11-22T15:11:05.151Z</time>
      </trkpt>
      <trkpt lat="47.543715" lon="7.872304">
        <ele>368.305928</ele>
        <time>2021-11-22T15:11:11.758Z</time>
      </trkpt>
    </trkseg>
  </trk>
</gpx>